[[{"header":{"parameterUnit":"m.s-1","parameterCategory":1,"la1":31.0,"la2":29.5877,"lo1":-88.7671,"lo2":-86.6584,"dy":0.0162,"dx":0.0185,"nx":115,"ny":88,"refTime":"2023-04-16T06:00:00:Z","depth":0,"parameterNumber":2,"parameterNumberName":"U-component_of_WINDS"},"data":[0.0,0.0,0.0,0.0,0.0,0.0,0.0,0.0,0.0,0.0,0.0,0.0,0.0,0.0,0.0,0.0,0.0,0.0,0.0,0.0,0.0,0.0,0.0,0.0,0.0,0.0,0.0,0.0,0.0,0.0,0.0,0.0,0.0,0.0,0.0,0.0,0.0,0.0,0.0,0.0,0.0,0.0,0.0,0.0,0.0,0.0,0.0,0.0,0.0,0.0,0.0,0.0,0.0,0.0,0.0,0.0,0.0,0.0,0.0,0.0,0.0,0.0,0.0,0.0,0.0,0.0,0.0,0.0,0.0,0.0,0.0,0.0,0.0,0.0,0.0,0.0,0.0,0.0,0.0,0.0,0.0,0.0,0.0,0.0,0.0,0.0,0.0,0.0,0.0,0.0,0.0,0.0,0.0,0.0,0.0,0.0,0.0,0.0,0.0,0.0,0.0,0.0,0.0,0.0,0.0,0.0,0.0,0.0,0.0,0.0,0.0,0.0,0.0,0.0,0.0,0.0,0.0,0.0,0.0,0.0,0.0,0.0,0.0,0.0,0.0,0.0,0.0,0.0,0.0,0.0,0.0,0.0,0.0,0.0,0.0,0.0,0.0,0.0,0.0,0.0,0.0,0.0,0.0,0.0,0.0,0.0,0.0,0.0,0.0,0.0,0.0,0.0,0.0,0.0,0.0,0.0,0.0,0.0,0.0,0.0,0.0,0.0,0.0,0.0,0.0,0.0,0.0,0.0,0.0,0.0,0.0,0.0,0.0,0.0,0.0,0.0,0.0,0.0,0.0,0.0,0.0,0.0,0.0,0.0,0.0,0.0,0.0,0.0,0.0,0.0,0.0,0.0,0.0,0.0,0.0,0.0,0.0,0.0,0.0,0.0,0.0,0.0,0.0,0.0,0.0,0.0,0.0,0.0,0.0,0.0,0.0,0.0,0.0,0.0,0.0,0.0,0.0,0.0,0.0,0.0,0.0,0.0,0.0,0.0,0.0,0.0,0.0,0.0,0.0,0.0,0.0,0.0,0.0,0.0,0.0,0.0,0.0,0.0,0.0,0.0,0.0,0.0,0.0,0.0,0.0,0.0,0.0,0.0,0.0,0.0,0.0,0.0,0.0,0.0,0.0,0.0,0.0,0.0,0.0,0.0,0.0,0.0,0.0,0.0,0.0,0.0,0.0,0.0,0.0,0.0,0.0,0.0,0.0,0.0,0.0,0.0,0.0,0.0,0.0,0.0,0.0,0.0,0.0,0.0,0.0,0.0,0.0,0.0,0.0,0.0,0.0,0.0,0.0,0.0,0.0,0.0,0.0,0.0,0.0,0.0,0.0,0.0,0.0,0.0,0.0,0.0,0.0,0.0,0.0,0.0,0.0,0.0,0.0,0.0,0.0,0.0,0.0,0.0,0.0,0.0,0.0,0.0,0.0,0.0,0.0,0.0,0.0,0.0,0.0,0.0,0.0,0.0,0.0,0.0,0.0,0.0,0.0,0.0,0.0,0.0,0.0,0.0,0.0,0.0,0.0,0.0,0.0,0.0,0.0,0.0,0.0,0.0,0.0,0.0,0.0,0.0,0.0,0.0,0.0,0.0,0.0,0.0,0.0,0.0,0.0,0.0,0.0,0.0,0.0,0.0,0.0,0.0,0.0,0.0,0.0,0.0,0.0,0.0,0.0,0.0,0.0,0.0,0.0,0.0,0.0,0.0,0.0,0.0,0.0,0.0,0.0,0.0,0.0,0.0,0.0,0.0,0.0,0.0,0.0,0.0,0.0,0.0,0.0,0.0,0.0,0.0,0.0,0.0,0.0,0.0,0.0,0.0,0.0,0.0,0.0,0.0,0.0,0.0,0.0,0.0,0.0,0.0,0.0,0.0,0.0,0.0,0.0,0.0,0.0,0.0,0.0,0.0,0.0,0.0,0.0,0.0,0.0,0.0,0.0,0.0,0.0,0.0,0.0,0.0,0.0,0.0,0.0,0.0,0.0,0.0,0.0,0.0,0.0,0.0,0.0,0.0,0.0,0.0,0.0,0.0,0.0,0.0,0.0,0.0,0.0,0.0,0.0,0.0,0.0,0.0,0.0,0.0,0.0,0.0,0.0,0.0,0.0,0.0,0.0,0.0,0.0,0.0,0.0,0.0,0.0,0.0,0.0,0.0,0.0,0.0,0.0,0.0,0.0,0.0,0.0,0.0,0.0,0.0,0.0,0.0,0.0,0.0,0.0,0.0,0.0,0.0,0.0,0.0,0.0,0.0,0.0,0.0,0.0,0.0,0.0,0.0,0.0,0.0,0.0,0.0,0.0,0.0,0.0,0.0,0.0,0.0,0.0,0.0,0.0,0.0,0.0,0.0,0.0,0.0,0.0,0.0,0.0,0.0,0.0,0.0,0.0,0.0,0.0,0.0,0.0,0.0,0.0,0.0,0.0,0.0,0.0,0.0,0.0,0.0,0.0,0.0,0.0,0.0,0.0,0.0,0.0,0.0,0.0,0.0,0.0,0.0,0.0,0.0,0.0,0.0,0.0,0.0,0.0,0.0,0.0,0.0,0.0,0.0,0.0,0.0,0.0,0.0,0.0,0.0,0.0,0.0,0.0,0.0,0.0,0.0,0.0,0.0,0.0,0.0,0.0,0.0,0.0,0.0,0.0,0.0,0.0,0.0,0.0,0.0,0.0,0.0,0.0,0.0,0.0,0.0,0.0,0.0,0.0,0.0,0.0,0.0,0.0,0.0,0.0,0.0,0.0,0.0,0.0,0.0,0.0,0.0,0.0,0.0,0.0,0.0,0.0,0.0,0.0,0.0,0.0,0.0,0.0,0.0,0.0,0.0,0.0,0.0,0.0,0.0,0.0,0.0,0.0,0.0,0.0,0.0,0.0,0.0,0.0,0.0,0.0,0.0,0.0,0.0,0.0,0.0,0.0,0.0,0.0,0.0,0.0,0.0,0.0,0.0,0.0,0.0,0.0,0.0,0.0,0.0,0.0,0.0,0.0,0.0,0.0,0.0,0.0,0.0,0.0,0.0,0.0,0.0,0.0,0.0,0.0,0.0,0.0,0.0,0.0,0.0,0.0,0.0,0.0,0.0,0.0,0.0,0.0,0.0,0.0,0.0,0.0,0.0,0.0,0.0,0.0,0.0,0.0,0.0,0.0,0.0,0.0,0.0,0.0,0.0,0.0,0.0,0.0,0.0,0.0,0.0,0.0,0.0,0.0,0.0,0.0,0.0,0.0,0.0,0.0,0.0,0.0,0.0,0.0,0.0,0.0,0.0,0.0,0.0,0.0,0.0,0.0,0.0,0.0,0.0,0.0,0.0,0.0,0.0,0.0,0.0,0.0,0.0,0.0,0.0,0.0,0.0,0.0,0.0,0.0,0.0,0.0,0.0,0.0,0.0,0.0,0.0,0.0,0.0,0.0,0.0,0.0,0.0,0.0,0.0,0.0,0.0,0.0,0.0,0.0,0.0,0.0,0.0,0.0,0.0,0.0,0.0,0.0,0.0,0.0,0.0,0.0,0.0,0.0,0.0,0.0,0.0,0.0,0.0,0.0,0.0,0.0,0.0,0.0,0.0,0.0,0.0,0.0,0.0,0.0,0.0,0.0,0.0,0.0,0.0,0.0,0.0,0.0,0.0,0.0,0.0,0.0,0.0,0.0,0.0,0.0,0.0,0.0,0.0,0.0,0.0,0.0,0.0,0.0,0.0,0.0,0.0,0.0,0.0,0.0,0.0,0.0,0.0,0.0,0.0,0.0,0.0,0.0,0.0,0.0,0.0,0.0,0.0,0.0,0.0,0.0,0.0,0.0,0.0,0.0,0.0,0.0,0.0,0.0,0.0,0.0,0.0,0.0,0.0,0.0,0.0,0.0,0.0,0.0,0.0,0.0,0.0,0.0,0.0,0.0,0.0,0.0,0.0,0.0,0.0,0.0,0.0,0.0,0.0,0.0,0.0,0.0,0.0,0.0,0.0,0.0,0.0,0.0,0.0,0.0,0.0,0.0,0.0,0.0,0.0,0.0,0.0,0.0,0.0,0.0,0.0,0.0,0.0,0.0,0.0,0.0,0.0,0.0,0.0,0.0,0.0,0.0,0.0,0.0,0.0,0.0,0.0,0.0,0.0,0.0,0.0,0.0,0.0,0.0,0.0,0.0,0.0,0.0,0.0,0.0,0.0,0.0,0.0,0.0,0.0,0.0,0.0,0.0,0.0,0.0,0.0,0.0,0.0,0.0,0.0,0.0,0.0,0.0,0.0,0.0,0.0,0.0,0.0,0.7209,0.0,0.0,0.0,0.0,0.0,0.0,0.0,0.0,0.0,0.0,0.0,0.0,0.0,0.0,0.0,0.0,0.0,0.0,0.0,0.0,0.0,0.0,0.0,0.0,0.0,0.0,0.0,0.0,0.0,0.0,0.0,0.0,0.0,0.0,0.0,0.0,0.0,0.0,0.0,0.0,0.0,0.0,0.0,0.0,0.0,0.0,0.0,0.0,0.0,0.0,0.0,0.0,0.0,0.0,0.0,0.0,0.0,0.0,0.0,0.0,0.0,0.0,0.0,0.0,0.0,0.0,0.0,0.0,0.0,0.0,0.0,0.0,0.0,0.0,0.0,0.0,0.0,0.0,0.0,0.0,0.0,0.0,0.0,0.0,0.0,0.0,0.0,0.0,0.0,0.0,0.0,0.0,0.0,0.0,0.0,0.0,0.0,0.0,0.0,0.0,0.0,0.0,0.0,0.0,0.0,0.0,0.0,0.0,0.0,0.0,0.6208,0.716,0.6034,0.6119,0.7636,0.0,0.0,0.0,0.0,0.0,0.0,0.0,0.0,0.0,0.0,0.0,0.0,0.0,0.0,0.0,0.0,0.0,0.0,0.0,0.0,0.0,0.0,0.0,0.0,0.0,0.0,0.0,0.0,0.0,0.0,0.0,0.0,0.0,0.0,0.0,0.0,0.0,0.0,0.0,0.0,0.0,0.0,0.0,0.0,0.0,0.0,0.0,0.0,0.0,0.0,0.0,0.0,0.0,0.0,0.0,0.0,0.0,0.0,0.0,0.0,0.0,0.0,0.0,0.0,0.0,0.0,0.0,0.0,0.0,0.0,0.0,0.0,0.0,0.0,0.0,0.0,0.0,0.0,0.0,0.0,0.0,0.0,0.0,0.0,0.0,0.0,0.0,0.0,0.0,0.0,0.0,0.0,0.0,0.0,0.0,0.0,0.0,0.0,0.0,0.0,0.0,0.0,0.0,0.0,0.0,0.0,0.0,0.0,0.0,0.0,0.0,0.0,0.6435,0.6572,0.8132,0.0,0.0,0.0,0.0,0.0,0.0,0.0,0.0,0.0,0.0,0.0,0.0,0.0,0.0,0.0,0.0,0.0,0.0,0.0,0.0,0.0,0.0,0.0,0.0,0.0,0.0,0.0,0.0,0.0,0.0,0.0,0.0,0.0,0.0,0.0,0.0,0.0,0.0,0.0,0.0,0.0,0.0,0.0,0.0,0.0,0.0,0.0,0.0,0.0,0.0,0.0,0.0,0.0,0.0,0.0,0.0,0.0,0.0,0.0,0.0,0.0,0.0,0.0,0.0,0.0,0.0,0.0,0.0,0.0,0.0,0.0,0.0,0.0,0.0,0.0,0.0,0.0,0.0,0.0,0.0,0.0,0.0,0.0,0.0,0.0,0.0,0.0,0.0,0.0,0.0,0.0,0.0,0.0,0.0,0.0,0.0,0.0,0.0,0.0,0.0,0.0,0.0,0.0,0.0,0.0,0.0,0.0,0.0,0.0,0.0,0.7822,0.8625,0.8557,0.0,0.9077,0.0,0.0,0.0,0.0,0.0,0.0,0.0,0.0,0.0,0.0,0.0,0.0,0.0,0.0,0.0,0.0,0.0,0.0,0.0,0.0,0.0,0.0,0.0,0.0,0.0,0.0,0.0,0.0,0.0,0.0,0.0,0.0,0.0,0.0,0.0,0.0,0.0,0.0,0.0,0.0,0.0,0.0,0.0,0.0,0.0,0.0,0.0,0.0,0.0,0.0,0.0,0.0,0.0,0.0,0.0,0.0,0.0,0.0,0.0,0.0,0.0,0.0,0.0,0.0,0.0,0.0,0.0,0.0,0.0,0.0,0.0,0.0,0.0,0.0,0.0,0.0,0.0,0.0,0.0,0.0,0.0,0.0,0.0,0.0,0.0,0.0,0.0,0.0,0.0,0.0,0.0,0.0,0.0,0.0,0.0,0.0,0.0,0.0,0.0,0.0,0.0,0.0,0.0,0.0,0.0,0.0,0.0,0.0,0.0,0.0,0.7474,0.8183,0.8509,0.853,0.0,0.0,0.0,0.0,0.0,0.0,0.0,0.0,0.0,0.0,0.0,0.0,0.0,0.0,0.0,0.0,0.0,0.0,0.0,0.0,0.0,0.0,0.0,0.0,0.0,0.0,0.0,0.0,0.0,0.0,0.0,0.0,0.0,0.0,0.0,0.0,0.0,0.0,0.0,0.0,0.0,0.0,0.0,0.0,0.0,0.0,0.0,0.0,0.0,0.0,0.0,0.0,0.0,0.0,0.0,0.0,0.0,0.0,0.0,0.0,0.0,0.0,0.0,0.0,0.0,0.0,0.0,0.0,0.0,0.0,0.0,0.0,0.0,0.0,0.0,0.0,0.0,0.0,0.0,0.0,0.0,0.0,0.0,0.0,0.0,0.0,0.0,0.0,0.0,0.0,0.0,0.0,0.0,0.0,0.0,0.0,0.0,0.0,0.0,0.0,0.0,0.0,0.0,0.0,0.0,0.0,0.0,0.0,0.0,0.0,0.7399,0.7508,0.8182,0.8024,0.7981,0.8115,0.0,0.0,0.0,0.0,0.0,0.0,0.0,0.0,0.0,0.0,0.0,0.0,0.0,0.0,0.0,0.0,0.0,0.0,0.0,0.0,0.0,0.0,0.0,0.0,0.0,0.0,0.0,0.0,0.0,0.0,0.0,0.0,0.0,0.0,0.0,0.0,0.0,0.0,0.0,0.0,0.0,0.0,0.0,0.0,0.0,0.0,0.0,0.0,0.0,0.0,0.0,0.0,0.0,0.0,0.0,0.0,0.0,0.0,0.0,0.0,0.0,0.0,0.0,0.0,0.0,0.0,0.0,0.0,0.0,0.0,0.0,0.0,0.0,0.0,0.0,0.0,0.0,0.0,0.0,0.0,0.0,0.0,0.0,0.0,0.0,0.0,0.0,0.0,0.0,0.0,0.0,0.0,0.0,0.0,0.0,0.0,0.0,0.0,0.0,0.0,0.0,0.0,0.0,0.0,0.0,0.0,0.0,0.0,0.8673,0.8257,0.8428,0.9166,0.7467,0.7492,0.0,0.0,0.0,0.0,0.0,0.0,0.0,0.0,0.0,0.0,0.0,0.0,0.0,0.0,0.0,0.0,0.0,0.0,0.0,0.0,0.0,0.0,0.0,0.0,0.0,0.0,0.0,0.0,0.0,0.0,0.0,0.0,0.0,0.0,0.0,0.0,0.0,0.0,0.0,0.0,0.0,0.0,0.0,0.0,0.0,0.0,0.0,0.0,0.0,0.0,0.0,0.0,0.0,0.0,0.0,0.0,0.0,0.0,0.0,0.0,0.0,0.0,0.0,0.0,0.0,0.0,0.0,0.0,0.0,0.0,0.0,0.0,0.0,0.0,0.0,0.0,0.0,0.0,0.0,0.0,0.0,0.0,0.0,0.0,0.0,0.0,0.0,0.0,0.0,0.0,0.0,0.0,0.0,0.0,0.0,0.0,0.0,0.0,0.0,0.0,0.0,0.0,0.0,0.0,0.0,0.0,0.0,0.0,0.0,0.7702,0.7628,0.7355,0.6873,0.7523,0.8127,0.0,0.0,0.0,0.0,0.0,0.0,0.0,0.0,0.0,0.0,0.0,0.0,0.0,0.0,0.0,0.0,0.0,0.0,0.0,0.0,0.0,0.0,0.0,0.0,0.0,0.0,0.0,0.0,0.0,0.0,0.0,0.0,0.0,0.0,0.0,0.0,0.0,0.0,0.0,0.0,0.0,0.0,0.0,0.0,0.0,0.0,0.0,0.0,0.0,0.0,0.0,0.0,0.0,0.0,0.0,0.0,0.0,0.0,0.0,0.0,0.0,0.0,0.0,0.0,0.0,0.0,0.0,0.0,0.0,0.0,0.0,0.0,0.0,0.0,0.0,0.0,0.0,0.0,0.0,0.0,0.0,0.0,0.0,0.0,0.0,0.0,0.0,0.0,0.0,0.0,0.0,0.0,0.0,0.0,0.0,0.0,0.0,0.0,0.0,0.0,0.0,0.0,0.0,0.0,0.0,0.0,0.0,0.0,0.0,0.6821,0.0,0.6692,0.6209,0.7377,0.8139,0.0,0.0,0.0,0.0,0.0,0.0,0.0,0.0,0.0,0.0,0.0,0.0,0.0,0.0,0.0,0.0,0.0,0.0,0.0,0.0,0.0,0.0,0.0,0.0,0.0,0.0,0.0,0.0,0.0,0.0,0.0,0.0,0.0,0.0,0.0,0.0,0.0,0.0,0.0,0.0,0.0,0.0,0.0,0.0,0.0,0.0,0.0,0.0,0.0,0.0,0.0,0.0,0.0,0.0,0.0,0.0,0.0,0.0,0.0,0.0,0.0,0.0,0.0,0.0,0.0,0.0,0.0,0.0,0.0,0.0,0.0,0.0,0.0,0.0,0.0,0.0,0.0,0.0,0.0,0.0,0.0,0.0,0.0,0.0,0.0,0.0,0.0,0.0,0.0,0.0,0.0,0.0,0.0,0.0,0.0,0.0,0.0,0.0,0.0,0.0,0.0,0.0,0.0,0.0,0.0,0.0,0.0,0.0,0.6652,0.6146,0.6269,0.6716,0.7532,0.7022,0.7446,0.0,0.0,0.0,0.0,0.0,0.0,0.0,0.0,0.0,0.0,0.0,0.0,0.0,0.0,0.0,0.0,0.0,0.0,0.0,0.0,0.0,0.0,0.0,0.0,0.0,0.0,0.0,0.0,0.0,0.0,0.0,0.0,0.0,0.0,0.0,0.0,0.0,0.0,0.0,0.0,0.0,0.0,0.0,0.0,0.0,0.0,0.0,0.0,0.0,0.0,0.0,0.0,0.0,0.0,0.0,0.0,0.0,0.0,0.0,0.0,0.0,0.0,0.0,0.0,0.0,0.0,0.0,0.0,0.0,0.0,0.0,0.0,0.0,0.0,0.0,0.0,0.0,0.0,0.0,0.0,0.0,0.0,0.0,0.0,0.0,0.0,0.0,0.0,0.0,0.0,0.0,0.0,0.0,0.0,0.0,0.0,0.0,0.0,0.0,0.0,0.0,0.0,0.0,0.0,0.0,0.0,0.0,0.0,0.0,0.6259,0.6405,0.6916,0.7688,0.7591,0.8219,0.0,0.0,0.0,0.0,0.0,0.0,0.0,0.0,0.0,0.0,0.0,0.0,0.0,0.0,0.0,0.0,0.0,0.0,0.0,0.0,0.0,0.0,0.0,0.0,0.0,0.0,0.0,0.0,0.0,0.0,0.0,0.0,0.0,0.0,0.0,0.0,0.0,0.0,0.0,0.0,0.0,0.0,0.0,0.0,0.0,0.0,0.0,0.0,0.0,0.0,0.0,0.0,0.0,0.0,0.0,0.0,0.0,0.0,0.0,0.0,0.0,0.0,0.0,0.0,0.0,0.0,0.0,0.0,0.0,0.0,0.0,0.0,0.0,0.0,0.0,0.0,0.0,0.0,0.0,0.0,0.0,0.0,0.0,0.0,0.0,0.0,0.0,0.0,0.0,0.0,0.0,0.0,0.0,0.0,0.0,0.0,0.0,0.0,0.0,0.0,0.0,0.0,0.0,0.0,0.0,0.0,0.0,0.0,0.0,0.7,0.6396,0.6591,0.7674,0.7538,0.8158,0.96,0.0,0.0,0.0,0.0,0.0,0.0,0.0,0.0,0.0,0.0,0.0,0.0,0.0,0.0,0.0,0.0,0.0,0.0,0.0,0.0,0.0,0.0,0.0,0.0,0.0,0.0,0.0,0.0,0.0,0.0,0.0,0.0,0.0,0.0,0.0,0.0,0.0,0.0,0.0,0.0,0.0,0.0,0.0,0.0,0.0,0.0,0.0,0.0,0.0,0.0,0.0,0.0,0.0,0.0,0.0,0.0,0.0,0.0,0.0,0.0,0.0,0.0,0.0,0.0,0.0,0.0,0.0,0.0,0.0,0.0,0.0,0.0,0.0,0.0,0.0,0.0,0.0,0.0,0.0,0.0,0.0,0.0,0.0,0.0,0.0,0.0,0.0,0.0,0.0,0.0,0.0,0.0,0.0,0.0,0.0,0.0,0.0,0.0,0.0,0.0,0.0,0.0,0.0,0.0,0.0,0.0,0.0,0.0,0.8247,0.6337,0.6064,0.7508,0.708,0.7469,0.0,0.0,0.0,0.0,0.0,0.0,0.0,0.0,0.0,0.0,0.0,0.0,0.0,0.0,0.0,0.0,0.0,0.0,0.0,0.0,0.0,0.0,0.0,0.0,0.0,0.0,0.0,0.0,0.0,0.0,0.0,0.0,0.0,0.0,0.0,0.0,0.0,0.0,0.0,0.0,0.0,0.0,0.0,0.0,0.0,0.0,0.0,0.0,0.0,0.0,0.0,0.0,0.0,0.0,0.0,0.0,0.0,0.0,0.0,0.0,0.0,0.0,0.0,0.0,0.0,0.0,0.0,0.0,0.0,0.0,0.0,0.0,0.0,0.0,0.0,0.0,0.0,0.0,0.0,0.0,0.0,0.0,0.0,0.0,0.0,0.0,0.0,0.0,0.0,0.0,0.0,0.0,0.0,0.0,0.0,0.0,0.0,0.0,0.0,0.0,0.0,0.0,0.0,0.0,0.0,0.0,0.0,0.0,0.0,0.8786,0.7473,0.7265,0.826,0.7798,0.7987,0.0,0.0,0.0,0.0,0.0,0.0,0.0,0.0,0.0,0.0,0.0,0.0,0.0,0.0,0.0,0.0,0.0,0.0,0.0,0.0,0.0,0.0,0.0,0.0,0.0,0.0,0.0,0.0,0.0,0.0,0.0,0.0,0.0,0.0,0.0,0.0,0.0,0.0,0.0,0.0,0.0,0.0,0.0,0.0,0.0,0.0,0.0,0.0,0.0,0.0,0.0,0.0,0.0,0.0,0.0,0.0,0.0,0.0,0.0,0.0,0.0,0.0,0.0,0.0,0.0,0.0,0.0,0.0,0.0,0.0,0.0,0.0,0.0,0.0,0.0,0.0,0.0,0.0,0.0,0.0,0.0,0.0,0.0,0.0,0.0,0.0,0.0,0.0,0.0,0.0,0.0,0.0,0.0,0.0,0.0,0.0,0.0,0.0,0.0,0.0,0.0,0.0,0.0,0.0,0.0,0.0,0.0,0.0,0.8615,0.9593,0.8395,0.8144,0.9045,0.8583,0.8353,0.0,0.0,0.0,0.0,0.0,0.0,0.0,0.0,0.0,0.0,0.0,0.0,0.0,0.0,0.0,0.0,0.0,0.0,0.0,0.0,0.0,0.0,0.0,0.0,0.0,0.0,0.0,0.0,0.0,0.0,0.0,0.0,0.0,0.0,0.0,0.0,0.0,0.0,0.0,0.0,0.0,0.0,0.0,0.0,0.0,0.0,0.0,0.0,0.0,0.0,0.0,0.0,0.0,0.0,0.0,0.0,0.0,0.0,0.0,0.0,0.0,0.0,0.0,0.0,0.0,0.0,0.0,0.0,0.0,0.0,0.0,0.0,0.0,0.0,0.0,0.0,0.0,0.0,0.0,0.0,0.0,0.0,0.0,0.0,0.0,0.0,0.0,0.0,0.0,0.0,0.0,0.0,0.0,0.0,0.0,0.0,0.0,0.0,0.0,0.0,0.0,0.0,0.0,0.0,0.0,0.0,0.0,0.0,0.8736,1.0224,0.8991,0.8674,0.9422,0.9064,0.8534,0.0,0.0,0.0,0.0,0.0,0.0,0.0,0.0,0.0,0.0,0.0,0.0,0.0,0.0,0.0,0.0,0.0,0.0,0.0,0.0,0.0,0.0,0.0,0.0,0.0,0.0,0.0,0.0,0.0,0.0,0.0,0.0,0.0,0.0,0.0,0.0,0.0,0.0,0.0,0.0,0.0,0.0,0.0,0.0,0.0,0.0,0.0,0.0,0.0,0.0,0.0,0.0,0.0,0.0,0.0,0.0,0.0,0.0,0.0,0.0,0.0,0.0,0.0,0.0,0.0,0.0,0.0,0.0,0.0,0.0,0.0,0.0,0.0,0.0,0.0,0.0,0.0,0.0,0.0,0.0,0.0,0.0,0.0,0.0,0.0,0.0,0.0,0.0,0.0,0.0,0.0,0.0,0.0,0.0,0.0,0.0,0.0,0.0,0.0,0.0,0.0,0.0,0.0,0.0,0.0,0.0,0.0,0.0,0.8038,0.9483,0.8823,0.8261,0.7906,0.7901,0.7865,0.0,0.0,0.0,0.0,0.0,0.0,0.0,0.0,0.0,0.0,0.0,0.0,0.0,0.0,0.0,0.0,0.0,0.0,0.0,0.0,0.0,0.0,0.0,0.0,0.0,0.0,0.0,0.0,0.0,0.0,0.0,0.0,0.0,0.0,0.0,0.0,0.0,0.0,0.0,0.0,0.0,0.0,0.0,0.0,0.0,0.0,0.0,0.0,0.8941,0.0,0.0,0.0,0.0,0.0,0.0,0.0,0.0,0.0,0.0,0.0,0.0,0.0,0.0,0.0,0.0,0.0,0.0,0.0,0.0,0.0,0.0,0.0,0.0,0.0,0.0,0.0,0.0,0.0,0.0,0.0,0.0,0.0,0.0,0.0,0.0,0.0,0.0,0.0,0.0,0.0,0.0,0.0,0.0,0.0,0.0,0.0,0.0,0.0,0.0,0.0,0.0,0.0,0.0,0.0,0.0,0.0,0.0,0.0,0.7833,0.9245,0.8727,0.8273,0.8025,0.742,0.7161,0.0,0.0,0.0,0.0,0.0,0.0,0.0,0.0,0.0,0.0,0.0,0.0,0.0,0.0,0.0,0.0,0.0,0.0,0.0,0.0,0.0,0.0,0.0,0.0,0.0,0.0,0.0,0.0,0.0,0.0,0.0,0.0,0.0,0.0,0.0,0.0,0.0,0.0,0.0,0.0,0.0,0.0,0.0,0.0,0.0,0.0,0.0,0.0,0.0,0.0,0.0,0.0,0.0,0.0,0.0,0.0,0.0,0.0,0.0,0.0,0.0,0.0,0.0,0.0,0.0,0.0,0.0,0.0,0.0,0.0,0.0,0.0,0.0,0.0,0.0,0.0,0.0,0.0,0.0,0.0,0.0,0.0,0.0,0.0,0.0,0.0,0.0,0.0,0.0,0.0,0.0,0.0,0.0,0.0,0.0,0.0,0.0,0.0,0.0,0.0,0.0,0.0,0.0,0.0,0.0,0.0,0.0,0.7431,0.7812,0.9145,0.8625,0.8377,0.8483,0.7211,0.6638,0.699,0.0,0.0,0.0,0.0,0.0,0.0,0.0,0.0,0.0,0.0,0.0,0.0,0.0,0.0,0.0,0.0,0.0,0.0,0.0,0.0,0.0,0.0,0.0,0.0,0.0,0.0,0.0,0.0,0.0,0.0,0.0,0.0,0.0,0.0,0.0,0.0,0.0,0.0,0.9495,0.9603,0.0,0.0,0.0,0.0,0.0,0.0,0.0,0.0,0.9857,0.0,0.0,0.0,0.0,0.0,0.0,0.0,0.0,0.0,0.0,0.0,0.0,0.0,0.0,0.0,0.0,0.0,0.0,0.0,0.0,0.0,0.0,0.0,0.0,0.0,0.0,0.0,0.0,0.0,0.0,0.0,0.0,0.0,0.0,0.0,0.0,0.0,0.0,0.0,0.0,0.0,0.0,0.0,0.0,0.0,0.0,0.0,0.0,0.0,0.0,0.0,0.0,0.0,0.0,0.0,0.0,0.8079,0.7444,0.7553,0.8458,0.8372,0.8112,0.7704,0.6922,0.6898,0.7744,0.0,0.0,0.0,0.0,0.0,0.0,0.0,0.0,0.0,0.0,0.0,0.0,0.0,0.0,0.0,0.0,0.0,0.0,0.0,0.0,0.0,0.0,0.0,0.0,0.0,0.0,0.0,0.0,0.0,0.0,0.0,0.0,0.0,0.0,0.0,0.0,0.0,0.0,0.0,0.9257,0.9738,0.0,0.0,0.0,0.0,0.0,0.0,0.0,0.0,0.988,0.0,0.0,0.0,0.0,0.0,0.0,0.0,0.0,0.0,0.0,0.0,0.0,0.0,0.0,0.0,0.0,0.0,0.0,0.0,0.0,0.0,0.0,0.0,0.0,0.0,0.0,0.0,0.0,0.0,0.0,0.0,0.0,0.0,0.0,0.0,0.0,0.0,0.0,0.0,0.0,0.0,0.0,0.0,0.0,0.0,0.0,0.0,0.0,0.0,0.0,0.0,0.0,0.0,0.0,0.0,0.8032,0.7444,0.7441,0.816,0.8269,0.7989,0.7376,0.7021,0.7331,0.0,0.0,0.0,0.0,0.0,0.0,0.0,0.0,0.0,0.0,0.0,0.0,0.0,0.0,0.0,0.0,0.0,0.0,0.0,0.0,0.0,0.0,0.0,0.0,0.0,0.0,0.0,0.0,0.0,0.0,0.0,0.0,0.0,0.0,0.0,0.0,0.0,0.0,0.0,0.0,1.0423,1.0732,0.9854,0.0,0.0,0.0,0.0,0.0,0.0,1.0822,1.0954,0.0,0.0,0.0,0.0,0.0,0.0,0.0,0.0,0.0,0.0,0.0,0.0,0.0,0.0,0.0,0.0,0.0,0.0,0.0,0.0,0.0,0.0,0.0,0.0,0.0,0.0,0.0,0.0,0.0,0.0,0.0,0.0,0.0,0.0,0.0,0.0,0.0,0.0,0.0,0.0,0.0,0.0,0.0,0.0,0.0,0.0,0.0,0.0,0.0,0.0,0.0,0.0,0.0,0.0,0.0,0.8048,0.7554,0.7554,0.8092,0.8216,0.7989,0.7446,0.7157,0.7617,0.0,0.0,0.0,0.0,0.0,0.0,0.0,0.0,0.0,0.0,0.0,0.0,0.0,0.0,0.0,0.0,0.0,0.0,0.0,0.0,0.0,0.0,0.0,0.0,0.0,0.0,0.0,0.0,0.0,0.0,0.0,0.0,0.0,0.0,0.0,0.0,0.0,0.0,0.0,0.0,0.0,1.193,1.0619,1.1504,0.0,0.0,0.0,0.0,1.2474,1.1903,0.0,0.0,0.0,0.0,0.0,0.0,0.0,0.0,0.0,0.0,0.0,0.0,0.0,0.0,0.0,0.0,0.0,0.0,0.0,0.0,0.0,0.0,0.0,0.0,0.0,0.0,0.0,0.0,0.0,0.0,0.0,0.0,0.0,0.0,0.0,0.0,0.0,0.0,0.0,0.0,0.0,0.0,0.0,0.0,0.0,0.0,0.0,0.0,0.0,0.0,0.0,0.0,0.0,0.0,0.0,0.0,0.8079,0.8017,0.803,0.8079,0.8123,0.8144,0.8153,0.7028,0.7443,0.0,0.0,0.0,0.0,0.0,0.0,0.0,0.0,0.0,0.0,0.0,0.0,0.0,0.0,0.0,0.0,0.0,0.0,0.0,0.0,0.0,0.0,0.0,0.0,0.0,0.0,0.0,0.0,0.0,0.0,0.0,0.0,0.0,0.0,0.0,0.0,0.0,0.0,0.0,0.0,0.0,1.3047,1.2906,1.2548,1.2794,0.0,0.0,1.1656,1.3217,1.2732,0.0,0.0,0.0,0.0,0.0,0.0,0.0,0.0,0.0,0.0,0.0,0.0,0.0,0.0,0.0,0.0,0.0,0.0,0.0,0.0,0.0,0.0,0.0,0.0,0.0,0.0,0.0,0.0,0.0,0.0,0.0,0.0,0.0,0.0,0.0,0.0,0.0,0.0,0.0,0.0,0.0,0.0,0.0,0.0,0.0,0.0,0.0,0.0,0.0,0.0,0.0,0.0,0.0,0.0,0.0,0.8665,0.865,0.831,0.8079,0.8079,0.8079,0.8121,0.8174,0.7628,0.8278,0.0,0.0,0.0,0.0,0.0,0.0,0.0,0.0,0.0,0.0,0.0,0.0,0.0,0.0,0.0,0.0,0.0,0.0,0.0,0.0,0.0,0.0,0.0,0.0,0.0,0.0,0.0,0.0,0.0,0.0,0.0,0.0,0.0,0.0,0.0,0.0,0.0,0.0,0.0,0.0,0.0,0.0,1.4032,1.4249,0.0,0.0,0.0,1.3693,1.5082,0.0,0.0,0.0,0.0,0.0,0.0,0.0,0.0,0.0,0.0,0.0,0.0,0.0,0.0,0.0,0.0,0.0,0.0,0.0,0.0,0.0,0.0,0.0,0.0,0.0,0.0,0.0,0.0,0.0,0.0,0.0,0.0,0.0,0.0,0.0,0.0,0.0,0.0,0.0,0.0,0.0,0.0,0.0,0.0,0.0,0.0,0.0,0.0,0.0,0.0,0.0,0.0,0.0,0.0,0.0,0.0,0.0,0.9081,0.8279,0.7924,0.8079,0.8079,0.8079,0.8079,0.7905,0.0,0.0,0.0,0.0,0.0,0.0,0.0,0.0,0.0,0.0,0.0,0.0,0.0,0.0,0.0,0.0,0.0,0.0,0.0,0.0,0.0,0.0,0.0,0.0,0.0,0.0,0.0,0.8317,0.0,0.0,0.0,0.0,0.0,0.0,0.0,0.0,0.0,0.0,0.0,0.0,0.0,0.0,1.4909,1.4644,1.5394,1.5691,0.0,0.0,1.5377,1.6045,1.4663,1.4167,0.0,0.0,0.0,0.0,0.0,0.0,0.0,0.0,0.0,0.0,0.0,0.0,0.0,0.0,0.0,0.0,0.0,0.0,0.0,0.0,0.0,0.0,0.0,0.0,0.0,0.0,0.0,0.0,0.0,0.0,0.0,0.0,0.0,0.0,0.0,0.0,0.0,0.0,0.0,0.0,0.0,0.0,0.0,0.0,0.0,0.0,0.0,0.0,0.0,0.0,0.0,0.0,0.0,0.0,0.0,0.9019,0.7832,0.749,0.8063,0.8079,0.8079,0.8079,0.7366,0.7141,0.0,0.0,0.0,0.0,0.0,0.0,0.0,0.0,0.0,0.0,0.0,0.0,0.0,0.0,0.0,0.0,0.0,0.0,0.0,0.0,0.0,0.0,0.0,0.0,0.0,0.0,0.0,0.0,0.0,0.0,0.0,0.0,0.0,0.0,0.0,0.0,0.0,0.0,0.0,0.0,0.0,1.612,1.4796,1.5386,1.5681,0.0,0.0,1.5771,1.5029,1.4754,1.5003,1.6209,0.0,0.0,0.0,0.0,0.0,0.0,0.0,0.0,0.0,0.0,0.0,0.0,0.0,0.0,0.0,0.0,0.0,0.0,0.0,0.0,0.0,0.0,0.0,0.0,0.0,0.0,0.0,0.0,0.0,0.0,0.0,0.0,0.0,0.0,0.0,0.0,0.0,0.0,0.0,0.0,0.0,0.0,0.0,0.0,0.0,0.0,0.0,0.0,0.0,0.0,0.0,0.0,0.0,0.945,0.9696,0.8388,0.7847,0.8079,0.8079,0.8079,0.8079,0.6214,0.6328,0.0,0.0,0.0,0.0,0.0,0.0,0.0,0.0,0.0,0.0,0.0,0.0,0.0,0.0,0.0,0.0,0.0,0.0,0.0,0.0,0.0,0.0,0.0,0.0,0.0,0.0,0.0,0.0,1.1291,1.2071,1.345,0.0,0.0,0.0,0.0,0.0,0.0,0.0,0.0,0.0,0.0,1.6114,1.6078,1.6402,0.0,0.0,1.7288,1.7247,1.6455,1.6246,1.6362,1.6876,1.9047,0.0,0.0,0.0,0.0,0.0,0.0,0.0,0.0,0.0,0.0,0.0,0.0,0.0,0.0,0.0,0.0,0.0,0.0,0.0,0.0,0.0,0.0,0.0,0.0,0.0,0.0,0.0,0.0,0.0,0.0,0.0,0.0,0.0,0.0,0.0,0.0,0.0,0.0,0.0,0.0,0.0,0.0,0.0,0.0,0.0,0.0,0.0,0.0,0.0,0.0,0.0,0.0,0.9912,1.0096,0.8587,0.7894,0.8079,0.8079,0.8079,0.8032,0.6275,0.5818,0.0,0.0,0.0,0.0,0.0,0.0,0.0,0.0,0.0,0.0,0.0,0.0,0.0,0.0,0.0,0.0,0.0,0.0,0.0,0.0,0.0,0.0,0.0,0.0,0.0,0.0,0.0,0.0,1.2897,1.38,1.5807,0.0,0.0,0.0,0.0,0.0,0.0,0.0,0.0,0.0,0.0,1.5968,1.6577,1.6941,1.7447,1.828,1.8634,1.8465,1.7397,1.7202,1.7359,1.7949,0.0,0.0,0.0,0.0,0.0,0.0,0.0,0.0,0.0,0.0,0.0,0.0,0.0,0.0,0.0,0.0,0.0,0.0,0.0,0.0,0.0,0.0,0.0,0.0,0.0,0.0,0.0,0.0,0.0,0.0,1.0849,0.0,0.0,0.0,0.0,0.0,0.0,0.0,0.0,0.0,0.0,0.0,0.0,0.0,0.0,0.0,0.0,0.0,0.0,0.0,0.0,0.0,0.0,0.9481,1.0066,0.8186,0.749,0.8063,0.8079,0.8079,0.8079,0.8001,0.5606,0.0778,0.0,0.0,0.0,0.0,0.0,0.0,0.0,0.0,0.0,0.0,0.0,0.0,0.0,0.0,0.0,0.0,0.0,0.0,0.0,0.0,0.0,0.0,0.0,0.0,0.0,0.0,1.5606,1.533,1.5593,0.0,0.0,0.0,0.0,0.0,0.0,0.0,0.0,0.0,0.0,1.6586,1.5845,1.5966,1.6664,1.7524,1.8329,1.9182,1.9176,1.7504,1.7307,1.7866,0.0,0.0,0.0,0.0,0.0,0.0,0.0,0.0,0.0,0.0,0.0,0.0,0.0,0.0,0.0,0.0,0.0,0.0,0.0,0.0,0.0,0.0,0.0,0.0,0.0,0.0,0.0,0.9564,0.9825,0.0,0.0,0.0,0.0,0.0,0.0,0.0,0.0,0.0,0.0,0.0,1.0892,1.0931,0.0,0.0,0.0,0.0,0.0,0.0,0.0,0.0,0.0,0.0,0.0,0.0,1.031,1.0066,0.8988,0.8325,0.8094,0.8079,0.8079,0.8079,0.6922,0.6763,0.7754,0.0,0.0,0.0,0.0,0.0,0.0,0.0,0.0,0.0,0.0,0.0,0.0,0.0,0.0,0.0,0.0,0.0,0.0,0.0,0.0,0.0,0.0,0.0,0.0,0.0,1.4848,0.0,0.0,0.0,0.0,0.0,0.0,0.0,0.0,0.0,0.0,0.0,1.7932,1.7288,1.7359,1.7472,1.7503,1.7745,1.8217,0.0,0.0,0.0,0.0,0.0,0.0,0.0,0.0,0.0,0.0,0.0,0.0,0.0,0.0,2.2178,2.2284,2.259,2.2595,2.1845,0.0,0.0,0.0,0.0,0.0,0.0,0.0,0.0,0.0,0.0,0.0,0.0,0.0,0.0,0.9683,0.0,0.9881,0.0,0.0,0.0,0.0,0.0,0.0,0.0,0.0,1.1162,1.1087,1.0911,1.095,1.0685,0.0,1.0508,1.1196,0.0,0.0,0.0,0.0,0.0,0.0,0.0,0.0,1.0878,1.0433,0.9789,0.9234,0.8804,0.8572,0.8496,0.8556,0.7709,0.8092,0.9898,0.6563,0.744,0.0,0.0,0.0,0.0,0.0,0.0,0.0,0.0,0.0,0.0,0.0,0.0,0.0,0.0,0.0,0.0,0.0,0.0,0.0,0.0,0.0,0.0,0.0,1.5796,0.0,0.0,0.0,0.0,0.0,0.0,0.0,0.0,0.0,1.821,1.8173,1.796,1.7359,1.7834,1.8379,1.8684,0.0,0.0,0.0,0.0,0.0,0.0,0.0,2.303,2.3041,2.2997,2.3064,2.3375,2.364,2.3811,2.3811,0.0,0.0,2.2586,2.2816,2.267,2.1403,2.2164,2.2782,2.199,2.213,2.2496,0.0,0.0,0.0,0.0,0.0,0.0,0.0,0.0,0.8896,0.9478,0.0,1.0022,0.0,0.0,0.0,0.0,0.0,1.1596,0.0,0.0,1.0316,1.0283,1.0881,1.0892,1.0931,1.1015,1.1443,1.177,1.1923,1.0721,0.0,0.0,0.0,0.0,0.0,0.0,1.1109,1.1081,1.0466,1.0127,1.0066,0.945,0.9266,0.9497,1.0255,0.9481,0.7218,1.1022,1.3412,1.353,1.4332,0.0,0.0,0.0,0.0,0.0,0.0,0.0,0.0,0.0,0.0,0.0,0.0,0.0,0.0,0.0,0.0,0.0,0.0,0.0,0.0,1.8138,0.0,0.0,0.0,0.0,0.0,0.0,0.0,0.0,0.0,0.0,1.7298,1.7672,1.8038,1.8015,0.0,0.0,0.0,0.0,2.1432,2.3067,2.3427,2.372,2.4504,2.4636,2.4282,2.316,0.0,0.0,2.3486,2.4004,2.4505,2.4543,2.4342,2.4118,2.3113,2.2922,2.2626,2.1709,2.2318,2.3078,2.3345,2.3756,2.4487,0.9804,0.0,0.0,0.0,0.0,1.0668,1.0287,0.9741,0.9352,0.9675,1.0511,0.9788,0.0,0.0,0.0,0.0,0.0,0.0,1.1822,1.1139,1.1258,1.1177,1.0911,1.0892,1.0852,1.0787,1.0548,1.047,1.044,1.0172,1.066,1.1851,0.0,0.0,0.0,0.0,1.15,1.1109,1.0909,1.0571,1.0112,0.9927,0.985,0.9942,1.0498,1.0538,1.0079,1.2141,1.3495,1.3996,1.5148,0.0,0.0,0.0,0.0,0.0,0.0,0.0,0.0,0.0,0.0,0.0,0.0,0.0,0.0,0.0,0.0,0.0,0.0,0.0,1.736,1.6821,1.7067,0.0,0.0,0.0,0.0,0.0,0.0,0.0,0.0,0.0,1.8836,1.8937,1.9604,0.0,0.0,2.1001,2.1257,2.1445,2.1745,2.2256,2.2861,0.0,0.0,2.4185,2.4516,2.4169,2.4358,2.4437,2.4195,2.3864,2.3605,2.3624,2.3124,2.2603,2.2359,2.2281,2.2319,2.2374,2.239,2.2368,2.2476,2.2712,2.2922,0.9239,0.968,1.0144,1.0279,1.0127,0.9924,0.9559,0.9086,0.8939,0.9464,1.0399,0.9699,1.0236,1.1646,1.2089,0.0,0.0,0.0,1.1952,1.1047,1.1595,1.1659,1.1277,1.1262,1.1221,1.1139,1.0852,1.0662,1.0642,1.0777,1.1269,1.2086,0.0,0.0,1.2054,1.2012,1.1877,1.1558,1.1543,1.1343,1.0927,1.0927,1.0789,1.0527,1.1129,1.1618,1.1965,1.2642,1.3468,1.441,1.5352,1.6206,0.0,0.0,0.0,0.0,0.0,0.0,0.0,0.0,0.0,0.0,0.0,1.7322,0.0,0.0,0.0,0.0,1.8272,1.8078,1.7453,1.7714,0.0,0.0,0.0,0.0,0.0,0.0,0.0,2.1352,2.1279,2.1185,2.1403,2.1353,2.1684,2.2634,2.2543,2.2414,2.243,0.0,2.2825,2.2878,2.3353,2.3719,2.3717,2.4211,2.4599,2.4566,2.4532,2.4497,2.4497,2.4053,2.3739,2.3665,2.3312,2.2978,2.2996,2.2978,2.3089,2.3386,2.3236,2.3047,2.3061,2.3378,2.3779,0.8803,0.8912,0.9485,0.9575,0.9287,0.8923,0.849,0.808,0.8195,0.9079,1.043,0.9765,1.0688,1.2773,1.2753,0.0,1.1228,1.2002,1.1825,1.0917,1.1521,1.1826,1.1826,1.1811,1.1826,1.179,1.1869,1.1906,1.1876,1.2018,1.2091,1.2054,1.1534,1.1455,1.1818,1.2049,1.2174,1.2174,1.2174,1.2195,1.2195,1.221,1.1866,1.122,1.2015,1.2558,1.2738,1.2757,1.3418,1.4735,1.5185,1.6131,1.7586,0.0,0.0,0.0,0.0,0.0,0.0,0.0,0.0,0.0,0.0,0.0,0.0,0.0,0.0,0.0,1.9384,0.0,1.8048,1.9694,0.0,0.0,0.0,1.9338,1.9502,1.9847,2.0646,2.2186,0.0,0.0,2.4173,2.419,2.3841,2.2939,2.2977,2.3124,2.3177,2.3732,2.4247,2.4265,2.4429,2.4462,2.4386,2.4512,2.4566,2.4517,2.45,2.45,2.45,2.4481,2.45,2.4444,2.45,2.4462,2.4481,2.4405,2.4517,2.4444,2.4495,2.4564,2.4634,2.5322,2.6176,0.8874,0.9386,0.9132,0.92,0.9435,0.9278,0.9365,0.9565,0.9452,0.9869,1.0595,0.998,1.0455,1.1753,1.1603,1.1711,1.2029,1.2061,1.19,1.158,1.173,1.1826,1.1826,1.1826,1.1826,1.1826,1.1826,1.1848,1.1891,1.1933,1.1869,1.1776,1.2303,1.2427,1.2049,1.1949,1.197,1.2112,1.2112,1.2153,1.221,1.221,1.2118,1.1928,1.2159,1.2277,1.2359,1.2546,1.3299,1.4718,1.5184,1.6101,1.7597,1.7002,0.0,0.0,0.0,0.0,0.0,0.0,0.0,0.0,0.0,1.8164,1.896,0.0,1.8473,0.0,1.8413,1.8159,1.7194,1.7535,0.0,0.0,1.9668,2.0373,2.137,2.1498,2.1622,2.1917,2.2446,2.3062,2.3808,2.3974,2.3979,2.3802,2.3897,2.4008,2.4026,2.41,2.421,2.4247,2.4321,2.4339,2.4358,2.4446,2.4498,2.45,2.45,2.45,2.45,2.45,2.45,2.45,2.45,2.45,2.45,2.4582,2.4615,2.4551,2.4631,2.4994,2.563,2.602,2.6488,0.8606,0.9116,0.8968,0.9118,0.9488,0.9127,0.9192,0.9522,0.9508,0.9938,1.0622,1.0767,1.1272,1.2,1.1994,1.2314,1.2856,1.2849,1.2652,1.2261,1.2239,1.2089,1.1805,1.1826,1.1954,1.2246,1.2239,1.2411,1.2719,1.2479,1.2434,1.2603,1.2901,1.3008,1.2902,1.2849,1.2849,1.2947,1.297,1.2899,1.2667,1.295,1.2966,1.2651,1.2935,1.3149,1.3206,1.3277,1.3982,1.5375,1.5627,1.6531,1.8266,1.6879,1.5783,0.0,0.0,0.0,0.0,0.0,0.0,0.0,0.0,0.0,0.0,0.0,1.8014,1.807,1.8558,1.8733,1.8353,1.8932,1.9593,2.0199,2.0611,2.1056,2.152,2.1299,2.1215,2.1461,2.1769,2.2294,2.3184,2.3717,2.4012,2.4034,2.419,2.4247,2.4247,2.4228,2.4191,2.4191,2.4228,2.4303,2.4376,2.4447,2.45,2.45,2.45,2.45,2.45,2.45,2.4517,2.4566,2.4599,2.4599,2.4631,2.4723,2.4775,2.4861,2.4888,2.5105,2.5541,2.626,2.7178,0.8192,0.8551,0.8839,0.9155,0.9456,0.8886,0.8766,0.9012,0.9398,0.9994,1.0833,1.1809,1.2463,1.2814,1.3046,1.3323,1.3627,1.3805,1.3455,1.2807,1.2867,1.2553,1.1939,1.2014,1.2358,1.2921,1.2936,1.3226,1.3765,1.3259,1.3323,1.384,1.3461,1.3491,1.4006,1.4222,1.4202,1.4,1.4059,1.3827,1.3344,1.3898,1.3929,1.339,1.3883,1.4287,1.446,1.431,1.4845,1.6153,1.618,1.706,1.9022,1.6101,1.6718,0.0,1.8758,0.0,0.0,0.0,0.0,0.0,0.0,0.0,0.0,1.7676,1.7143,1.8263,1.9171,1.9781,2.003,2.1395,2.2038,2.1416,2.1527,2.1451,2.1,2.0611,2.0608,2.1169,2.158,2.2094,2.2824,2.35,2.3978,2.4016,2.4132,2.419,2.419,2.419,2.419,2.419,2.419,2.4284,2.4447,2.45,2.45,2.45,2.4534,2.4534,2.4534,2.4549,2.4599,2.4707,2.4738,2.4753,2.4794,2.4893,2.4987,2.5203,2.519,2.5149,2.5361,2.6479,2.8096,0.7705,0.8238,0.8551,0.8992,0.9478,0.935,0.9579,1.0094,1.1062,1.1694,1.2091,1.2814,1.3026,1.2835,1.3188,1.3494,1.374,1.3678,1.3312,1.2728,1.3336,1.3241,1.2681,1.3166,1.3496,1.3615,1.36,1.369,1.381,1.3675,1.3675,1.3825,1.4291,1.4562,1.4659,0.0,0.0,0.0,1.4069,1.408,1.4006,1.4144,1.4129,1.4021,1.4129,0.0,1.4263,1.431,1.4853,1.5908,1.6112,0.0,0.0,0.0,0.0,0.0,0.0,0.0,0.0,0.0,0.0,0.0,2.1327,2.0695,2.0021,1.8603,1.8523,2.0407,1.9178,1.8471,1.9111,2.0348,2.0637,1.9617,2.056,2.1387,2.1657,2.2136,2.2437,2.2084,2.2815,2.3379,2.349,2.3803,2.3955,2.4072,2.4112,2.4133,2.4208,2.419,2.419,2.419,2.419,2.4266,2.4465,2.45,2.45,2.4517,2.4599,2.4645,2.466,2.4749,2.4818,2.4879,2.4861,2.4907,2.4962,2.5024,2.5153,2.5264,2.5292,2.5482,2.6154,2.7097,2.8145,0.7364,0.0,0.8335,0.884,0.0,0.9555,0.9848,1.0295,1.1163,1.1703,1.204,1.2844,1.3101,1.2969,1.3583,1.4116,1.4574,1.4562,1.418,1.3631,1.4087,1.3904,1.3237,1.362,1.3974,1.4288,1.4288,1.4468,1.4752,1.4453,1.4453,1.4767,1.4851,1.5016,1.5304,1.5706,1.5609,1.4993,1.5019,1.4918,1.4679,1.4996,1.5011,1.4663,1.4996,0.0,0.0,0.0,0.0,0.0,0.0,0.0,0.0,0.0,0.0,2.1742,2.1898,2.1924,2.1898,2.1898,2.1727,2.13,2.1283,2.0986,2.0245,1.9692,1.9729,2.0552,2.0213,2.0027,2.0044,2.05,2.0772,2.0823,2.1473,2.2082,2.2422,2.2606,2.2607,2.241,2.2847,2.3198,2.3071,2.3622,2.3955,2.4091,2.411,2.4132,2.4151,2.417,2.419,2.419,2.419,2.4266,2.4412,2.4482,2.4534,2.4582,2.4679,2.4738,2.4794,2.4847,2.491,2.5013,2.533,2.5577,2.5252,2.5508,2.5732,2.5466,2.5649,2.6023,2.6495,2.6628,2.6905,0.7242,0.7859,0.8228,0.8775,0.9449,0.9588,0.9965,1.0516,0.0,0.0,0.0,1.2858,1.3234,1.3301,1.4055,1.4732,1.5315,1.5448,1.5139,1.448,1.482,1.4651,1.4076,1.4247,1.4618,1.5126,1.5071,1.5339,1.5919,1.5267,1.5342,1.6009,1.5503,1.5533,1.6113,1.6173,1.626,1.6346,1.6133,1.5765,1.5327,1.5875,1.589,1.5327,1.5982,1.6363,1.6379,1.7024,1.7525,1.7783,1.8647,1.9605,2.0615,2.1097,2.164,2.2281,2.2405,2.2177,2.1494,2.146,2.1094,2.0238,2.0822,2.1017,2.0603,2.0865,2.0889,2.0441,2.1583,2.1989,2.1288,2.1126,2.1419,2.2348,2.2573,2.2799,2.3049,2.2769,2.2589,2.2561,2.2803,2.2835,2.2709,2.3422,2.401,2.4032,2.4092,2.4112,2.4132,2.417,2.419,2.419,2.419,2.4247,2.4358,2.443,2.4515,2.4645,2.4689,2.476,2.4902,2.4949,2.5057,2.5413,2.5998,2.6167,2.5917,2.636,2.6486,2.5707,2.5946,2.6437,2.6533,2.6433,2.6691,0.7655,0.8305,0.8307,0.892,0.9885,0.9506,1.0179,1.158,1.1848,1.2414,1.3177,1.3885,1.4084,1.3898,1.4539,1.4866,1.498,1.5329,1.5023,1.4299,1.5239,1.5575,1.553,1.6039,1.6353,1.6398,1.6138,1.6182,1.6456,1.5854,1.6128,1.7213,1.7004,1.699,1.7381,1.746,1.7524,1.7698,1.6604,1.6022,1.6056,1.6077,1.6093,1.6087,1.6701,1.707,1.707,1.7715,1.8176,1.8462,1.8818,1.9508,2.0451,2.0855,2.1356,2.1989,2.2163,2.2192,2.2074,2.2074,2.1781,2.1126,2.1153,2.1397,2.1955,2.2057,2.2046,2.1989,2.2192,2.2006,2.1356,2.1718,2.1881,2.1579,2.2175,2.2799,2.306,2.3253,2.3352,2.3473,2.3629,2.3632,2.3542,2.3746,2.3876,2.3876,2.3996,2.4113,2.417,2.4208,2.419,2.419,2.419,2.4228,2.4303,2.4321,2.441,2.4575,2.4712,2.4836,2.5024,2.5138,2.5433,2.6186,2.6416,2.6734,2.7198,2.7601,2.7313,2.6563,2.6175,2.6,2.6687,2.8091,2.9252,0.7611,0.8079,0.8316,0.8936,0.9801,0.9988,1.0709,1.1787,1.1913,1.2316,1.2956,1.3797,1.392,1.3577,1.4661,1.4962,1.4669,1.5566,1.5584,1.498,1.601,1.6474,1.6518,1.7005,1.7139,1.6931,1.6739,1.6754,1.6866,1.6355,1.6646,1.7617,1.7504,1.7537,1.7809,1.7779,1.7829,1.8035,1.7425,1.7136,1.7226,1.7255,1.7255,1.721,1.7578,1.7746,1.7746,1.8438,1.8856,1.8967,1.9625,2.0254,2.0835,2.118,2.1595,2.2073,2.2106,2.2106,2.2197,2.2197,2.2062,2.1781,2.1758,2.1921,2.2293,2.1921,2.187,2.226,2.2327,2.2192,2.1837,2.2124,2.2175,2.1837,2.2218,2.2579,2.2928,2.3538,2.3857,2.3746,2.4129,2.4266,2.3831,2.3816,2.3837,2.3816,2.3976,2.4132,2.4208,2.419,2.419,2.419,2.419,2.419,2.4247,2.4247,2.4339,2.4559,2.4708,2.4858,2.5041,2.5192,2.5466,2.5832,2.6236,2.6717,2.7217,2.7582,2.7621,2.7505,2.733,2.7396,2.8052,2.9313,3.0121,0.765,0.8095,0.8375,0.8914,0.9655,1.053,1.1226,1.172,1.1822,1.2164,1.2806,1.3552,1.3617,1.339,1.4674,1.5011,1.4752,1.582,1.6089,1.5662,1.6621,1.7141,1.7251,1.764,1.764,1.7305,1.7168,1.7153,1.7237,1.676,1.6951,1.7797,1.7981,1.8145,1.8326,1.8329,1.8379,1.8524,1.8507,1.8355,1.8113,1.8144,1.8176,1.8098,1.8314,1.8437,1.8468,1.9163,1.9518,1.9549,2.0313,2.086,2.1071,2.1386,2.1724,2.1978,2.1928,2.1957,2.214,2.2336,2.2382,2.2214,2.2451,2.2479,2.2276,2.1786,2.1667,2.2209,2.2327,2.231,2.2327,2.2547,2.2632,2.2581,2.2773,2.2965,2.303,2.3929,2.441,2.4004,2.4496,2.4683,2.4031,2.3795,2.3834,2.3876,2.3996,2.4094,2.417,2.419,2.419,2.419,2.419,2.4209,2.421,2.4209,2.4321,2.4545,2.4648,2.4804,2.5005,2.5182,2.5417,2.5639,2.6178,2.6832,2.7121,2.7717,2.8121,2.8179,2.8533,2.9091,2.9294,2.9833,3.0379,0.8201,0.8776,0.8537,0.8876,0.975,1.0908,1.1465,1.1575,1.1925,1.2565,1.335,1.3421,1.3661,1.398,1.4687,1.4988,1.5004,1.5943,1.6231,1.6068,1.6752,1.7407,1.792,1.8021,1.8021,1.7899,1.7353,1.739,1.7842,1.6981,1.7111,1.8351,1.8846,1.9205,1.9551,1.9693,1.9813,1.9917,1.9932,1.9321,1.8174,1.8098,1.8098,1.8113,1.8822,1.9194,1.921,1.9857,2.0212,2.0212,2.0496,2.0726,2.0793,2.1055,2.1324,2.1479,2.1524,2.1658,2.202,2.2757,2.2916,2.2417,2.2953,2.3038,2.2462,2.2293,2.2226,2.2367,2.2378,2.2429,2.2378,2.3122,2.3528,2.3371,2.3989,2.4414,2.3964,2.4892,2.5358,2.4569,2.4797,2.4701,2.3994,2.3795,2.3873,2.4065,2.4012,2.4054,2.417,2.419,2.419,2.419,2.419,2.419,2.4209,2.419,2.4284,2.4442,2.4524,2.4674,2.4911,2.5122,2.5371,2.61,2.6447,2.7024,2.8217,2.8948,2.8871,2.9044,2.9544,3.0186,3.0263,3.0321,3.0398,0.8544,0.8667,0.8741,0.9248,1.0069,1.0822,1.1266,1.1527,1.1948,1.2678,1.3468,1.374,1.4113,1.4591,1.5345,1.5474,1.5225,1.6346,1.6663,1.6346,1.7123,1.764,1.7915,1.821,1.821,1.7943,1.7632,1.7619,1.7827,1.7724,1.7926,1.8433,1.8731,1.9087,1.956,1.9596,1.9726,1.9869,2.003,1.9825,1.9366,1.929,1.9323,1.9421,1.9633,1.982,1.9919,2.0165,2.0304,2.0304,2.0407,2.0525,2.0693,2.0942,2.1214,2.1432,2.1645,2.1764,2.1869,2.2658,2.3036,2.2824,2.3557,2.3857,2.363,2.3596,2.3579,2.3596,2.3579,2.3596,2.363,2.4222,2.4475,2.4201,2.4411,2.4611,2.4511,2.4962,2.5112,2.4728,2.5112,2.5036,2.41,2.3795,2.4055,2.4408,2.4301,2.4087,2.415,2.4151,2.417,2.419,2.419,2.419,2.419,2.419,2.4247,2.4321,2.4424,2.4613,2.4836,2.5005,2.5417,2.6408,2.6563,2.7236,2.8767,2.8679,2.8563,2.9313,2.9967,3.0398,3.0398,3.0398,3.0398,0.8667,0.8623,0.9231,0.9781,1.035,1.0994,1.1478,1.1722,1.2095,1.2793,1.3729,1.4097,1.4683,1.5354,1.5915,1.5878,1.5672,1.6673,1.699,1.6716,1.7424,1.7787,1.7828,1.8147,1.8147,1.7841,1.7666,1.7625,1.7693,1.826,1.8551,1.8542,1.85,1.8755,1.9376,1.945,1.956,1.969,1.9889,1.9995,1.9945,1.996,2.003,2.0185,2.015,2.015,2.027,2.0304,2.0304,2.0304,2.0304,2.0388,2.0592,2.0745,2.0975,2.1417,2.1873,2.2139,2.2215,2.3112,2.3656,2.3617,2.4284,2.4666,2.4543,2.4642,2.4712,2.478,2.498,2.4983,2.4574,2.4932,2.5067,2.4831,2.4932,2.5142,2.5103,2.5343,2.5501,2.5103,2.5689,2.5727,2.4761,2.4664,2.5031,2.5274,2.4969,2.4465,2.4438,2.446,2.4498,2.4482,2.4373,2.419,2.419,2.419,2.419,2.4229,2.4338,2.4508,2.4737,2.493,2.5394,2.628,2.6484,2.7217,2.8659,2.864,2.8563,2.9813,3.0379,3.0379,3.0398,3.0398,3.0571,0.8588,0.9036,1.0189,1.0517,1.0391,1.1671,1.2214,1.2194,1.2298,1.3054,1.4221,1.4367,1.5131,1.6291,1.6125,1.6057,1.6242,1.6896,1.716,1.7175,1.7611,1.7801,1.7787,1.7828,1.7814,1.7801,1.7527,1.7321,1.7321,1.819,1.8673,1.8581,1.8277,1.8574,1.9332,1.9581,1.969,1.9654,1.9762,1.9711,1.9726,1.9603,1.9747,2.003,2.01,2.0185,2.027,2.0304,2.0304,2.0304,2.0304,2.0304,2.0304,2.0354,2.066,2.1263,2.2148,2.281,2.3301,2.4454,2.5007,2.463,2.5103,2.5287,2.4797,2.505,2.5338,2.5524,2.6082,2.593,2.4898,2.5135,2.5423,2.5592,2.6133,2.6183,2.5658,2.6316,2.6588,2.6074,2.618,2.639,2.609,2.6548,2.6499,2.6345,2.6164,2.5859,2.5287,2.5223,2.5226,2.5139,2.4774,2.4226,2.4226,2.419,2.419,2.4247,2.4302,2.4391,2.462,2.495,2.5628,2.6266,2.6762,2.7544,2.8621,2.9179,2.9371,2.9948,3.0283,3.0359,3.0398,3.0398,3.0679,0.9347,0.9391,1.0356,1.0792,1.0852,1.1857,1.2297,1.2339,1.2575,1.3346,1.4255,1.4417,1.5192,1.6454,1.6138,1.6262,1.6635,1.6954,1.7128,1.7238,1.7747,1.7776,1.7527,1.812,1.8292,1.8014,1.786,1.7565,1.7238,1.7576,1.8058,1.8439,1.8014,1.8198,1.8968,1.9273,1.931,1.9362,1.9797,1.999,1.9726,1.9818,1.9889,1.9854,2.001,2.0185,2.0304,2.0304,2.0304,2.0304,2.0304,2.0304,2.035,2.086,2.1371,2.1824,2.2752,2.3391,2.367,2.4712,2.5362,2.5225,2.5815,2.6134,2.5998,2.6065,2.6218,2.6336,2.6488,2.6353,2.6116,2.6065,2.6201,2.6319,2.6522,2.6607,2.6385,2.6439,2.6325,2.5849,2.5463,2.5546,2.7314,2.7881,2.7743,2.7097,2.6571,2.6213,2.6004,2.594,2.5943,2.5987,2.581,2.5541,2.5155,2.4537,2.4228,2.4321,2.4426,2.4666,2.4898,2.5555,2.6237,2.7179,2.758,2.8313,2.9448,2.9775,2.9948,2.9244,2.961,3.0359,3.0398,3.0513,3.1025,0.9552,0.951,1.0544,1.089,1.0913,1.2179,1.26,1.2542,1.2929,1.36,1.4306,1.4426,1.5085,1.6064,1.602,1.6262,1.6803,1.6973,1.7135,1.7457,1.7861,1.797,1.7891,1.8569,1.8708,1.844,1.8571,1.8257,1.762,1.7712,1.8042,1.8425,1.7841,1.7962,1.8679,1.8974,1.9116,1.9213,1.9654,1.9762,1.9566,1.9675,1.969,1.9603,1.994,2.0185,2.0304,2.0304,2.0304,2.0335,2.0505,2.0736,2.0983,2.1528,2.2098,2.2545,2.3434,2.408,2.4398,2.5263,2.5849,2.5882,2.6303,2.664,2.6708,2.6708,2.6708,2.6708,2.6708,2.6708,2.6708,2.6691,2.6708,2.6708,2.6708,2.6708,2.6708,2.6559,2.6541,2.6549,2.6147,2.6645,2.8051,2.846,2.8297,2.7834,2.729,2.6964,2.6739,2.6672,2.6695,2.6763,2.6538,2.6478,2.6342,2.5889,2.5301,2.528,2.542,2.5465,2.5613,2.6287,2.6982,2.7946,2.8722,2.9456,2.9956,3.0283,2.9821,2.8906,2.9425,3.0379,3.0513,3.0706,3.1468,0.9239,0.9217,1.0756,1.0983,1.065,1.2513,1.3215,1.2869,1.3311,1.3867,1.4389,1.4373,1.4903,1.5712,1.5848,1.6169,1.6751,1.6978,1.7338,1.7826,1.8122,1.844,1.8754,1.889,1.8929,1.8845,1.9433,1.9153,1.8179,1.8521,1.8688,1.8287,1.7949,1.8016,1.8514,1.8936,1.9139,1.9139,1.9236,1.925,1.9101,1.925,1.9288,1.9236,1.9869,2.027,2.0304,2.0304,2.0335,2.0443,2.0936,2.1615,2.2024,2.2293,2.2645,2.3301,2.4061,2.4822,2.5513,2.6168,2.6556,2.6556,2.6691,2.6708,2.6708,2.6708,2.6708,2.6708,2.6708,2.6708,2.6708,2.6708,2.6708,2.6708,2.6708,2.6708,2.6758,2.7004,2.7409,2.7794,2.7903,2.846,2.8569,2.8587,2.8496,2.8442,2.8334,2.808,2.7562,2.7459,2.7531,2.7474,2.7305,2.7226,2.7366,2.7399,2.6879,2.6503,2.6679,2.6805,2.6864,2.7331,2.7778,2.8586,2.9075,2.9759,3.011,3.0398,3.0398,2.9879,3.0359,3.0621,3.1064,3.1487,3.2199,0.9787,0.9442,1.0779,1.1059,1.078,1.2349,1.2967,1.2861,1.3372,1.3905,1.428,1.3999,1.4571,1.5572,1.5865,1.6341,1.7156,1.732,1.7542,1.8015,1.8826,1.9107,1.9015,1.9323,1.9284,1.8989,1.9081,1.8832,1.8328,1.8416,1.8363,1.8178,1.8175,1.8226,1.8528,1.9161,1.9398,1.9176,1.9639,1.969,1.9199,1.9654,1.969,1.925,1.9869,2.0304,2.0304,2.0304,2.0535,2.0967,2.1198,2.163,2.2224,2.2732,2.3196,2.3697,2.4585,2.5306,2.5768,2.6301,2.6623,2.6623,2.6691,2.6708,2.6708,2.6708,2.6708,2.6708,2.6708,2.6708,2.6708,2.6708,2.6725,2.6708,2.6708,2.6691,2.6791,2.7303,2.7771,2.8,2.8362,2.8587,2.8587,2.8587,2.8587,2.8587,2.8587,2.8406,2.8286,2.816,2.8275,2.8227,2.8111,2.8017,2.8239,2.8425,2.8278,2.7857,2.7894,2.7938,2.8037,2.8254,2.8689,2.906,2.9531,2.9971,3.0302,3.0398,3.0398,3.0475,3.0552,3.1083,3.1826,3.2442,3.3,1.0002,0.9707,1.0662,1.0819,1.0584,1.2098,1.2667,1.2657,1.3506,1.4014,1.4254,1.4024,1.4675,1.5765,1.5963,1.6562,1.7572,1.7945,1.8244,1.85,1.904,1.9412,1.9525,1.9917,1.9956,1.963,1.9551,1.931,1.8845,1.8901,1.8842,1.8671,1.8755,1.8727,1.8695,1.9243,1.94,1.9234,1.9566,1.9617,1.9325,1.9762,1.9762,1.931,1.9869,2.027,2.032,2.0535,2.0875,2.1337,2.1716,2.2347,2.2978,2.3456,2.3856,2.4426,2.5002,2.5631,2.6099,2.6469,2.6623,2.6657,2.6674,2.6708,2.6708,2.6708,2.6708,2.6708,2.7063,2.7097,2.681,2.7097,2.708,2.6708,2.6708,2.6758,2.6956,2.7474,2.7876,2.8045,2.8362,2.8562,2.8587,2.8587,2.8587,2.8587,2.8587,2.8587,2.8587,2.8569,2.8612,2.8637,2.8573,2.8718,2.9135,2.936,2.955,2.9309,2.9072,2.9022,2.8998,2.9197,2.9543,2.9634,2.9972,3.0451,3.0802,3.0513,3.0417,3.0552,3.1013,3.1775,3.2557,3.2923,3.3442,0.9946,0.9971,1.0479,1.0457,1.0311,1.1997,1.2605,1.2414,1.3701,1.4335,1.4345,1.4345,1.5035,1.6036,1.6127,1.6812,1.7931,1.8692,1.9139,1.9195,1.9236,1.9443,2.0244,2.0424,2.0384,2.0437,2.045,2.0276,1.9759,1.9873,1.9953,1.9418,1.9513,1.9432,1.9098,1.9253,1.9455,1.9411,1.9336,1.9345,1.9328,1.9685,1.9693,1.9351,1.9944,2.0397,2.069,2.1214,2.1507,2.1578,2.2655,2.3517,2.4117,2.4302,2.4536,2.5173,2.5427,2.5868,2.6365,2.6589,2.6657,2.6657,2.6657,2.6759,2.6877,2.6945,2.6911,2.6928,2.7469,2.7604,2.7131,2.7537,2.7638,2.7029,2.6843,2.6859,2.7117,2.7461,2.7701,2.7961,2.8291,2.8587,2.8587,2.8587,2.8587,2.8587,2.8587,2.8587,2.8587,2.8612,2.8619,2.8687,2.8755,2.8952,2.9203,2.9397,2.9588,2.9756,2.9631,2.9651,2.9655,2.9841,2.9983,3.0113,3.042,3.088,3.1136,3.0956,3.1167,3.1679,3.2218,3.2788,3.325,3.3692,3.4083,1.0168,0.9962,1.0358,1.0632,1.0858,1.205,1.2767,1.3078,1.4148,1.4697,1.4811,1.4811,1.5224,1.5917,1.6701,1.7431,1.8139,1.8796,1.9421,1.9824,1.9487,1.9516,1.9921,2.0048,2.0061,2.0087,2.0139,1.9956,1.986,2.0125,1.9947,1.9405,1.9932,1.994,1.959,1.9739,2.0117,2.0418,2.0351,2.0342,2.0479,2.0715,2.0738,2.0552,2.0412,2.0855,2.167,2.2409,2.2763,2.2825,2.3548,2.4117,2.4287,2.4317,2.4574,2.5114,2.5368,2.5721,2.626,2.6572,2.6623,2.6573,2.6742,2.7029,2.7757,2.7638,2.7519,2.7469,2.7385,2.7317,2.752,2.7943,2.8146,2.8264,2.7452,2.686,2.696,2.7117,2.7461,2.776,2.8055,2.8452,2.8536,2.8696,2.8659,2.8623,2.8641,2.8605,2.8623,2.8612,2.8612,2.8662,2.8755,2.8929,2.9119,2.9336,2.9588,2.9905,2.9969,2.999,2.9999,3.007,3.0155,3.0202,3.0829,3.1328,3.1604,3.1661,3.2193,3.2833,3.3237,3.3699,3.4231,3.4706,3.5026,1.05,1.0581,1.0661,1.0891,1.1325,1.2158,1.2686,1.3199,1.4463,1.4983,1.4986,1.4997,1.5469,1.6287,1.6825,1.7576,1.8406,1.9094,1.9687,2.0054,2.0036,2.008,2.0178,2.0165,2.0165,2.0165,2.0178,2.0227,2.0289,2.0444,2.0327,2.0281,2.053,2.0498,2.0084,2.0385,2.0651,2.0956,2.1065,2.1173,2.1281,2.1561,2.1523,2.1367,2.1189,2.167,2.2624,2.3086,2.3394,2.3702,2.4087,2.4302,2.4302,2.4302,2.4533,2.4997,2.5291,2.5668,2.6118,2.6452,2.6775,2.6994,2.713,2.7621,2.8281,2.8383,2.8315,2.8264,2.8129,2.8213,2.8247,2.845,2.8653,2.8755,2.818,2.769,2.7655,2.7998,2.7801,2.7747,2.8311,2.8899,2.8778,2.9166,2.913,2.8876,2.8993,2.8848,2.8703,2.8685,2.8811,2.9018,2.9046,2.9179,2.9451,2.969,2.9869,3.0146,3.0441,3.0443,3.0438,3.0452,3.0543,3.0743,3.1262,3.1763,3.2192,3.2699,3.3397,3.393,3.4257,3.4545,3.4982,3.5328,3.5699,1.0846,1.136,1.1066,1.113,1.1503,1.2183,1.2554,1.2938,1.4577,1.5246,1.5096,1.5163,1.5933,1.6946,1.7156,1.7639,1.8715,1.9465,1.9978,2.0309,2.0511,2.0701,2.062,2.0701,2.0662,2.0699,2.0777,2.0906,2.0943,2.104,2.1175,2.114,2.1286,2.1111,2.0724,2.0945,2.1138,2.1253,2.1521,2.1754,2.1913,2.2206,2.2245,2.2159,2.2422,2.2748,2.324,2.3486,2.3686,2.4271,2.4302,2.4302,2.4302,2.4302,2.4467,2.4799,2.5253,2.5701,2.6125,2.6669,2.7097,2.7637,2.784,2.8349,2.9059,2.9211,2.9093,2.911,2.9719,2.9533,2.9211,2.911,2.9262,2.9364,2.9228,2.911,2.9234,2.933,2.875,2.742,2.9173,2.9608,2.9837,2.997,3.0568,3.0477,3.0188,2.9681,2.9536,2.95,2.9663,2.9862,2.9755,2.9503,2.9779,3.006,3.0264,3.0481,3.0876,3.1011,3.0954,3.0987,3.1078,3.1393,3.211,3.2708,3.319,3.3813,3.4441,3.4776,3.4949,3.5199,3.5488,3.5738,3.6065,1.0324,1.0677,1.0665,1.078,1.122,1.1973,1.2753,1.3477,1.4788,1.5517,1.5858,1.638,1.6563,1.6637,1.7752,1.8478,1.8447,1.9448,2.0144,2.0513,2.1056,2.1015,2.0935,2.1119,2.1093,2.1053,2.1668,2.1773,2.155,2.1637,2.1725,2.1723,2.1614,2.1369,2.1281,2.1109,2.1176,2.179,2.1975,2.2291,2.2725,2.294,2.3102,2.3137,2.3559,2.3846,2.404,2.4087,2.4164,2.4256,2.4302,2.4302,2.4302,2.4302,2.4467,2.4831,2.5301,2.5912,2.6722,2.7272,2.7688,2.8163,2.8602,2.9296,3.0531,3.0125,2.9922,2.9888,3.0006,3.0074,2.9922,2.9871,3.0074,3.0311,3.0159,3.0057,3.04,2.9776,2.9185,2.9242,2.9676,3.0663,3.1949,3.1166,3.1492,3.189,3.1492,3.0767,3.0459,3.026,3.0459,3.064,3.0448,3.0257,3.0586,3.0937,3.1242,3.1355,3.1653,3.2095,3.2019,3.1752,3.1938,3.2431,3.3096,3.3599,3.3935,3.4515,3.5067,3.5345,3.5526,3.5603,3.5738,3.6045,3.6526,1.0328,1.095,1.0684,1.0747,1.1248,1.2206,1.2914,1.3672,1.5034,1.5711,1.5945,1.6556,1.6695,1.6513,1.7898,1.8436,1.8489,1.9488,2.0246,2.059,2.1159,2.1328,2.1355,2.1773,2.193,2.1355,2.1957,2.2166,2.2194,2.2233,2.239,2.2481,2.2285,2.2142,2.2002,2.1944,2.2253,2.254,2.2994,2.3467,2.3953,2.3842,2.379,2.3918,2.4177,2.4302,2.4287,2.4302,2.4302,2.4302,2.4302,2.4302,2.4302,2.4302,2.4508,2.4855,2.5621,2.6271,2.7073,2.7911,2.8569,2.9059,2.9364,3.0091,3.0835,3.0801,3.0666,3.0615,3.0615,3.0615,3.0632,3.0615,3.0869,3.0987,3.0852,3.0801,3.0954,3.048,3.0091,3.0428,3.0855,3.1824,3.2367,3.2148,3.1926,3.2125,3.2125,3.1437,3.084,3.0731,3.1111,3.1238,3.1066,3.1081,3.1464,3.189,3.2392,3.2552,3.2756,3.3303,3.3662,3.3261,3.2879,3.3372,3.3808,3.4114,3.4504,3.509,3.5456,3.5575,3.568,3.5757,3.6065,3.6603,3.7123,1.0349,1.1337,1.0754,1.074,1.1265,1.2353,1.286,1.3268,1.5022,1.5644,1.5732,1.631,1.6721,1.6871,1.8043,1.8446,1.879,1.9488,2.0296,2.0589,2.1381,2.1551,2.1747,2.2465,2.2805,2.193,2.2479,2.2839,2.2896,2.2951,2.3058,2.3244,2.3162,2.281,2.2733,2.3193,2.3413,2.3234,2.3902,2.4597,2.5104,2.482,2.4722,2.4737,2.4337,2.4456,2.4471,2.441,2.4302,2.4302,2.4302,2.4302,2.4302,2.4302,2.4585,2.5021,2.5997,2.6896,2.7793,2.8636,2.9465,3.0192,3.0277,3.0531,3.1021,3.114,3.1089,3.1106,3.1089,3.1089,3.119,3.1089,3.1106,3.119,3.119,3.119,3.119,3.119,3.1072,3.1155,3.1512,3.2323,3.2849,3.2913,3.2622,3.2325,3.2325,3.218,3.1582,3.1401,3.1854,3.2144,3.2045,3.2092,3.2449,3.2973,3.3431,3.3616,3.3808,3.441,3.5057,3.5133,3.4751,3.4155,3.4385,3.4706,3.4894,3.517,3.546,3.5652,3.6031,3.6372,3.6776,3.7219,3.7757,0.9542,1.0234,1.012,1.0173,1.0467,1.1764,1.2493,1.2723,1.4409,1.5185,1.5605,1.6674,1.7176,1.7455,1.8838,1.953,1.9643,2.0131,2.0373,2.0771,2.1616,2.2047,2.2034,2.3119,2.3472,2.3289,2.3406,2.3572,2.3464,2.3495,2.3647,2.3662,2.3513,2.3175,2.316,2.3278,2.3677,2.3877,2.4428,2.4991,2.5576,2.5847,2.5872,2.5749,2.501,2.4795,2.4933,2.4625,2.4302,2.4302,2.4317,2.4348,2.441,2.441,2.4947,2.567,2.6462,2.7535,2.8749,2.958,3.0273,3.0801,3.0937,3.0954,3.1157,3.119,3.119,3.119,3.119,3.119,3.119,3.119,3.119,3.119,3.119,3.119,3.119,3.119,3.119,3.1252,3.1841,3.2385,3.2784,3.3165,3.3092,3.2868,3.2868,3.2886,3.2632,3.2578,3.2868,3.3049,3.314,3.3265,3.3451,3.4039,3.4529,3.4585,3.4826,3.5422,3.6088,3.6852,3.6719,3.5744,3.5226,3.5321,3.5449,3.55,3.5776,3.6253,3.6652,3.7108,3.7392,3.7796,3.8546,0.9321,1.0037,1.0037,1.0302,1.0918,1.2249,1.315,1.3723,1.4994,1.5714,1.6237,1.7157,1.7571,1.7752,1.9032,1.9862,2.0041,2.0527,2.0759,2.1147,2.215,2.2688,2.2426,2.3616,2.3851,2.3812,2.3955,2.4097,2.405,2.415,2.4209,2.4419,2.4204,2.4015,2.3757,2.3702,2.3958,2.444,2.4737,2.5431,2.6394,2.678,2.6765,2.6241,2.5841,2.5626,2.5687,2.5595,2.5179,2.4995,2.5195,2.5133,2.5111,2.543,2.5879,2.6455,2.7387,2.8494,2.9677,3.0319,3.0852,3.1089,3.119,3.119,3.119,3.119,3.123,3.1252,3.1213,3.1213,3.1235,3.123,3.119,3.119,3.119,3.119,3.119,3.119,3.1207,3.1303,3.1944,3.2388,3.2486,3.288,3.3256,3.3393,3.3393,3.3393,3.3393,3.3393,3.3393,3.3375,3.3386,3.353,3.3698,3.4232,3.4981,3.523,3.5647,3.6212,3.674,3.7332,3.7332,3.6795,3.647,3.6487,3.62,3.6348,3.6584,3.6991,3.7909,3.8501,3.8204,3.8411,3.9181,0.9164,1.0009,1.0184,1.0609,1.1362,1.2826,1.3802,1.4544,1.5538,1.6073,1.6398,1.7346,1.7727,1.7884,1.8898,1.9925,2.0167,2.0834,2.1054,2.147,2.2499,2.3171,2.3341,2.3642,2.3929,2.4021,2.3851,2.4182,2.4425,2.454,2.4694,2.4811,2.4964,2.4815,2.4381,2.4299,2.4584,2.4904,2.5168,2.6016,2.7191,2.7426,2.7257,2.6749,2.6549,2.6395,2.6549,2.6287,2.5964,2.5795,2.5918,2.6132,2.5936,2.6788,2.7345,2.7476,2.8702,2.9605,3.0347,3.0768,3.1106,3.119,3.119,3.119,3.119,3.119,3.123,3.1235,3.1329,3.1252,3.1252,3.1252,3.123,3.119,3.119,3.1207,3.1258,3.1309,3.1376,3.1649,3.2173,3.2442,3.2596,3.2894,3.3345,3.3393,3.3393,3.3393,3.3393,3.3393,3.3393,3.3404,3.3462,3.3569,3.377,3.4055,3.4798,3.5426,3.5987,3.6653,3.7089,3.7544,3.7639,3.8019,3.8209,3.8151,3.7674,3.7271,3.7625,3.8303,3.9432,3.9637,3.8935,3.9084,3.9854,0.8745,0.9702,1.0577,1.0796,1.0921,1.2753,1.3462,1.357,1.4656,1.5293,1.6043,1.6977,1.7748,1.8328,1.9263,2.0125,2.0636,2.1062,2.1337,2.1637,2.2682,2.3276,2.321,2.325,2.3668,2.3864,2.3576,2.3853,2.4385,2.462,2.4721,2.4948,2.5005,2.4937,2.4815,2.4763,2.519,2.572,2.6246,2.7075,2.7926,2.7719,2.7719,2.7673,2.7196,2.678,2.7149,2.6888,2.6457,2.6349,2.6349,2.6572,2.6961,2.7971,2.8755,2.9041,2.948,2.9955,3.0791,3.1106,3.119,3.119,3.119,3.119,3.119,3.123,3.123,3.123,3.1402,3.144,3.1308,3.1325,3.1269,3.1365,3.1517,3.1467,3.1427,3.2026,3.2026,3.2162,3.2689,3.2734,3.2809,3.3112,3.3393,3.3393,3.3411,3.3465,3.3592,3.3755,3.3737,3.3839,3.3814,3.3905,3.4156,3.4375,3.5039,3.575,3.6276,3.7013,3.7623,3.8195,3.9204,3.9547,3.9661,3.9317,3.8495,3.8301,3.8716,3.9191,3.9821,3.9714,3.9296,3.9777,4.0392,0.8925,0.9218,1.0485,1.1088,1.1444,1.2851,1.3838,1.4409,1.4955,1.5727,1.6579,1.7396,1.8424,1.9431,2.0182,2.0655,2.1243,2.1792,2.2082,2.2244,2.3098,2.3524,2.3276,2.3223,2.3433,2.3511,2.3502,2.3774,2.4319,2.462,2.4721,2.4948,2.5005,2.5005,2.5063,2.5039,2.553,2.6323,2.7144,2.7845,2.8174,2.8165,2.8104,2.8381,2.7796,2.7734,2.7765,2.775,2.7303,2.718,2.7257,2.7565,2.7917,2.8672,2.9597,3.0037,3.0312,3.0712,3.1123,3.1213,3.123,3.123,3.123,3.1235,3.1252,3.1291,3.1346,3.1402,3.1423,3.1457,3.1572,3.1771,3.1885,3.2021,3.219,3.228,3.2364,3.2693,3.3005,3.3145,3.3265,3.3488,3.3668,3.3913,3.4159,3.4154,3.4196,3.4286,3.4485,3.4751,3.4624,3.4443,3.4395,3.4357,3.4649,3.4971,3.5771,3.6378,3.6443,3.7216,3.8165,3.8971,3.9718,4.0139,4.0043,3.9623,3.9107,3.9239,3.9544,3.9769,3.9996,3.9871,3.9781,3.9969,4.0469,0.9146,0.9071,1.0524,1.1386,1.1826,1.2929,1.4019,1.5008,1.505,1.5823,1.7137,1.805,1.93,2.0528,2.0778,2.1033,2.1863,2.2477,2.2686,2.2992,2.3501,2.3636,2.3258,2.3132,2.3158,2.3393,2.308,2.3576,2.4235,2.4607,2.4734,2.5005,2.523,2.523,2.526,2.5488,2.6031,2.6857,2.7595,2.8137,2.8332,2.8396,2.8488,2.8565,2.8519,2.8488,2.8611,2.8381,2.8027,2.7888,2.817,2.8466,2.8726,2.9448,3.0178,3.0647,3.096,3.1089,3.1196,3.1252,3.1252,3.1252,3.1291,3.1351,3.1312,3.1351,3.1577,3.1764,3.2144,3.2127,3.2161,3.2599,3.2736,3.2991,3.3189,3.342,3.3558,3.3718,3.3786,3.3769,3.4079,3.4834,3.4976,3.5028,3.5044,3.497,3.4992,3.5087,3.5318,3.5602,3.5452,3.5199,3.5181,3.5205,3.5553,3.5946,3.6675,3.7027,3.7073,3.7499,3.8461,3.9047,3.9578,3.9927,4.0196,4.0119,3.9699,4.0024,4.031,4.025,4.0224,4.0334,4.0383,4.0492,4.0489,0.9315,0.9405,1.1108,1.1584,1.1421,1.2893,1.3955,1.474,1.4306,1.5373,1.7214,1.8452,1.9792,2.0932,2.1029,2.1317,2.2259,2.2483,2.2477,2.2686,2.3134,2.3462,2.3128,2.2871,2.2936,2.3524,2.308,2.3296,2.4112,2.465,2.4778,2.5005,2.5453,2.5729,2.596,2.6193,2.6711,2.7363,2.7745,2.8084,2.836,2.8519,2.8704,2.9089,2.8827,2.8658,2.9243,2.875,2.8473,2.8319,2.8857,2.9182,2.95,3.0199,3.0849,3.1286,3.1421,3.1567,3.1635,3.1409,3.1252,3.1312,3.1389,3.1445,3.1351,3.1457,3.1803,3.2327,3.2798,3.3317,3.3471,3.3733,3.3699,3.3847,3.4028,3.4209,3.4371,3.4534,3.4542,3.4414,3.4806,3.548,3.6059,3.605,3.5882,3.5782,3.5783,3.586,3.6041,3.6254,3.6155,3.6023,3.6042,3.6194,3.665,3.7051,3.7371,3.7669,3.7822,3.8201,3.8819,3.9271,3.9475,3.9825,4.0098,4.0215,4.0329,4.0329,4.0329,4.0382,4.0415,4.0432,4.0463,4.0492,4.0489,1.0229,1.0487,1.1028,1.1406,1.1722,1.2959,1.4106,1.4942,1.4851,1.568,1.7379,1.849,1.9741,2.0752,2.1292,2.1782,2.2661,2.2622,2.2732,2.2911,2.3251,2.3067,2.2711,2.2596,2.2664,2.2936,2.2635,2.3168,2.4385,2.4794,2.5258,2.555,2.5839,2.5839,2.615,2.6797,2.7429,2.786,2.8069,2.8324,2.8805,2.8642,2.8919,2.9889,2.8873,2.9073,2.9658,2.8904,2.8812,2.9005,2.9501,2.9774,3.0038,3.0791,3.1503,3.2003,3.2059,3.223,3.2293,3.1839,3.1329,3.1423,3.15,3.1555,3.1564,3.2012,3.2337,3.2889,3.3516,3.4106,3.3911,3.4197,3.4438,3.4655,3.4837,3.5,3.5112,3.5258,3.5284,3.5146,3.5437,3.595,3.6533,3.702,3.6809,3.6612,3.6606,3.6653,3.6834,3.6979,3.6935,3.6962,3.7002,3.7204,3.7644,3.7821,3.7973,3.8217,3.8479,3.8707,3.8933,3.9073,3.9308,3.9675,3.9994,4.0174,4.0272,4.0292,4.0444,4.0672,4.0575,4.0382,4.0432,4.0492,4.0473,1.0689,1.1093,1.1186,1.1502,1.2147,1.3057,1.4251,1.5372,1.5355,1.6223,1.7669,1.8781,1.9874,2.079,2.1292,2.2083,2.2761,2.2976,2.3102,2.3205,2.3251,2.2873,2.258,2.2439,2.2572,2.2505,2.2559,2.3197,2.4781,2.5189,2.5632,2.5974,2.6297,2.6457,2.6654,2.7225,2.8008,2.8299,2.8458,2.8581,2.8965,2.895,2.8981,2.992,2.9196,2.9212,2.9658,2.9258,2.8935,2.9228,2.9596,3.0019,3.0408,3.1058,3.2066,3.2542,3.2814,3.294,3.2901,3.2537,3.1611,3.1589,3.1596,3.1734,3.2072,3.2672,3.298,3.3579,3.4232,3.4674,3.4558,3.5087,3.5311,3.5511,3.5666,3.5796,3.5788,3.5882,3.5891,3.5882,3.6105,3.6131,3.6776,3.7279,3.7506,3.7365,3.7398,3.7449,3.7594,3.7754,3.786,3.794,3.8036,3.8295,3.8621,3.8438,3.8303,3.8377,3.8603,3.87,3.8873,3.8989,3.9129,3.9439,3.9788,4.0106,4.025,4.0253,4.0654,4.1113,4.0825,4.0441,4.0398,4.0447,4.0425,1.0499,1.1145,1.1587,1.2038,1.2564,1.2986,1.4365,1.5944,1.5785,1.6553,1.8106,1.9244,2.025,2.1129,2.1393,2.2209,2.2912,2.3191,2.3119,2.3013,2.3354,2.3093,2.2646,2.2361,2.2465,2.2897,2.2821,2.3322,2.5093,2.5425,2.5823,2.6433,2.6894,2.7289,2.75,2.8073,2.8348,2.8411,2.8411,2.8488,2.8735,2.9012,2.9243,2.9627,2.9381,2.9335,2.9658,2.9446,2.9141,2.9135,2.9838,3.0201,3.0412,3.1398,3.2346,3.3007,3.2921,3.2887,3.2818,3.2615,3.229,3.2025,3.2221,3.2345,3.2698,3.3179,3.3654,3.438,3.5356,3.5939,3.6128,3.6146,3.6111,3.6086,3.6224,3.6276,3.6233,3.6148,3.6165,3.6165,3.6105,3.6216,3.6838,3.7431,3.7916,3.8083,3.8156,3.8192,3.8192,3.8225,3.8241,3.8322,3.8401,3.8515,3.8627,3.8676,3.8652,3.8707,3.8689,3.875,3.8792,3.8892,3.9054,3.9285,3.9795,4.0368,4.0309,4.0193,4.0596,4.0921,4.0787,4.0535,4.0475,4.0396,4.0394,1.0887,1.1957,1.1066,1.1933,1.3669,1.412,1.5119,1.6502,1.6999,1.7408,1.7906,1.9106,1.9924,2.0564,2.1594,2.2372,2.2962,2.285,2.2745,2.2872,2.3225,2.2587,2.2217,2.2232,2.2323,2.2191,2.2298,2.3286,2.4695,2.553,2.6069,2.6592,2.7259,2.7661,2.8,2.8348,2.8411,2.8411,2.8458,2.8596,2.8981,2.895,2.9166,2.9874,2.9304,2.9289,2.9801,2.9419,2.9166,2.9407,3.0218,3.0761,3.1191,3.2224,3.3395,3.3968,3.4002,3.3382,3.3051,3.2784,3.2916,3.2995,3.3051,3.3158,3.3562,3.4186,3.4702,3.5091,3.5845,3.6215,3.6249,3.6232,3.6215,3.6232,3.6301,3.6301,3.6259,3.6191,3.6165,3.6191,3.6191,3.6533,3.7034,3.7595,3.8072,3.8192,3.8192,3.8192,3.8192,3.8225,3.8241,3.8303,3.8401,3.8515,3.8596,3.8658,3.8707,3.8707,3.8707,3.8689,3.878,3.8822,3.9254,3.963,4.0159,4.0645,4.0777,4.0836,4.0572,4.0577,4.0578,4.0519,4.0401,4.0362,4.0377,1.0819,1.1968,1.113,1.2047,1.4072,1.4203,1.5216,1.7026,1.8201,1.8483,1.851,1.9382,2.0112,2.0652,2.1468,2.251,2.3025,2.3048,2.2974,2.3039,2.3062,2.2769,2.2445,2.2273,2.2523,2.2337,2.2879,2.3857,2.5501,2.6227,2.6835,2.7244,2.7514,2.7962,2.8286,2.8411,2.8411,2.8411,2.8442,2.8565,2.8827,2.895,2.9073,2.9335,2.9258,2.915,2.9438,2.937,2.9186,2.9998,3.068,3.1341,3.1914,3.2616,3.3795,3.4249,3.4387,3.38,3.3451,3.2934,3.3205,3.3756,3.3813,3.3795,3.4031,3.4605,3.5156,3.5621,3.6,3.6197,3.6284,3.6284,3.6284,3.6284,3.6284,3.6284,3.6284,3.6233,3.6233,3.6259,3.6468,3.6838,3.7226,3.7721,3.8192,3.8192,3.8192,3.8192,3.8225,3.8225,3.8274,3.8336,3.8415,3.8496,3.8627,3.8676,3.8707,3.8707,3.8707,3.8707,3.8707,3.8768,3.9368,3.9986,4.0531,4.1064,4.1488,4.1506,4.0722,4.0478,4.0597,4.0501,4.0347,4.0345,4.0344,1.031,1.1376,1.1738,1.2562,1.3686,1.372,1.5103,1.7731,1.9125,1.9672,1.9723,1.9684,2.0263,2.1154,2.1481,2.2083,2.2921,2.3318,2.3443,2.3399,2.3215,2.3014,2.2763,2.2552,2.2733,2.3478,2.4118,2.4629,2.663,2.6988,2.7504,2.7939,2.7963,2.8104,2.8181,2.8334,2.8365,2.8411,2.8427,2.8488,2.8611,2.8935,2.8873,2.895,2.8996,2.9051,2.9216,2.9169,2.9409,2.9946,3.0468,3.0855,3.123,3.1538,3.2724,3.3559,3.3973,3.3852,3.3507,3.2904,3.3041,3.3382,3.33,3.3455,3.4007,3.4714,3.5232,3.5732,3.6111,3.6197,3.6284,3.6284,3.6284,3.6284,3.6284,3.6284,3.6284,3.6301,3.6343,3.6409,3.6655,3.6995,3.7504,3.7933,3.8192,3.8192,3.8192,3.8225,3.8225,3.8274,3.8307,3.8387,3.8465,3.8559,3.8609,3.8689,3.8707,3.8707,3.8707,3.8707,3.8707,3.8781,3.9228,3.9902,4.0811,4.1322,4.1306,4.0966,4.0344,4.0295,4.046,4.0425,4.0272,4.0291,4.0366,1.057,1.1964,1.117,1.2218,1.4503,1.5782,1.7104,1.8436,1.9411,1.9623,1.9246,2.0087,2.0388,2.0376,2.1617,2.2103,2.2598,2.3097,2.3228,2.3253,2.3165,2.3085,2.2886,2.2665,2.2893,2.3413,2.4141,2.5098,2.6223,2.7003,2.7403,2.761,2.7888,2.7827,2.7965,2.8165,2.8319,2.8411,2.8411,2.8411,2.8411,2.8658,2.8565,2.8642,2.8722,2.8854,2.9138,2.9332,2.9717,3.0402,3.0771,3.1258,3.2252,3.2462,3.3024,3.3093,3.3179,3.3024,3.2541,3.2265,3.2317,3.2679,3.2697,3.3386,3.3973,3.4525,3.5042,3.5456,3.5818,3.587,3.599,3.6059,3.6163,3.6266,3.6266,3.6284,3.6284,3.6284,3.6326,3.6696,3.6878,3.7188,3.7703,3.7985,3.8192,3.8192,3.8225,3.8225,3.8274,3.8307,3.8354,3.8433,3.8496,3.8578,3.864,3.8707,3.8707,3.8707,3.8707,3.8707,3.8707,3.8836,3.9166,3.9743,4.0566,4.0774,4.0746,4.0315,3.9921,4.0068,4.0224,4.0232,4.0234,4.0349,4.0578,1.0685,1.1797,1.1302,1.2757,1.5382,1.6829,1.7982,1.9061,1.9579,1.9597,1.9434,2.0012,2.0315,2.0545,2.1614,2.2229,2.2324,2.3013,2.3311,2.3345,2.2923,2.307,2.2956,2.3126,2.3572,2.4,2.4636,2.5564,2.6393,2.6955,2.741,2.7873,2.778,2.778,2.7965,2.8242,2.8365,2.8411,2.8411,2.8411,2.8411,2.8411,2.8411,2.8444,2.8541,2.8904,2.9332,2.9585,3.0318,3.0868,3.1162,3.1637,3.2427,3.2624,3.2593,3.2679,3.2817,3.2524,3.211,3.1921,3.1817,3.1903,3.2214,3.2559,3.3352,3.4007,3.4438,3.4852,3.5163,3.5439,3.5611,3.5801,3.6025,3.6249,3.6266,3.6284,3.6284,3.6284,3.6533,3.6878,3.7167,3.7431,3.7739,3.8038,3.8192,3.8192,3.8225,3.8241,3.8274,3.8322,3.8401,3.8446,3.8546,3.8627,3.8658,3.8707,3.8707,3.8707,3.8707,3.8707,3.8707,3.8817,3.9074,3.9588,4.0244,4.029,4.0189,3.9927,3.9664,3.9795,4.0167,4.0642,4.0689,4.0616,4.0922,1.071,1.1293,1.1954,1.3791,1.6204,1.687,1.8071,1.9672,1.9773,1.9761,1.971,1.9786,2.0166,2.0615,2.1434,2.203,2.2269,2.2786,2.3223,2.3498,2.2761,2.2857,2.3726,2.3873,2.42,2.5159,2.583,2.5961,2.6678,2.7265,2.7808,2.8381,2.8334,2.8273,2.8273,2.8334,2.8411,2.8411,2.8411,2.8411,2.8411,2.8411,2.8411,2.8493,2.8842,2.9257,2.9645,3.0234,3.0925,3.1201,3.1504,3.1797,3.2038,3.2334,3.2248,3.2248,3.2421,3.2283,3.1972,3.18,3.18,3.18,3.1817,3.199,3.2662,3.3248,3.3628,3.3852,3.4128,3.4749,3.5042,3.5594,3.5973,3.618,3.6284,3.6284,3.6284,3.6409,3.6719,3.7073,3.7431,3.7703,3.7916,3.8192,3.8192,3.8192,3.8225,3.8207,3.8289,3.8368,3.8433,3.8478,3.8578,3.8658,3.8658,3.8707,3.8707,3.8707,3.8707,3.8707,3.8707,3.8817,3.8964,3.9331,3.968,3.9735,3.9676,3.9557,3.9443,3.9275,3.9846,4.0965,4.1252,4.1223,4.1647,1.0702,1.1385,1.2984,1.45,1.5826,1.7019,1.8115,1.9196,1.9648,1.956,1.9346,1.9585,1.9915,2.0306,2.129,2.1773,2.1785,2.2631,2.2908,2.3019,2.2547,2.3202,2.4407,2.418,2.4631,2.5297,2.5892,2.6258,2.6915,2.7529,2.8054,2.8381,2.8411,2.8411,2.8411,2.8411,2.8493,2.8411,2.8493,2.8493,2.8493,2.846,2.846,2.8653,2.8997,2.9556,3.0021,3.0551,3.1145,3.1562,3.1709,3.18,3.1834,3.199,3.1972,3.1886,3.2007,3.1972,3.1921,3.18,3.18,3.18,3.18,3.18,3.2007,3.2334,3.261,3.2817,3.3283,3.399,3.4685,3.5359,3.5921,3.6111,3.6284,3.6284,3.6284,3.6557,3.6838,3.7226,3.7631,3.7881,3.8106,3.8192,3.8192,3.8192,3.8192,3.8259,3.8303,3.8382,3.8465,3.8528,3.8627,3.8676,3.8707,3.8707,3.8707,3.8707,3.8707,3.8707,3.8707,3.8762,3.8854,3.8836,3.8982,3.9148,3.9386,3.9619,3.949,3.9369,4.0074,4.1406,4.2166,4.2322,4.2789,1.0956,1.1427,1.3175,1.4537,1.5564,1.6648,1.7798,1.8921,1.9334,1.9296,1.9133,1.956,1.9965,2.0267,2.1259,2.1789,2.1758,2.2505,2.2945,2.2972,2.2865,2.3353,2.3917,2.4353,2.4593,2.5136,2.5696,2.629,2.6856,2.7471,2.7887,2.8334,2.8411,2.8411,2.846,2.8525,2.8573,2.8411,2.8573,2.8748,2.8748,2.8748,2.8904,2.915,2.9629,3.0107,3.0468,3.0954,3.1355,3.1691,3.18,3.18,3.18,3.1852,3.1834,3.18,3.1834,3.18,3.18,3.18,3.18,3.18,3.18,3.18,3.1984,3.2296,3.2295,3.2555,3.339,3.415,3.4597,3.5208,3.5797,3.6111,3.6232,3.6284,3.6367,3.6557,3.6878,3.7188,3.7504,3.7703,3.7951,3.8192,3.8192,3.8225,3.8225,3.8274,3.8368,3.8415,3.8478,3.8559,3.8658,3.8707,3.8707,3.8707,3.8707,3.8707,3.8707,3.8707,3.8707,3.8707,3.8726,3.8836,3.8854,3.8781,3.9038,3.9606,4.0092,4.0203,4.0987,4.1996,4.2643,4.327,4.3574,1.1215,1.1522,1.3054,1.4301,1.5353,1.6162,1.7218,1.8484,1.8808,1.8933,1.907,1.9573,2.0167,2.0788,2.1292,2.1943,2.233,2.2346,2.2752,2.2932,2.2925,2.3476,2.3939,2.4298,2.4567,2.4897,2.5379,2.5819,2.6291,2.7025,2.7748,2.8273,2.8411,2.8411,2.8525,2.8795,2.892,2.8795,2.892,2.9257,2.9241,2.9196,2.9406,2.9832,3.0344,3.0673,3.0993,3.13,3.1654,3.1746,3.18,3.18,3.18,3.18,3.18,3.18,3.18,3.18,3.18,3.18,3.18,3.18,3.18,3.191,3.2144,3.2301,3.2249,3.2862,3.3713,3.4251,3.4734,3.5413,3.5988,3.6301,3.6405,3.6474,3.6597,3.6719,3.6956,3.7226,3.7504,3.7703,3.7916,3.8158,3.8225,3.8207,3.8256,3.8354,3.8401,3.8446,3.851,3.859,3.8658,3.8707,3.8707,3.8707,3.8707,3.8707,3.8707,3.8707,3.8707,3.8707,3.8799,3.9019,3.8982,3.8982,3.935,3.9955,4.0404,4.0867,4.1859,4.2698,4.3306,4.3875,4.4126,1.1229,1.2139,1.3585,1.4198,1.4508,1.6085,1.6921,1.713,1.8016,1.8593,1.9005,1.9571,2.0109,2.0597,2.0604,2.1123,2.1871,2.2002,2.1996,2.2045,2.2773,2.3525,2.4045,2.4208,2.4537,2.4777,2.5092,2.5515,2.6138,2.6903,2.7624,2.8365,2.8411,2.846,2.8541,2.8795,2.9136,2.9136,2.9438,2.9821,2.9935,2.9848,2.9645,3.0021,3.0584,3.0828,3.1123,3.1504,3.1709,3.18,3.18,3.18,3.18,3.18,3.18,3.18,3.18,3.18,3.18,3.1921,3.1972,3.1817,3.1871,3.2052,3.2354,3.2766,3.3045,3.3818,3.4461,3.472,3.5289,3.6398,3.7102,3.7061,3.7132,3.7094,3.7132,3.715,3.7226,3.7541,3.7845,3.7967,3.8072,3.8225,3.8241,3.8256,3.8289,3.8368,3.8446,3.851,3.8541,3.8609,3.8707,3.8707,3.8707,3.8707,3.8707,3.8707,3.8707,3.8707,3.8707,3.8707,3.8836,3.9019,3.9331,3.9478,3.9918,4.0084,4.0827,4.1374,4.2537,4.3439,4.3967,4.4243,4.4304]},{"header":{"parameterUnit":"m.s-1","parameterCategory":1,"la1":31.0,"la2":29.5877,"lo1":-88.7671,"lo2":-86.6584,"dy":0.0162,"dx":0.0185,"nx":115,"ny":88,"refTime":"2023-04-16T06:00:00:Z","depth":0,"parameterNumber":3,"parameterNumberName":"V-component_of_WINDS"},"data":[0.0,0.0,0.0,0.0,0.0,0.0,0.0,0.0,0.0,0.0,0.0,0.0,0.0,0.0,0.0,0.0,0.0,0.0,0.0,0.0,0.0,0.0,0.0,0.0,0.0,0.0,0.0,0.0,0.0,0.0,0.0,0.0,0.0,0.0,0.0,0.0,0.0,0.0,0.0,0.0,0.0,0.0,0.0,0.0,0.0,0.0,0.0,0.0,0.0,0.0,0.0,0.0,0.0,0.0,0.0,0.0,0.0,0.0,0.0,0.0,0.0,0.0,0.0,0.0,0.0,0.0,0.0,0.0,0.0,0.0,0.0,0.0,0.0,0.0,0.0,0.0,0.0,0.0,0.0,0.0,0.0,0.0,0.0,0.0,0.0,0.0,0.0,0.0,0.0,0.0,0.0,0.0,0.0,0.0,0.0,0.0,0.0,0.0,0.0,0.0,0.0,0.0,0.0,0.0,0.0,0.0,0.0,0.0,0.0,0.0,0.0,0.0,0.0,0.0,0.0,0.0,0.0,0.0,0.0,0.0,0.0,0.0,0.0,0.0,0.0,0.0,0.0,0.0,0.0,0.0,0.0,0.0,0.0,0.0,0.0,0.0,0.0,0.0,0.0,0.0,0.0,0.0,0.0,0.0,0.0,0.0,0.0,0.0,0.0,0.0,0.0,0.0,0.0,0.0,0.0,0.0,0.0,0.0,0.0,0.0,0.0,0.0,0.0,0.0,0.0,0.0,0.0,0.0,0.0,0.0,0.0,0.0,0.0,0.0,0.0,0.0,0.0,0.0,0.0,0.0,0.0,0.0,0.0,0.0,0.0,0.0,0.0,0.0,0.0,0.0,0.0,0.0,0.0,0.0,0.0,0.0,0.0,0.0,0.0,0.0,0.0,0.0,0.0,0.0,0.0,0.0,0.0,0.0,0.0,0.0,0.0,0.0,0.0,0.0,0.0,0.0,0.0,0.0,0.0,0.0,0.0,0.0,0.0,0.0,0.0,0.0,0.0,0.0,0.0,0.0,0.0,0.0,0.0,0.0,0.0,0.0,0.0,0.0,0.0,0.0,0.0,0.0,0.0,0.0,0.0,0.0,0.0,0.0,0.0,0.0,0.0,0.0,0.0,0.0,0.0,0.0,0.0,0.0,0.0,0.0,0.0,0.0,0.0,0.0,0.0,0.0,0.0,0.0,0.0,0.0,0.0,0.0,0.0,0.0,0.0,0.0,0.0,0.0,0.0,0.0,0.0,0.0,0.0,0.0,0.0,0.0,0.0,0.0,0.0,0.0,0.0,0.0,0.0,0.0,0.0,0.0,0.0,0.0,0.0,0.0,0.0,0.0,0.0,0.0,0.0,0.0,0.0,0.0,0.0,0.0,0.0,0.0,0.0,0.0,0.0,0.0,0.0,0.0,0.0,0.0,0.0,0.0,0.0,0.0,0.0,0.0,0.0,0.0,0.0,0.0,0.0,0.0,0.0,0.0,0.0,0.0,0.0,0.0,0.0,0.0,0.0,0.0,0.0,0.0,0.0,0.0,0.0,0.0,0.0,0.0,0.0,0.0,0.0,0.0,0.0,0.0,0.0,0.0,0.0,0.0,0.0,0.0,0.0,0.0,0.0,0.0,0.0,0.0,0.0,0.0,0.0,0.0,0.0,0.0,0.0,0.0,0.0,0.0,0.0,0.0,0.0,0.0,0.0,0.0,0.0,0.0,0.0,0.0,0.0,0.0,0.0,0.0,0.0,0.0,0.0,0.0,0.0,0.0,0.0,0.0,0.0,0.0,0.0,0.0,0.0,0.0,0.0,0.0,0.0,0.0,0.0,0.0,0.0,0.0,0.0,0.0,0.0,0.0,0.0,0.0,0.0,0.0,0.0,0.0,0.0,0.0,0.0,0.0,0.0,0.0,0.0,0.0,0.0,0.0,0.0,0.0,0.0,0.0,0.0,0.0,0.0,0.0,0.0,0.0,0.0,0.0,0.0,0.0,0.0,0.0,0.0,0.0,0.0,0.0,0.0,0.0,0.0,0.0,0.0,0.0,0.0,0.0,0.0,0.0,0.0,0.0,0.0,0.0,0.0,0.0,0.0,0.0,0.0,0.0,0.0,0.0,0.0,0.0,0.0,0.0,0.0,0.0,0.0,0.0,0.0,0.0,0.0,0.0,0.0,0.0,0.0,0.0,0.0,0.0,0.0,0.0,0.0,0.0,0.0,0.0,0.0,0.0,0.0,0.0,0.0,0.0,0.0,0.0,0.0,0.0,0.0,0.0,0.0,0.0,0.0,0.0,0.0,0.0,0.0,0.0,0.0,0.0,0.0,0.0,0.0,0.0,0.0,0.0,0.0,0.0,0.0,0.0,0.0,0.0,0.0,0.0,0.0,0.0,0.0,0.0,0.0,0.0,0.0,0.0,0.0,0.0,0.0,0.0,0.0,0.0,0.0,0.0,0.0,0.0,0.0,0.0,0.0,0.0,0.0,0.0,0.0,0.0,0.0,0.0,0.0,0.0,0.0,0.0,0.0,0.0,0.0,0.0,0.0,0.0,0.0,0.0,0.0,0.0,0.0,0.0,0.0,0.0,0.0,0.0,0.0,0.0,0.0,0.0,0.0,0.0,0.0,0.0,0.0,0.0,0.0,0.0,0.0,0.0,0.0,0.0,0.0,0.0,0.0,0.0,0.0,0.0,0.0,0.0,0.0,0.0,0.0,0.0,0.0,0.0,0.0,0.0,0.0,0.0,0.0,0.0,0.0,0.0,0.0,0.0,0.0,0.0,0.0,0.0,0.0,0.0,0.0,0.0,0.0,0.0,0.0,0.0,0.0,0.0,0.0,0.0,0.0,0.0,0.0,0.0,0.0,0.0,0.0,0.0,0.0,0.0,0.0,0.0,0.0,0.0,0.0,0.0,0.0,0.0,0.0,0.0,0.0,0.0,0.0,0.0,0.0,0.0,0.0,0.0,0.0,0.0,0.0,0.0,0.0,0.0,0.0,0.0,0.0,0.0,0.0,0.0,0.0,0.0,0.0,0.0,0.0,0.0,0.0,0.0,0.0,0.0,0.0,0.0,0.0,0.0,0.0,0.0,0.0,0.0,0.0,0.0,0.0,0.0,0.0,0.0,0.0,0.0,0.0,0.0,0.0,0.0,0.0,0.0,0.0,0.0,0.0,0.0,0.0,0.0,0.0,0.0,0.0,0.0,0.0,0.0,0.0,0.0,0.0,0.0,0.0,0.0,0.0,0.0,0.0,0.0,0.0,0.0,0.0,0.0,0.0,0.0,0.0,0.0,0.0,0.0,0.0,0.0,0.0,0.0,0.0,0.0,0.0,0.0,0.0,0.0,0.0,0.0,0.0,0.0,0.0,0.0,0.0,0.0,0.0,0.0,0.0,0.0,0.0,0.0,0.0,0.0,0.0,0.0,0.0,0.0,0.0,0.0,0.0,0.0,0.0,0.0,0.0,0.0,0.0,0.0,0.0,0.0,0.0,0.0,0.0,0.0,0.0,0.0,0.0,0.0,0.0,0.0,0.0,0.0,0.0,0.0,0.0,0.0,0.0,0.0,0.0,0.0,0.0,0.0,0.0,0.0,0.0,0.0,0.0,0.0,0.0,0.0,0.0,0.0,0.0,0.0,0.0,0.0,0.0,0.0,0.0,0.0,0.0,0.0,0.0,0.0,0.0,0.0,0.0,0.0,0.0,0.0,0.0,0.0,0.0,0.0,0.0,0.0,0.0,0.0,0.0,0.0,0.0,0.0,0.0,0.0,0.0,0.0,0.0,0.0,0.0,0.0,0.0,0.0,0.0,0.0,0.0,0.0,0.0,0.0,0.0,0.0,0.0,0.0,0.0,0.0,0.0,0.0,0.0,0.0,0.0,0.0,0.0,0.0,0.0,0.0,0.0,0.0,0.0,0.0,0.0,0.0,0.0,0.0,0.0,0.0,0.0,0.0,0.0,0.0,0.0,0.0,0.0,0.0,0.0,0.0,0.0,0.0,0.0,0.0,0.0,0.0,0.0,0.0,0.0,0.0,0.0,0.0,0.0,0.0,0.0,0.0,0.0,0.0,0.0,0.0,0.0,0.0,0.0,0.0,0.0,0.0,0.0,0.0,0.0,0.0,0.0,0.0,0.0,0.0,0.0,0.0,0.0,0.0,0.0,0.0,0.0,0.0,0.0,0.0,0.0,0.0,0.0,0.0,0.0,0.0,0.0,0.0,0.0,0.0,0.0,0.0,0.0,0.0,0.0,0.0,0.0,0.0,0.0,0.0,0.0,0.0,-0.6931,0.0,0.0,0.0,0.0,0.0,0.0,0.0,0.0,0.0,0.0,0.0,0.0,0.0,0.0,0.0,0.0,0.0,0.0,0.0,0.0,0.0,0.0,0.0,0.0,0.0,0.0,0.0,0.0,0.0,0.0,0.0,0.0,0.0,0.0,0.0,0.0,0.0,0.0,0.0,0.0,0.0,0.0,0.0,0.0,0.0,0.0,0.0,0.0,0.0,0.0,0.0,0.0,0.0,0.0,0.0,0.0,0.0,0.0,0.0,0.0,0.0,0.0,0.0,0.0,0.0,0.0,0.0,0.0,0.0,0.0,0.0,0.0,0.0,0.0,0.0,0.0,0.0,0.0,0.0,0.0,0.0,0.0,0.0,0.0,0.0,0.0,0.0,0.0,0.0,0.0,0.0,0.0,0.0,0.0,0.0,0.0,0.0,0.0,0.0,0.0,0.0,0.0,0.0,0.0,0.0,0.0,0.0,0.0,0.0,0.0,-0.6894,-0.7286,-0.6471,-0.6227,-0.6637,0.0,0.0,0.0,0.0,0.0,0.0,0.0,0.0,0.0,0.0,0.0,0.0,0.0,0.0,0.0,0.0,0.0,0.0,0.0,0.0,0.0,0.0,0.0,0.0,0.0,0.0,0.0,0.0,0.0,0.0,0.0,0.0,0.0,0.0,0.0,0.0,0.0,0.0,0.0,0.0,0.0,0.0,0.0,0.0,0.0,0.0,0.0,0.0,0.0,0.0,0.0,0.0,0.0,0.0,0.0,0.0,0.0,0.0,0.0,0.0,0.0,0.0,0.0,0.0,0.0,0.0,0.0,0.0,0.0,0.0,0.0,0.0,0.0,0.0,0.0,0.0,0.0,0.0,0.0,0.0,0.0,0.0,0.0,0.0,0.0,0.0,0.0,0.0,0.0,0.0,0.0,0.0,0.0,0.0,0.0,0.0,0.0,0.0,0.0,0.0,0.0,0.0,0.0,0.0,0.0,0.0,0.0,0.0,0.0,0.0,0.0,0.0,-0.6464,-0.6155,-0.6468,0.0,0.0,0.0,0.0,0.0,0.0,0.0,0.0,0.0,0.0,0.0,0.0,0.0,0.0,0.0,0.0,0.0,0.0,0.0,0.0,0.0,0.0,0.0,0.0,0.0,0.0,0.0,0.0,0.0,0.0,0.0,0.0,0.0,0.0,0.0,0.0,0.0,0.0,0.0,0.0,0.0,0.0,0.0,0.0,0.0,0.0,0.0,0.0,0.0,0.0,0.0,0.0,0.0,0.0,0.0,0.0,0.0,0.0,0.0,0.0,0.0,0.0,0.0,0.0,0.0,0.0,0.0,0.0,0.0,0.0,0.0,0.0,0.0,0.0,0.0,0.0,0.0,0.0,0.0,0.0,0.0,0.0,0.0,0.0,0.0,0.0,0.0,0.0,0.0,0.0,0.0,0.0,0.0,0.0,0.0,0.0,0.0,0.0,0.0,0.0,0.0,0.0,0.0,0.0,0.0,0.0,0.0,0.0,0.0,0.0,-0.7074,-0.7464,-0.7244,0.0,-0.6809,0.0,0.0,0.0,0.0,0.0,0.0,0.0,0.0,0.0,0.0,0.0,0.0,0.0,0.0,0.0,0.0,0.0,0.0,0.0,0.0,0.0,0.0,0.0,0.0,0.0,0.0,0.0,0.0,0.0,0.0,0.0,0.0,0.0,0.0,0.0,0.0,0.0,0.0,0.0,0.0,0.0,0.0,0.0,0.0,0.0,0.0,0.0,0.0,0.0,0.0,0.0,0.0,0.0,0.0,0.0,0.0,0.0,0.0,0.0,0.0,0.0,0.0,0.0,0.0,0.0,0.0,0.0,0.0,0.0,0.0,0.0,0.0,0.0,0.0,0.0,0.0,0.0,0.0,0.0,0.0,0.0,0.0,0.0,0.0,0.0,0.0,0.0,0.0,0.0,0.0,0.0,0.0,0.0,0.0,0.0,0.0,0.0,0.0,0.0,0.0,0.0,0.0,0.0,0.0,0.0,0.0,0.0,0.0,0.0,0.0,-0.6526,-0.702,-0.6588,-0.6169,0.0,0.0,0.0,0.0,0.0,0.0,0.0,0.0,0.0,0.0,0.0,0.0,0.0,0.0,0.0,0.0,0.0,0.0,0.0,0.0,0.0,0.0,0.0,0.0,0.0,0.0,0.0,0.0,0.0,0.0,0.0,0.0,0.0,0.0,0.0,0.0,0.0,0.0,0.0,0.0,0.0,0.0,0.0,0.0,0.0,0.0,0.0,0.0,0.0,0.0,0.0,0.0,0.0,0.0,0.0,0.0,0.0,0.0,0.0,0.0,0.0,0.0,0.0,0.0,0.0,0.0,0.0,0.0,0.0,0.0,0.0,0.0,0.0,0.0,0.0,0.0,0.0,0.0,0.0,0.0,0.0,0.0,0.0,0.0,0.0,0.0,0.0,0.0,0.0,0.0,0.0,0.0,0.0,0.0,0.0,0.0,0.0,0.0,0.0,0.0,0.0,0.0,0.0,0.0,0.0,0.0,0.0,0.0,0.0,0.0,-0.6403,-0.6245,-0.6655,-0.5803,-0.5282,-0.522,0.0,0.0,0.0,0.0,0.0,0.0,0.0,0.0,0.0,0.0,0.0,0.0,0.0,0.0,0.0,0.0,0.0,0.0,0.0,0.0,0.0,0.0,0.0,0.0,0.0,0.0,0.0,0.0,0.0,0.0,0.0,0.0,0.0,0.0,0.0,0.0,0.0,0.0,0.0,0.0,0.0,0.0,0.0,0.0,0.0,0.0,0.0,0.0,0.0,0.0,0.0,0.0,0.0,0.0,0.0,0.0,0.0,0.0,0.0,0.0,0.0,0.0,0.0,0.0,0.0,0.0,0.0,0.0,0.0,0.0,0.0,0.0,0.0,0.0,0.0,0.0,0.0,0.0,0.0,0.0,0.0,0.0,0.0,0.0,0.0,0.0,0.0,0.0,0.0,0.0,0.0,0.0,0.0,0.0,0.0,0.0,0.0,0.0,0.0,0.0,0.0,0.0,0.0,0.0,0.0,0.0,0.0,0.0,-0.7408,-0.6656,-0.6438,-0.669,-0.5204,-0.4888,0.0,0.0,0.0,0.0,0.0,0.0,0.0,0.0,0.0,0.0,0.0,0.0,0.0,0.0,0.0,0.0,0.0,0.0,0.0,0.0,0.0,0.0,0.0,0.0,0.0,0.0,0.0,0.0,0.0,0.0,0.0,0.0,0.0,0.0,0.0,0.0,0.0,0.0,0.0,0.0,0.0,0.0,0.0,0.0,0.0,0.0,0.0,0.0,0.0,0.0,0.0,0.0,0.0,0.0,0.0,0.0,0.0,0.0,0.0,0.0,0.0,0.0,0.0,0.0,0.0,0.0,0.0,0.0,0.0,0.0,0.0,0.0,0.0,0.0,0.0,0.0,0.0,0.0,0.0,0.0,0.0,0.0,0.0,0.0,0.0,0.0,0.0,0.0,0.0,0.0,0.0,0.0,0.0,0.0,0.0,0.0,0.0,0.0,0.0,0.0,0.0,0.0,0.0,0.0,0.0,0.0,0.0,0.0,0.0,-0.6099,-0.5748,-0.5295,-0.4724,-0.4839,-0.498,0.0,0.0,0.0,0.0,0.0,0.0,0.0,0.0,0.0,0.0,0.0,0.0,0.0,0.0,0.0,0.0,0.0,0.0,0.0,0.0,0.0,0.0,0.0,0.0,0.0,0.0,0.0,0.0,0.0,0.0,0.0,0.0,0.0,0.0,0.0,0.0,0.0,0.0,0.0,0.0,0.0,0.0,0.0,0.0,0.0,0.0,0.0,0.0,0.0,0.0,0.0,0.0,0.0,0.0,0.0,0.0,0.0,0.0,0.0,0.0,0.0,0.0,0.0,0.0,0.0,0.0,0.0,0.0,0.0,0.0,0.0,0.0,0.0,0.0,0.0,0.0,0.0,0.0,0.0,0.0,0.0,0.0,0.0,0.0,0.0,0.0,0.0,0.0,0.0,0.0,0.0,0.0,0.0,0.0,0.0,0.0,0.0,0.0,0.0,0.0,0.0,0.0,0.0,0.0,0.0,0.0,0.0,0.0,0.0,-0.5163,0.0,-0.4642,-0.3994,-0.4521,-0.477,0.0,0.0,0.0,0.0,0.0,0.0,0.0,0.0,0.0,0.0,0.0,0.0,0.0,0.0,0.0,0.0,0.0,0.0,0.0,0.0,0.0,0.0,0.0,0.0,0.0,0.0,0.0,0.0,0.0,0.0,0.0,0.0,0.0,0.0,0.0,0.0,0.0,0.0,0.0,0.0,0.0,0.0,0.0,0.0,0.0,0.0,0.0,0.0,0.0,0.0,0.0,0.0,0.0,0.0,0.0,0.0,0.0,0.0,0.0,0.0,0.0,0.0,0.0,0.0,0.0,0.0,0.0,0.0,0.0,0.0,0.0,0.0,0.0,0.0,0.0,0.0,0.0,0.0,0.0,0.0,0.0,0.0,0.0,0.0,0.0,0.0,0.0,0.0,0.0,0.0,0.0,0.0,0.0,0.0,0.0,0.0,0.0,0.0,0.0,0.0,0.0,0.0,0.0,0.0,0.0,0.0,0.0,0.0,-0.541,-0.4823,-0.4596,-0.4573,-0.4752,-0.424,-0.4213,0.0,0.0,0.0,0.0,0.0,0.0,0.0,0.0,0.0,0.0,0.0,0.0,0.0,0.0,0.0,0.0,0.0,0.0,0.0,0.0,0.0,0.0,0.0,0.0,0.0,0.0,0.0,0.0,0.0,0.0,0.0,0.0,0.0,0.0,0.0,0.0,0.0,0.0,0.0,0.0,0.0,0.0,0.0,0.0,0.0,0.0,0.0,0.0,0.0,0.0,0.0,0.0,0.0,0.0,0.0,0.0,0.0,0.0,0.0,0.0,0.0,0.0,0.0,0.0,0.0,0.0,0.0,0.0,0.0,0.0,0.0,0.0,0.0,0.0,0.0,0.0,0.0,0.0,0.0,0.0,0.0,0.0,0.0,0.0,0.0,0.0,0.0,0.0,0.0,0.0,0.0,0.0,0.0,0.0,0.0,0.0,0.0,0.0,0.0,0.0,0.0,0.0,0.0,0.0,0.0,0.0,0.0,0.0,0.0,-0.461,-0.43,-0.4301,-0.4574,-0.4273,-0.4509,0.0,0.0,0.0,0.0,0.0,0.0,0.0,0.0,0.0,0.0,0.0,0.0,0.0,0.0,0.0,0.0,0.0,0.0,0.0,0.0,0.0,0.0,0.0,0.0,0.0,0.0,0.0,0.0,0.0,0.0,0.0,0.0,0.0,0.0,0.0,0.0,0.0,0.0,0.0,0.0,0.0,0.0,0.0,0.0,0.0,0.0,0.0,0.0,0.0,0.0,0.0,0.0,0.0,0.0,0.0,0.0,0.0,0.0,0.0,0.0,0.0,0.0,0.0,0.0,0.0,0.0,0.0,0.0,0.0,0.0,0.0,0.0,0.0,0.0,0.0,0.0,0.0,0.0,0.0,0.0,0.0,0.0,0.0,0.0,0.0,0.0,0.0,0.0,0.0,0.0,0.0,0.0,0.0,0.0,0.0,0.0,0.0,0.0,0.0,0.0,0.0,0.0,0.0,0.0,0.0,0.0,0.0,0.0,0.0,-0.5086,-0.4314,-0.4158,-0.4634,-0.4287,-0.4499,-0.5322,0.0,0.0,0.0,0.0,0.0,0.0,0.0,0.0,0.0,0.0,0.0,0.0,0.0,0.0,0.0,0.0,0.0,0.0,0.0,0.0,0.0,0.0,0.0,0.0,0.0,0.0,0.0,0.0,0.0,0.0,0.0,0.0,0.0,0.0,0.0,0.0,0.0,0.0,0.0,0.0,0.0,0.0,0.0,0.0,0.0,0.0,0.0,0.0,0.0,0.0,0.0,0.0,0.0,0.0,0.0,0.0,0.0,0.0,0.0,0.0,0.0,0.0,0.0,0.0,0.0,0.0,0.0,0.0,0.0,0.0,0.0,0.0,0.0,0.0,0.0,0.0,0.0,0.0,0.0,0.0,0.0,0.0,0.0,0.0,0.0,0.0,0.0,0.0,0.0,0.0,0.0,0.0,0.0,0.0,0.0,0.0,0.0,0.0,0.0,0.0,0.0,0.0,0.0,0.0,0.0,0.0,0.0,0.0,-0.6159,-0.4668,-0.4246,-0.4899,-0.4296,-0.429,0.0,0.0,0.0,0.0,0.0,0.0,0.0,0.0,0.0,0.0,0.0,0.0,0.0,0.0,0.0,0.0,0.0,0.0,0.0,0.0,0.0,0.0,0.0,0.0,0.0,0.0,0.0,0.0,0.0,0.0,0.0,0.0,0.0,0.0,0.0,0.0,0.0,0.0,0.0,0.0,0.0,0.0,0.0,0.0,0.0,0.0,0.0,0.0,0.0,0.0,0.0,0.0,0.0,0.0,0.0,0.0,0.0,0.0,0.0,0.0,0.0,0.0,0.0,0.0,0.0,0.0,0.0,0.0,0.0,0.0,0.0,0.0,0.0,0.0,0.0,0.0,0.0,0.0,0.0,0.0,0.0,0.0,0.0,0.0,0.0,0.0,0.0,0.0,0.0,0.0,0.0,0.0,0.0,0.0,0.0,0.0,0.0,0.0,0.0,0.0,0.0,0.0,0.0,0.0,0.0,0.0,0.0,0.0,0.0,-0.6773,-0.553,-0.5016,-0.539,-0.4732,-0.4565,0.0,0.0,0.0,0.0,0.0,0.0,0.0,0.0,0.0,0.0,0.0,0.0,0.0,0.0,0.0,0.0,0.0,0.0,0.0,0.0,0.0,0.0,0.0,0.0,0.0,0.0,0.0,0.0,0.0,0.0,0.0,0.0,0.0,0.0,0.0,0.0,0.0,0.0,0.0,0.0,0.0,0.0,0.0,0.0,0.0,0.0,0.0,0.0,0.0,0.0,0.0,0.0,0.0,0.0,0.0,0.0,0.0,0.0,0.0,0.0,0.0,0.0,0.0,0.0,0.0,0.0,0.0,0.0,0.0,0.0,0.0,0.0,0.0,0.0,0.0,0.0,0.0,0.0,0.0,0.0,0.0,0.0,0.0,0.0,0.0,0.0,0.0,0.0,0.0,0.0,0.0,0.0,0.0,0.0,0.0,0.0,0.0,0.0,0.0,0.0,0.0,0.0,0.0,0.0,0.0,0.0,0.0,0.0,-0.6611,-0.7229,-0.6156,-0.5702,-0.5902,-0.5132,-0.475,0.0,0.0,0.0,0.0,0.0,0.0,0.0,0.0,0.0,0.0,0.0,0.0,0.0,0.0,0.0,0.0,0.0,0.0,0.0,0.0,0.0,0.0,0.0,0.0,0.0,0.0,0.0,0.0,0.0,0.0,0.0,0.0,0.0,0.0,0.0,0.0,0.0,0.0,0.0,0.0,0.0,0.0,0.0,0.0,0.0,0.0,0.0,0.0,0.0,0.0,0.0,0.0,0.0,0.0,0.0,0.0,0.0,0.0,0.0,0.0,0.0,0.0,0.0,0.0,0.0,0.0,0.0,0.0,0.0,0.0,0.0,0.0,0.0,0.0,0.0,0.0,0.0,0.0,0.0,0.0,0.0,0.0,0.0,0.0,0.0,0.0,0.0,0.0,0.0,0.0,0.0,0.0,0.0,0.0,0.0,0.0,0.0,0.0,0.0,0.0,0.0,0.0,0.0,0.0,0.0,0.0,0.0,0.0,-0.6613,-0.7394,-0.6532,-0.6102,-0.6148,-0.5393,-0.4828,0.0,0.0,0.0,0.0,0.0,0.0,0.0,0.0,0.0,0.0,0.0,0.0,0.0,0.0,0.0,0.0,0.0,0.0,0.0,0.0,0.0,0.0,0.0,0.0,0.0,0.0,0.0,0.0,0.0,0.0,0.0,0.0,0.0,0.0,0.0,0.0,0.0,0.0,0.0,0.0,0.0,0.0,0.0,0.0,0.0,0.0,0.0,0.0,0.0,0.0,0.0,0.0,0.0,0.0,0.0,0.0,0.0,0.0,0.0,0.0,0.0,0.0,0.0,0.0,0.0,0.0,0.0,0.0,0.0,0.0,0.0,0.0,0.0,0.0,0.0,0.0,0.0,0.0,0.0,0.0,0.0,0.0,0.0,0.0,0.0,0.0,0.0,0.0,0.0,0.0,0.0,0.0,0.0,0.0,0.0,0.0,0.0,0.0,0.0,0.0,0.0,0.0,0.0,0.0,0.0,0.0,0.0,0.0,-0.6112,-0.6985,-0.6264,-0.5704,-0.5358,-0.5082,-0.4772,0.0,0.0,0.0,0.0,0.0,0.0,0.0,0.0,0.0,0.0,0.0,0.0,0.0,0.0,0.0,0.0,0.0,0.0,0.0,0.0,0.0,0.0,0.0,0.0,0.0,0.0,0.0,0.0,0.0,0.0,0.0,0.0,0.0,0.0,0.0,0.0,0.0,0.0,0.0,0.0,0.0,0.0,0.0,0.0,0.0,0.0,0.0,0.0,-0.2819,0.0,0.0,0.0,0.0,0.0,0.0,0.0,0.0,0.0,0.0,0.0,0.0,0.0,0.0,0.0,0.0,0.0,0.0,0.0,0.0,0.0,0.0,0.0,0.0,0.0,0.0,0.0,0.0,0.0,0.0,0.0,0.0,0.0,0.0,0.0,0.0,0.0,0.0,0.0,0.0,0.0,0.0,0.0,0.0,0.0,0.0,0.0,0.0,0.0,0.0,0.0,0.0,0.0,0.0,0.0,0.0,0.0,0.0,0.0,-0.5929,-0.6748,-0.6196,-0.5686,-0.5286,-0.4819,-0.4388,0.0,0.0,0.0,0.0,0.0,0.0,0.0,0.0,0.0,0.0,0.0,0.0,0.0,0.0,0.0,0.0,0.0,0.0,0.0,0.0,0.0,0.0,0.0,0.0,0.0,0.0,0.0,0.0,0.0,0.0,0.0,0.0,0.0,0.0,0.0,0.0,0.0,0.0,0.0,0.0,0.0,0.0,0.0,0.0,0.0,0.0,0.0,0.0,0.0,0.0,0.0,0.0,0.0,0.0,0.0,0.0,0.0,0.0,0.0,0.0,0.0,0.0,0.0,0.0,0.0,0.0,0.0,0.0,0.0,0.0,0.0,0.0,0.0,0.0,0.0,0.0,0.0,0.0,0.0,0.0,0.0,0.0,0.0,0.0,0.0,0.0,0.0,0.0,0.0,0.0,0.0,0.0,0.0,0.0,0.0,0.0,0.0,0.0,0.0,0.0,0.0,0.0,0.0,0.0,0.0,0.0,0.0,-0.578,-0.586,-0.6553,-0.6238,-0.5811,-0.5404,-0.4638,-0.4008,-0.3619,0.0,0.0,0.0,0.0,0.0,0.0,0.0,0.0,0.0,0.0,0.0,0.0,0.0,0.0,0.0,0.0,0.0,0.0,0.0,0.0,0.0,0.0,0.0,0.0,0.0,0.0,0.0,0.0,0.0,0.0,0.0,0.0,0.0,0.0,0.0,0.0,0.0,0.0,-0.355,-0.3424,0.0,0.0,0.0,0.0,0.0,0.0,0.0,0.0,-0.2896,0.0,0.0,0.0,0.0,0.0,0.0,0.0,0.0,0.0,0.0,0.0,0.0,0.0,0.0,0.0,0.0,0.0,0.0,0.0,0.0,0.0,0.0,0.0,0.0,0.0,0.0,0.0,0.0,0.0,0.0,0.0,0.0,0.0,0.0,0.0,0.0,0.0,0.0,0.0,0.0,0.0,0.0,0.0,0.0,0.0,0.0,0.0,0.0,0.0,0.0,0.0,0.0,0.0,0.0,0.0,0.0,-0.6283,-0.5763,-0.5717,-0.6202,-0.6055,-0.568,-0.5027,-0.4474,-0.4144,-0.3989,0.0,0.0,0.0,0.0,0.0,0.0,0.0,0.0,0.0,0.0,0.0,0.0,0.0,0.0,0.0,0.0,0.0,0.0,0.0,0.0,0.0,0.0,0.0,0.0,0.0,0.0,0.0,0.0,0.0,0.0,0.0,0.0,0.0,0.0,0.0,0.0,0.0,0.0,0.0,-0.3347,-0.3211,0.0,0.0,0.0,0.0,0.0,0.0,0.0,0.0,-0.267,0.0,0.0,0.0,0.0,0.0,0.0,0.0,0.0,0.0,0.0,0.0,0.0,0.0,0.0,0.0,0.0,0.0,0.0,0.0,0.0,0.0,0.0,0.0,0.0,0.0,0.0,0.0,0.0,0.0,0.0,0.0,0.0,0.0,0.0,0.0,0.0,0.0,0.0,0.0,0.0,0.0,0.0,0.0,0.0,0.0,0.0,0.0,0.0,0.0,0.0,0.0,0.0,0.0,0.0,0.0,-0.6247,-0.5763,-0.5735,-0.6177,-0.6063,-0.5751,-0.5164,-0.4714,-0.4559,0.0,0.0,0.0,0.0,0.0,0.0,0.0,0.0,0.0,0.0,0.0,0.0,0.0,0.0,0.0,0.0,0.0,0.0,0.0,0.0,0.0,0.0,0.0,0.0,0.0,0.0,0.0,0.0,0.0,0.0,0.0,0.0,0.0,0.0,0.0,0.0,0.0,0.0,0.0,0.0,-0.3742,-0.3565,-0.3297,0.0,0.0,0.0,0.0,0.0,0.0,-0.3001,-0.3038,0.0,0.0,0.0,0.0,0.0,0.0,0.0,0.0,0.0,0.0,0.0,0.0,0.0,0.0,0.0,0.0,0.0,0.0,0.0,0.0,0.0,0.0,0.0,0.0,0.0,0.0,0.0,0.0,0.0,0.0,0.0,0.0,0.0,0.0,0.0,0.0,0.0,0.0,0.0,0.0,0.0,0.0,0.0,0.0,0.0,0.0,0.0,0.0,0.0,0.0,0.0,0.0,0.0,0.0,0.0,-0.6259,-0.5876,-0.5876,-0.6266,-0.6135,-0.5884,-0.5535,-0.4965,-0.4946,0.0,0.0,0.0,0.0,0.0,0.0,0.0,0.0,0.0,0.0,0.0,0.0,0.0,0.0,0.0,0.0,0.0,0.0,0.0,0.0,0.0,0.0,0.0,0.0,0.0,0.0,0.0,0.0,0.0,0.0,0.0,0.0,0.0,0.0,0.0,0.0,0.0,0.0,0.0,0.0,0.0,-0.4108,-0.3656,-0.3655,0.0,0.0,0.0,0.0,-0.3547,-0.3413,0.0,0.0,0.0,0.0,0.0,0.0,0.0,0.0,0.0,0.0,0.0,0.0,0.0,0.0,0.0,0.0,0.0,0.0,0.0,0.0,0.0,0.0,0.0,0.0,0.0,0.0,0.0,0.0,0.0,0.0,0.0,0.0,0.0,0.0,0.0,0.0,0.0,0.0,0.0,0.0,0.0,0.0,0.0,0.0,0.0,0.0,0.0,0.0,0.0,0.0,0.0,0.0,0.0,0.0,0.0,0.0,-0.6283,-0.6235,-0.6218,-0.6283,-0.629,-0.6165,-0.5924,-0.5013,-0.4997,0.0,0.0,0.0,0.0,0.0,0.0,0.0,0.0,0.0,0.0,0.0,0.0,0.0,0.0,0.0,0.0,0.0,0.0,0.0,0.0,0.0,0.0,0.0,0.0,0.0,0.0,0.0,0.0,0.0,0.0,0.0,0.0,0.0,0.0,0.0,0.0,0.0,0.0,0.0,0.0,0.0,-0.4813,-0.457,-0.4107,-0.3912,0.0,0.0,-0.3425,-0.379,-0.3711,0.0,0.0,0.0,0.0,0.0,0.0,0.0,0.0,0.0,0.0,0.0,0.0,0.0,0.0,0.0,0.0,0.0,0.0,0.0,0.0,0.0,0.0,0.0,0.0,0.0,0.0,0.0,0.0,0.0,0.0,0.0,0.0,0.0,0.0,0.0,0.0,0.0,0.0,0.0,0.0,0.0,0.0,0.0,0.0,0.0,0.0,0.0,0.0,0.0,0.0,0.0,0.0,0.0,0.0,0.0,-0.677,-0.6758,-0.6463,-0.6283,-0.6283,-0.6283,-0.626,-0.6159,-0.5748,-0.585,0.0,0.0,0.0,0.0,0.0,0.0,0.0,0.0,0.0,0.0,0.0,0.0,0.0,0.0,0.0,0.0,0.0,0.0,0.0,0.0,0.0,0.0,0.0,0.0,0.0,0.0,0.0,0.0,0.0,0.0,0.0,0.0,0.0,0.0,0.0,0.0,0.0,0.0,0.0,0.0,0.0,0.0,-0.49,-0.4561,0.0,0.0,0.0,-0.383,-0.4006,0.0,0.0,0.0,0.0,0.0,0.0,0.0,0.0,0.0,0.0,0.0,0.0,0.0,0.0,0.0,0.0,0.0,0.0,0.0,0.0,0.0,0.0,0.0,0.0,0.0,0.0,0.0,0.0,0.0,0.0,0.0,0.0,0.0,0.0,0.0,0.0,0.0,0.0,0.0,0.0,0.0,0.0,0.0,0.0,0.0,0.0,0.0,0.0,0.0,0.0,0.0,0.0,0.0,0.0,0.0,0.0,0.0,-0.7063,-0.6439,-0.6163,-0.6283,-0.6283,-0.6283,-0.6283,-0.6093,0.0,0.0,0.0,0.0,0.0,0.0,0.0,0.0,0.0,0.0,0.0,0.0,0.0,0.0,0.0,0.0,0.0,0.0,0.0,0.0,0.0,0.0,0.0,0.0,0.0,0.0,0.0,-0.4492,0.0,0.0,0.0,0.0,0.0,0.0,0.0,0.0,0.0,0.0,0.0,0.0,0.0,0.0,-0.5463,-0.5042,-0.4891,-0.4723,0.0,0.0,-0.4264,-0.4187,-0.4205,-0.4298,0.0,0.0,0.0,0.0,0.0,0.0,0.0,0.0,0.0,0.0,0.0,0.0,0.0,0.0,0.0,0.0,0.0,0.0,0.0,0.0,0.0,0.0,0.0,0.0,0.0,0.0,0.0,0.0,0.0,0.0,0.0,0.0,0.0,0.0,0.0,0.0,0.0,0.0,0.0,0.0,0.0,0.0,0.0,0.0,0.0,0.0,0.0,0.0,0.0,0.0,0.0,0.0,0.0,0.0,0.0,-0.7046,-0.6091,-0.5799,-0.6271,-0.6283,-0.6283,-0.6283,-0.5576,-0.5023,0.0,0.0,0.0,0.0,0.0,0.0,0.0,0.0,0.0,0.0,0.0,0.0,0.0,0.0,0.0,0.0,0.0,0.0,0.0,0.0,0.0,0.0,0.0,0.0,0.0,0.0,0.0,0.0,0.0,0.0,0.0,0.0,0.0,0.0,0.0,0.0,0.0,0.0,0.0,0.0,0.0,-0.5907,-0.5022,-0.4851,-0.4757,0.0,0.0,-0.4522,-0.4416,-0.4581,-0.4766,-0.4763,0.0,0.0,0.0,0.0,0.0,0.0,0.0,0.0,0.0,0.0,0.0,0.0,0.0,0.0,0.0,0.0,0.0,0.0,0.0,0.0,0.0,0.0,0.0,0.0,0.0,0.0,0.0,0.0,0.0,0.0,0.0,0.0,0.0,0.0,0.0,0.0,0.0,0.0,0.0,0.0,0.0,0.0,0.0,0.0,0.0,0.0,0.0,0.0,0.0,0.0,0.0,0.0,0.0,-0.7383,-0.7576,-0.6553,-0.6103,-0.6283,-0.6283,-0.6283,-0.6283,-0.4768,-0.4514,0.0,0.0,0.0,0.0,0.0,0.0,0.0,0.0,0.0,0.0,0.0,0.0,0.0,0.0,0.0,0.0,0.0,0.0,0.0,0.0,0.0,0.0,0.0,0.0,0.0,0.0,0.0,0.0,-0.5972,-0.6251,-0.6596,0.0,0.0,0.0,0.0,0.0,0.0,0.0,0.0,0.0,0.0,-0.5865,-0.5497,-0.5329,0.0,0.0,-0.5244,-0.5109,-0.4757,-0.5045,-0.5198,-0.4919,-0.5282,0.0,0.0,0.0,0.0,0.0,0.0,0.0,0.0,0.0,0.0,0.0,0.0,0.0,0.0,0.0,0.0,0.0,0.0,0.0,0.0,0.0,0.0,0.0,0.0,0.0,0.0,0.0,0.0,0.0,0.0,0.0,0.0,0.0,0.0,0.0,0.0,0.0,0.0,0.0,0.0,0.0,0.0,0.0,0.0,0.0,0.0,0.0,0.0,0.0,0.0,0.0,0.0,-0.7744,-0.7888,-0.6679,-0.6139,-0.6283,-0.6283,-0.6283,-0.6247,-0.488,-0.4286,0.0,0.0,0.0,0.0,0.0,0.0,0.0,0.0,0.0,0.0,0.0,0.0,0.0,0.0,0.0,0.0,0.0,0.0,0.0,0.0,0.0,0.0,0.0,0.0,0.0,0.0,0.0,0.0,-0.6821,-0.7032,-0.7371,0.0,0.0,0.0,0.0,0.0,0.0,0.0,0.0,0.0,0.0,-0.5694,-0.5668,-0.5504,-0.5459,-0.5676,-0.5653,-0.547,-0.5153,-0.5259,-0.5349,-0.5147,0.0,0.0,0.0,0.0,0.0,0.0,0.0,0.0,0.0,0.0,0.0,0.0,0.0,0.0,0.0,0.0,0.0,0.0,0.0,0.0,0.0,0.0,0.0,0.0,0.0,0.0,0.0,0.0,0.0,0.0,-0.6779,0.0,0.0,0.0,0.0,0.0,0.0,0.0,0.0,0.0,0.0,0.0,0.0,0.0,0.0,0.0,0.0,0.0,0.0,0.0,0.0,0.0,0.0,-0.7407,-0.7864,-0.6367,-0.5799,-0.6271,-0.6283,-0.6283,-0.6283,-0.6223,-0.4341,-0.0523,0.0,0.0,0.0,0.0,0.0,0.0,0.0,0.0,0.0,0.0,0.0,0.0,0.0,0.0,0.0,0.0,0.0,0.0,0.0,0.0,0.0,0.0,0.0,0.0,0.0,0.0,-0.8341,-0.8194,-0.7945,0.0,0.0,0.0,0.0,0.0,0.0,0.0,0.0,0.0,0.0,-0.5996,-0.5456,-0.5342,-0.5214,-0.5274,-0.5648,-0.5591,-0.5544,-0.5603,-0.525,-0.5081,0.0,0.0,0.0,0.0,0.0,0.0,0.0,0.0,0.0,0.0,0.0,0.0,0.0,0.0,0.0,0.0,0.0,0.0,0.0,0.0,0.0,0.0,0.0,0.0,0.0,0.0,0.0,-0.6034,-0.6169,0.0,0.0,0.0,0.0,0.0,0.0,0.0,0.0,0.0,0.0,0.0,-0.9018,-0.8971,0.0,0.0,0.0,0.0,0.0,0.0,0.0,0.0,0.0,0.0,0.0,0.0,-0.8091,-0.7864,-0.7022,-0.6475,-0.6295,-0.6283,-0.6283,-0.6283,-0.5384,-0.4846,-0.4728,0.0,0.0,0.0,0.0,0.0,0.0,0.0,0.0,0.0,0.0,0.0,0.0,0.0,0.0,0.0,0.0,0.0,0.0,0.0,0.0,0.0,0.0,0.0,0.0,0.0,-0.7936,0.0,0.0,0.0,0.0,0.0,0.0,0.0,0.0,0.0,0.0,0.0,-0.635,-0.6122,-0.5977,-0.5888,-0.5856,-0.5809,-0.5875,0.0,0.0,0.0,0.0,0.0,0.0,0.0,0.0,0.0,0.0,0.0,0.0,0.0,0.0,-0.6412,-0.618,-0.6318,-0.6372,-0.6007,0.0,0.0,0.0,0.0,0.0,0.0,0.0,0.0,0.0,0.0,0.0,0.0,0.0,0.0,-0.6139,0.0,-0.6264,0.0,0.0,0.0,0.0,0.0,0.0,0.0,0.0,-0.912,-0.918,-0.8995,-0.8947,-0.8808,0.0,-0.8624,-0.8985,0.0,0.0,0.0,0.0,0.0,0.0,0.0,0.0,-0.8537,-0.8187,-0.7648,-0.7215,-0.6878,-0.6667,-0.6638,-0.6655,-0.5704,-0.5432,-0.5977,-0.3827,-0.4103,0.0,0.0,0.0,0.0,0.0,0.0,0.0,0.0,0.0,0.0,0.0,0.0,0.0,0.0,0.0,0.0,0.0,0.0,0.0,0.0,0.0,0.0,0.0,-0.8399,0.0,0.0,0.0,0.0,0.0,0.0,0.0,0.0,0.0,-0.7636,-0.6885,-0.6272,-0.5977,-0.6097,-0.6194,-0.6206,0.0,0.0,0.0,0.0,0.0,0.0,0.0,-0.6767,-0.6661,-0.6812,-0.6996,-0.6979,-0.7115,-0.7223,-0.7223,0.0,0.0,-0.6476,-0.6596,-0.6608,-0.6137,-0.646,-0.664,-0.6357,-0.6294,-0.6292,0.0,0.0,0.0,0.0,0.0,0.0,0.0,0.0,-0.5916,-0.6097,0.0,-0.6478,0.0,0.0,0.0,0.0,0.0,-0.8195,0.0,0.0,-0.858,-0.859,-0.897,-0.9018,-0.8971,-0.896,-0.9517,-0.9703,-0.9484,-0.8452,0.0,0.0,0.0,0.0,0.0,0.0,-0.8718,-0.8658,-0.8177,-0.7912,-0.7864,-0.7383,-0.7207,-0.7386,-0.7147,-0.6128,-0.4294,-0.63,-0.7549,-0.7538,-0.7904,0.0,0.0,0.0,0.0,0.0,0.0,0.0,0.0,0.0,0.0,0.0,0.0,0.0,0.0,0.0,0.0,0.0,0.0,0.0,0.0,-0.9695,0.0,0.0,0.0,0.0,0.0,0.0,0.0,0.0,0.0,0.0,-0.6382,-0.6607,-0.6744,-0.6291,0.0,0.0,0.0,0.0,-0.6912,-0.7052,-0.6939,-0.6914,-0.7084,-0.7122,-0.7078,-0.7081,0.0,0.0,-0.7349,-0.7396,-0.7492,-0.7503,-0.7558,-0.7489,-0.6901,-0.679,-0.6756,-0.6482,-0.6558,-0.6672,-0.6804,-0.6644,-0.6333,-1.0108,0.0,0.0,0.0,0.0,-0.768,-0.7406,-0.7645,-0.6733,-0.6681,-0.7258,-0.6758,0.0,0.0,0.0,0.0,0.0,0.0,-0.8748,-0.8742,-0.9157,-0.9255,-0.8995,-0.9018,-0.9066,-0.9173,-0.8851,-0.867,-0.8645,-0.8201,-0.8404,-0.9259,0.0,0.0,0.0,0.0,-0.923,-0.8718,-0.8561,-0.8296,-0.79,-0.7756,-0.7696,-0.7768,-0.7911,-0.7692,-0.7058,-0.755,-0.8029,-0.841,-0.8879,0.0,0.0,0.0,0.0,0.0,0.0,0.0,0.0,0.0,0.0,0.0,0.0,0.0,0.0,0.0,0.0,0.0,0.0,0.0,-0.9328,-0.9133,-0.9171,0.0,0.0,0.0,0.0,0.0,0.0,0.0,0.0,0.0,-0.6486,-0.6613,-0.6894,0.0,0.0,-0.6976,-0.7009,-0.7124,-0.7276,-0.7285,-0.7318,0.0,0.0,-0.7336,-0.732,-0.7389,-0.7505,-0.7646,-0.7571,-0.7581,-0.7556,-0.7562,-0.7458,-0.729,-0.7157,-0.7079,-0.7091,-0.7108,-0.706,-0.6999,-0.6979,-0.6944,-0.679,-1.0628,-1.0201,-0.9711,-0.9337,-0.8921,-0.7823,-0.7434,-0.7524,-0.6798,-0.6845,-0.7418,-0.6919,-0.7002,-0.7563,-0.785,0.0,0.0,0.0,-0.8966,-0.8827,-0.9516,-0.9654,-0.9379,-0.9367,-0.9416,-0.9513,-0.9066,-0.8867,-0.889,-0.8727,-0.8924,-0.9528,0.0,0.0,-0.9632,-0.9684,-0.9447,-0.903,-0.9018,-0.8862,-0.8537,-0.8537,-0.8429,-0.8225,-0.8501,-0.8597,-0.8417,-0.8289,-0.8375,-0.8744,-0.9224,-0.9546,0.0,0.0,0.0,0.0,0.0,0.0,0.0,0.0,0.0,0.0,0.0,-0.9356,0.0,0.0,0.0,0.0,-0.9818,-0.9765,-0.9525,-0.9618,0.0,0.0,0.0,0.0,0.0,0.0,0.0,-0.8465,-0.8222,-0.7921,-0.737,-0.7457,-0.7573,-0.7573,-0.7598,-0.7554,-0.7505,0.0,-0.7859,-0.7766,-0.7701,-0.765,-0.7592,-0.7518,-0.7521,-0.7628,-0.7735,-0.7783,-0.7783,-0.7757,-0.7713,-0.7689,-0.7575,-0.7466,-0.7472,-0.7466,-0.7502,-0.7599,-0.7494,-0.7377,-0.7271,-0.7036,-0.6706,-1.1116,-1.1054,-1.0488,-0.9786,-0.8968,-0.807,-0.7381,-0.684,-0.6577,-0.6873,-0.7509,-0.7095,-0.7449,-0.8374,-0.8441,0.0,-0.8851,-0.9127,-0.9197,-0.9201,-0.9667,-0.988,-0.988,-0.9867,-0.988,-0.9893,-0.9828,-0.9814,-0.979,-0.9646,-0.9617,-0.9632,-0.9093,-0.9193,-0.9829,-0.967,-0.9511,-0.9511,-0.9511,-0.9485,-0.9485,-0.9497,-0.9271,-0.8766,-0.9013,-0.8999,-0.8673,-0.8645,-0.8672,-0.881,-0.9124,-0.9597,-1.0204,0.0,0.0,0.0,0.0,0.0,0.0,0.0,0.0,0.0,0.0,0.0,0.0,0.0,0.0,0.0,-1.047,0.0,-0.9902,-1.0637,0.0,0.0,0.0,-1.0391,-1.0206,-0.952,-0.9138,-0.9417,0.0,0.0,-0.8679,-0.8745,-0.8619,-0.8067,-0.8137,-0.8189,-0.8037,-0.8346,-0.8527,-0.8237,-0.8055,-0.7889,-0.7806,-0.767,-0.7628,-0.7848,-0.7901,-0.7901,-0.7901,-0.7895,-0.7901,-0.7883,-0.7901,-0.7889,-0.7895,-0.7812,-0.7848,-0.7883,-0.7723,-0.7568,-0.7473,-0.6844,-0.6345,-1.2214,-1.18,-1.1127,-1.0584,-1.0029,-0.8921,-0.8657,-0.8959,-0.818,-0.8171,-0.8734,-0.819,-0.8095,-0.8345,-0.8585,-0.8865,-0.9188,-0.9466,-0.9636,-0.9717,-0.9843,-0.988,-0.988,-0.988,-0.988,-0.988,-0.988,-0.9854,-0.9802,-0.975,-0.9828,-0.9969,-1.0007,-0.9885,-0.967,-0.9762,-0.9736,-0.9591,-0.9591,-0.9538,-0.9497,-0.9497,-0.9425,-0.9319,-0.9372,-0.9378,-0.9271,-0.8949,-0.9098,-0.9788,-0.9534,-0.9722,-1.0417,-0.9965,0.0,0.0,0.0,0.0,0.0,0.0,0.0,0.0,0.0,-0.9811,-1.0187,0.0,-0.9978,0.0,-1.0049,-1.0065,-0.9629,-0.982,0.0,0.0,-1.0846,-1.0775,-1.0136,-1.0139,-0.9683,-0.8358,-0.8616,-0.9026,-0.9318,-0.9323,-0.9145,-0.884,-0.858,-0.8325,-0.8332,-0.8475,-0.8573,-0.8527,-0.8434,-0.8321,-0.8268,-0.8002,-0.7842,-0.7901,-0.7901,-0.7901,-0.7901,-0.7901,-0.7901,-0.7901,-0.7901,-0.7901,-0.7901,-0.7574,-0.7467,-0.7741,-0.7413,-0.6931,-0.6748,-0.6487,-0.6298,-1.2759,-1.2376,-1.1902,-1.1514,-1.1109,-0.9702,-0.9313,-0.9564,-0.8905,-0.887,-0.9275,-0.8955,-0.9047,-0.9417,-0.9456,-0.9839,-1.0411,-1.0451,-1.0383,-1.0243,-1.027,-1.0144,-0.9905,-0.988,-1.0031,-1.023,-1.027,-1.0368,-1.0578,-1.0287,-1.0341,-1.0716,-1.0541,-1.044,-1.0448,-1.0451,-1.0451,-1.0391,-1.0363,-1.0169,-0.9896,-1.0072,-1.0084,-0.9884,-1.006,-1.0135,-0.9996,-0.9869,-0.9928,-1.0176,-1.0004,-1.018,-1.0706,-0.9943,-0.953,0.0,0.0,0.0,0.0,0.0,0.0,0.0,0.0,0.0,0.0,0.0,-0.9883,-0.9862,-1.0393,-1.0599,-1.0278,-1.0603,-1.0861,-1.0853,-1.1075,-1.0903,-1.0092,-0.9875,-0.9445,-0.8562,-0.8685,-0.8951,-0.9249,-0.9283,-0.9278,-0.9166,-0.8804,-0.8586,-0.8586,-0.8639,-0.8685,-0.8685,-0.8639,-0.8546,-0.8275,-0.8062,-0.7901,-0.7901,-0.7901,-0.7901,-0.7901,-0.7901,-0.7848,-0.7628,-0.7521,-0.7521,-0.7413,-0.7031,-0.6696,-0.6372,-0.6263,-0.6201,-0.6309,-0.6244,-0.6087,-1.2983,-1.2797,-1.2623,-1.2372,-1.1994,-1.0544,-0.9821,-0.9622,-0.9439,-0.9443,-0.9626,-0.9778,-1.0183,-1.08,-1.0611,-1.0982,-1.1742,-1.1533,-1.119,-1.0747,-1.0797,-1.0533,-1.0018,-1.0081,-1.037,-1.0794,-1.0806,-1.1098,-1.155,-1.1028,-1.0982,-1.146,-1.0998,-1.1023,-1.1597,-1.1517,-1.1449,-1.1388,-1.1284,-1.0949,-1.0425,-1.0858,-1.0882,-1.0461,-1.0846,-1.0962,-1.07,-1.0931,-1.0835,-1.034,-1.0407,-1.066,-1.1038,-0.9722,-0.9946,0.0,-1.083,0.0,0.0,0.0,0.0,0.0,0.0,0.0,0.0,-0.9848,-0.9601,-1.028,-1.1013,-1.1363,-1.116,-1.1921,-1.209,-1.1267,-1.1266,-1.0989,-1.0186,-0.9502,-0.9175,-0.9259,-0.8994,-0.8871,-0.8991,-0.9139,-0.9204,-0.9159,-0.8962,-0.8804,-0.8804,-0.8804,-0.8804,-0.8804,-0.8804,-0.8599,-0.8062,-0.7901,-0.7901,-0.7901,-0.7794,-0.7794,-0.7794,-0.7681,-0.7521,-0.7085,-0.6977,-0.6923,-0.6701,-0.6322,-0.5769,-0.4842,-0.5011,-0.5403,-0.5797,-0.581,-0.5908,-1.3278,-1.2931,-1.2797,-1.2491,-1.2077,-1.1754,-1.1416,-1.1016,-1.1062,-1.1,-1.0886,-1.1337,-1.1273,-1.0865,-1.1414,-1.1627,-1.158,-1.1682,-1.142,-1.0871,-1.124,-1.1111,-1.0593,-1.1048,-1.1324,-1.1425,-1.1412,-1.1487,-1.1588,-1.1475,-1.1475,-1.16,-1.1833,-1.2058,-1.2246,0.0,0.0,0.0,-1.1241,-1.11,-1.0942,-1.1051,-1.1039,-1.0954,-1.1039,0.0,-1.0994,-1.0931,-1.0791,-1.068,-1.0513,0.0,0.0,0.0,0.0,0.0,0.0,0.0,0.0,0.0,0.0,0.0,-1.1761,-1.1412,-1.1098,-1.0312,-1.0374,-1.1487,-1.0961,-1.0664,-1.0923,-1.163,-1.1795,-1.1099,-1.1573,-1.1612,-1.0621,-1.0618,-1.0344,-0.9204,-0.9276,-0.9446,-0.9431,-0.9436,-0.9316,-0.912,-0.9015,-0.8903,-0.8811,-0.8804,-0.8804,-0.8804,-0.8804,-0.8593,-0.8008,-0.7901,-0.7901,-0.7848,-0.7521,-0.73,-0.7246,-0.6864,-0.6534,-0.6376,-0.6372,-0.6268,-0.5878,-0.5605,-0.5289,-0.4625,-0.4688,-0.4838,-0.4965,-0.5022,-0.5153,-1.3492,0.0,-1.3469,-1.3355,0.0,-1.2853,-1.2605,-1.2269,-1.2076,-1.1857,-1.1627,-1.203,-1.1953,-1.1575,-1.2177,-1.2489,-1.2558,-1.2602,-1.2327,-1.1797,-1.1926,-1.1719,-1.1206,-1.1479,-1.1726,-1.1989,-1.1989,-1.214,-1.2379,-1.2128,-1.2128,-1.2391,-1.2352,-1.2489,-1.2785,-1.3004,-1.2753,-1.2087,-1.2054,-1.1867,-1.1572,-1.1769,-1.1781,-1.156,-1.1769,0.0,0.0,0.0,0.0,0.0,0.0,0.0,0.0,0.0,0.0,-1.2301,-1.2263,-1.2215,-1.2263,-1.2263,-1.2168,-1.2051,-1.2041,-1.1813,-1.1338,-1.1085,-1.1219,-1.1746,-1.167,-1.1562,-1.1572,-1.1836,-1.1872,-1.1543,-1.1902,-1.1803,-1.1057,-1.0722,-1.0303,-0.9686,-0.9405,-0.9372,-0.9321,-0.9364,-0.9316,-0.9127,-0.9075,-0.8962,-0.891,-0.8857,-0.8804,-0.8804,-0.8804,-0.8593,-0.8168,-0.7955,-0.7794,-0.7574,-0.7252,-0.6977,-0.6701,-0.6426,-0.6095,-0.5832,-0.5848,-0.5729,-0.5195,-0.5016,-0.4885,-0.4605,-0.458,-0.4706,-0.4731,-0.4875,-0.4987,-1.3911,-1.382,-1.4396,-1.446,-1.4075,-1.3886,-1.3715,-1.3521,0.0,0.0,0.0,-1.2636,-1.2669,-1.2513,-1.2935,-1.3323,-1.3669,-1.3547,-1.3218,-1.2755,-1.2601,-1.2348,-1.1969,-1.2008,-1.2266,-1.2693,-1.2758,-1.2986,-1.3358,-1.304,-1.3103,-1.3433,-1.3124,-1.315,-1.3461,-1.3451,-1.3345,-1.3178,-1.3006,-1.2653,-1.2137,-1.2515,-1.2527,-1.2137,-1.26,-1.2842,-1.2854,-1.336,-1.3447,-1.3039,-1.2936,-1.2915,-1.3007,-1.2365,-1.2243,-1.2735,-1.2676,-1.2483,-1.2223,-1.2204,-1.2056,-1.1743,-1.2021,-1.2073,-1.1657,-1.1986,-1.2061,-1.1861,-1.2461,-1.2695,-1.2229,-1.2197,-1.2118,-1.2134,-1.2129,-1.1868,-1.1242,-1.0557,-1.0057,-0.9927,-0.9562,-0.9226,-0.9175,-0.9285,-0.9337,-0.9225,-0.9068,-0.9015,-0.8962,-0.8857,-0.8804,-0.8804,-0.8804,-0.8646,-0.8328,-0.8115,-0.7788,-0.73,-0.7079,-0.675,-0.6209,-0.5932,-0.5727,-0.5286,-0.5349,-0.5205,-0.4745,-0.4707,-0.467,-0.4591,-0.4692,-0.4721,-0.4738,-0.4959,-0.5067,-1.5105,-1.5537,-1.5624,-1.5373,-1.4865,-1.4994,-1.502,-1.4821,-1.369,-1.3313,-1.3585,-1.4068,-1.384,-1.3189,-1.3677,-1.3985,-1.4092,-1.3682,-1.335,-1.3045,-1.3073,-1.3069,-1.3031,-1.3518,-1.3783,-1.3882,-1.4153,-1.4191,-1.4054,-1.4528,-1.4779,-1.4701,-1.4913,-1.49,-1.4714,-1.4651,-1.4575,-1.4332,-1.3386,-1.2801,-1.2601,-1.2731,-1.2743,-1.2625,-1.3107,-1.3397,-1.3397,-1.3903,-1.401,-1.3599,-1.3238,-1.3096,-1.3155,-1.2655,-1.2579,-1.3082,-1.3055,-1.3007,-1.2938,-1.2938,-1.2703,-1.2197,-1.2151,-1.2353,-1.2676,-1.2734,-1.2792,-1.2695,-1.2812,-1.2705,-1.2268,-1.2539,-1.2569,-1.2271,-1.2166,-1.1868,-1.1309,-1.072,-1.0214,-0.9783,-0.9607,-0.9548,-0.9511,-0.9474,-0.9465,-0.9465,-0.9211,-0.8956,-0.8857,-0.8811,-0.8804,-0.8804,-0.8804,-0.8699,-0.8487,-0.8374,-0.8049,-0.7396,-0.6853,-0.6308,-0.5605,-0.5171,-0.4886,-0.4794,-0.4836,-0.4834,-0.4796,-0.4867,-0.4816,-0.4684,-0.4851,-0.4936,-0.4766,-0.5016,-0.529,-1.5867,-1.6116,-1.6499,-1.6373,-1.5916,-1.5753,-1.5509,-1.5155,-1.458,-1.4293,-1.4327,-1.4667,-1.4415,-1.3877,-1.4534,-1.4703,-1.4415,-1.4836,-1.4789,-1.4403,-1.4415,-1.4511,-1.4549,-1.4524,-1.4638,-1.4848,-1.5006,-1.5019,-1.4922,-1.5452,-1.5455,-1.498,-1.5082,-1.5044,-1.4812,-1.4787,-1.4697,-1.4474,-1.4048,-1.3753,-1.3641,-1.3603,-1.3603,-1.3629,-1.3857,-1.3927,-1.3927,-1.4405,-1.46,-1.4423,-1.4258,-1.4116,-1.3922,-1.3428,-1.3168,-1.3132,-1.3152,-1.3152,-1.3075,-1.3075,-1.2996,-1.2703,-1.2626,-1.2656,-1.2871,-1.2656,-1.2627,-1.2852,-1.2891,-1.2812,-1.2607,-1.2773,-1.2803,-1.2607,-1.257,-1.2323,-1.1746,-1.1353,-1.0809,-1.0141,-0.9933,-0.9804,-0.9629,-0.9562,-0.951,-0.9562,-0.9263,-0.8962,-0.8811,-0.8804,-0.8804,-0.8804,-0.8804,-0.8745,-0.8586,-0.8586,-0.8262,-0.745,-0.6794,-0.614,-0.5437,-0.4897,-0.4605,-0.4555,-0.4626,-0.4711,-0.4799,-0.4863,-0.487,-0.485,-0.4942,-0.5016,-0.5009,-0.5169,-0.5311,-1.669,-1.6783,-1.7363,-1.74,-1.6978,-1.645,-1.5959,-1.5624,-1.5547,-1.543,-1.5261,-1.5183,-1.4861,-1.4486,-1.5262,-1.5343,-1.5077,-1.5889,-1.6089,-1.5799,-1.5568,-1.5638,-1.5808,-1.5402,-1.5402,-1.5719,-1.587,-1.5856,-1.5795,-1.6327,-1.6298,-1.5608,-1.5426,-1.5293,-1.5107,-1.5042,-1.495,-1.4801,-1.4853,-1.4731,-1.4408,-1.4368,-1.4329,-1.4396,-1.4437,-1.447,-1.4494,-1.4905,-1.5181,-1.5205,-1.5168,-1.5017,-1.4686,-1.4222,-1.3773,-1.3402,-1.3372,-1.3324,-1.3172,-1.3223,-1.3184,-1.3085,-1.3027,-1.2978,-1.2861,-1.2578,-1.251,-1.2822,-1.2891,-1.2881,-1.2891,-1.3018,-1.3066,-1.3037,-1.3016,-1.2795,-1.231,-1.1931,-1.1383,-1.0624,-1.0272,-0.9972,-0.9709,-0.9614,-0.9569,-0.9465,-0.9211,-0.9008,-0.8857,-0.8804,-0.8804,-0.8804,-0.8804,-0.8752,-0.8633,-0.8692,-0.8374,-0.7563,-0.7009,-0.6357,-0.5601,-0.4952,-0.4653,-0.4636,-0.4616,-0.4731,-0.4782,-0.4887,-0.4958,-0.4969,-0.5095,-0.5195,-0.5165,-0.526,-0.5425,-1.779,-1.8297,-1.8518,-1.8401,-1.7864,-1.7205,-1.6838,-1.6763,-1.6564,-1.6675,-1.6783,-1.5994,-1.5374,-1.5058,-1.5681,-1.5933,-1.5811,-1.6153,-1.6445,-1.6494,-1.5828,-1.5811,-1.6349,-1.6297,-1.6297,-1.6401,-1.6978,-1.694,-1.6493,-1.7432,-1.7796,-1.7491,-1.7044,-1.6548,-1.6261,-1.6089,-1.5972,-1.5842,-1.5855,-1.5368,-1.4456,-1.4396,-1.4396,-1.4408,-1.4771,-1.4929,-1.4941,-1.5444,-1.572,-1.572,-1.5445,-1.5267,-1.5176,-1.4743,-1.4316,-1.4082,-1.3978,-1.3732,-1.3296,-1.3472,-1.3431,-1.3008,-1.3252,-1.3301,-1.2969,-1.2871,-1.2832,-1.2978,-1.292,-1.2949,-1.292,-1.335,-1.3584,-1.3426,-1.3366,-1.3118,-1.2675,-1.2007,-1.1423,-1.0939,-1.0462,-0.998,-0.9694,-0.9614,-0.9524,-0.9358,-0.9278,-0.9113,-0.8857,-0.8804,-0.8804,-0.8804,-0.8804,-0.8804,-0.8752,-0.8804,-0.848,-0.7824,-0.7498,-0.6843,-0.5923,-0.534,-0.5104,-0.472,-0.4663,-0.4765,-0.4975,-0.5104,-0.5091,-0.5121,-0.5209,-0.5391,-0.5404,-0.5415,-0.5428,-1.8858,-1.8694,-1.8638,-1.8348,-1.7888,-1.7489,-1.7183,-1.7009,-1.7384,-1.7369,-1.7238,-1.7197,-1.6969,-1.6637,-1.7117,-1.7185,-1.6909,-1.7605,-1.779,-1.7605,-1.7348,-1.7411,-1.7605,-1.7356,-1.7356,-1.7632,-1.7943,-1.7929,-1.7749,-1.7879,-1.7926,-1.7801,-1.7544,-1.7186,-1.6705,-1.6663,-1.6479,-1.6306,-1.6076,-1.577,-1.5405,-1.5344,-1.5302,-1.5242,-1.5477,-1.5555,-1.5492,-1.5684,-1.5792,-1.5792,-1.5659,-1.5537,-1.5312,-1.4869,-1.4444,-1.4118,-1.3789,-1.36,-1.3467,-1.3749,-1.3842,-1.3511,-1.3807,-1.3913,-1.3643,-1.3623,-1.3613,-1.3623,-1.3613,-1.3623,-1.3643,-1.3984,-1.4131,-1.3902,-1.3811,-1.3572,-1.3101,-1.2787,-1.218,-1.1204,-1.0919,-1.0499,-0.9798,-0.9614,-0.9597,-0.9553,-0.945,-0.9246,-0.8969,-0.891,-0.8857,-0.8804,-0.8804,-0.8804,-0.8804,-0.8804,-0.8586,-0.8256,-0.7818,-0.7058,-0.6308,-0.5601,-0.5171,-0.4775,-0.4684,-0.4802,-0.5008,-0.5057,-0.5036,-0.5169,-0.5284,-0.5428,-0.5428,-0.5428,-0.5428,-1.9466,-1.9143,-1.9032,-1.8689,-1.82,-1.8117,-1.793,-1.7795,-1.8274,-1.8271,-1.7973,-1.8455,-1.8543,-1.8298,-1.8308,-1.8106,-1.7871,-1.8681,-1.8869,-1.8484,-1.8522,-1.85,-1.8461,-1.8147,-1.8147,-1.8475,-1.8616,-1.8655,-1.8644,-1.842,-1.8072,-1.7828,-1.7787,-1.7489,-1.6918,-1.6833,-1.6705,-1.6522,-1.625,-1.612,-1.6151,-1.6163,-1.6076,-1.5913,-1.5957,-1.5957,-1.5836,-1.5792,-1.5792,-1.5792,-1.5792,-1.5715,-1.5447,-1.5142,-1.4755,-1.4176,-1.3868,-1.37,-1.3614,-1.4094,-1.4214,-1.4051,-1.4304,-1.4385,-1.417,-1.4155,-1.4268,-1.4307,-1.435,-1.4424,-1.4116,-1.4394,-1.4473,-1.4336,-1.4394,-1.4224,-1.3772,-1.3617,-1.3064,-1.1974,-1.164,-1.112,-1.0193,-0.9965,-1.005,-1.0019,-0.9835,-0.9514,-0.9259,-0.9145,-0.9098,-0.8971,-0.8871,-0.8804,-0.8804,-0.8804,-0.8745,-0.858,-0.8143,-0.7551,-0.6686,-0.5928,-0.5282,-0.493,-0.4789,-0.4799,-0.5053,-0.505,-0.5036,-0.5257,-0.5425,-0.5425,-0.5428,-0.5428,-0.5459,-1.9288,-1.9943,-2.0214,-1.978,-1.9138,-1.9328,-1.9452,-1.9326,-1.9491,-1.9536,-1.9483,-1.9594,-1.963,-1.9501,-1.8797,-1.839,-1.8358,-1.8848,-1.9058,-1.8991,-1.8721,-1.8514,-1.85,-1.8461,-1.8528,-1.8676,-1.896,-1.9069,-1.9069,-1.9169,-1.8754,-1.7788,-1.7961,-1.7626,-1.6879,-1.665,-1.6522,-1.6565,-1.6436,-1.6466,-1.6479,-1.6595,-1.6423,-1.6076,-1.5988,-1.5913,-1.5836,-1.5792,-1.5792,-1.5792,-1.5792,-1.5792,-1.5792,-1.576,-1.5357,-1.4614,-1.4521,-1.4322,-1.3932,-1.4477,-1.473,-1.4292,-1.4566,-1.46,-1.4316,-1.4463,-1.4629,-1.4736,-1.5059,-1.4971,-1.4375,-1.4512,-1.4678,-1.4775,-1.5088,-1.5041,-1.4739,-1.4363,-1.4063,-1.3142,-1.2208,-1.1406,-1.0607,-1.0726,-1.0639,-1.0444,-1.0372,-1.0186,-0.977,-0.9556,-0.9494,-0.9336,-0.914,-0.8818,-0.8818,-0.8804,-0.8804,-0.8586,-0.8249,-0.7984,-0.7176,-0.6337,-0.5682,-0.5106,-0.49,-0.4857,-0.5047,-0.5145,-0.5179,-0.5281,-0.5408,-0.5422,-0.5428,-0.5428,-0.541,-2.051,-1.98,-2.0216,-1.9876,-1.9083,-1.9443,-1.9584,-1.965,-2.0125,-2.0069,-1.9892,-2.04,-2.0344,-1.9696,-1.9577,-1.9295,-1.9053,-1.9163,-1.9191,-1.9145,-1.9368,-1.9315,-1.896,-1.9688,-1.9875,-1.9573,-1.9662,-1.9508,-1.9145,-1.9181,-1.87,-1.7963,-1.8252,-1.804,-1.7229,-1.6976,-1.6934,-1.6905,-1.6392,-1.6188,-1.6479,-1.6337,-1.625,-1.6293,-1.6132,-1.5913,-1.5792,-1.5792,-1.5792,-1.5792,-1.5792,-1.5792,-1.5828,-1.5934,-1.5742,-1.521,-1.5131,-1.5046,-1.4862,-1.4996,-1.5014,-1.4785,-1.513,-1.5241,-1.501,-1.5049,-1.5137,-1.5205,-1.5293,-1.5215,-1.5078,-1.5049,-1.5127,-1.5195,-1.5312,-1.5361,-1.508,-1.4505,-1.385,-1.3242,-1.1806,-1.0647,-1.1175,-1.1336,-1.1209,-1.0879,-1.0668,-1.0458,-1.0243,-1.0087,-1.0024,-0.991,-0.9714,-0.9486,-0.9405,-0.8991,-0.8699,-0.8315,-0.7937,-0.7365,-0.6613,-0.6253,-0.5637,-0.5221,-0.4987,-0.4992,-0.5192,-0.525,-0.5281,-0.5222,-0.5288,-0.5422,-0.5428,-0.5449,-0.5471,-2.1081,-1.9938,-2.0472,-2.0267,-1.9587,-2.007,-2.0362,-2.0467,-2.0893,-2.0744,-2.0431,-2.0989,-2.0763,-2.0015,-2.005,-1.9904,-1.9501,-1.9354,-1.9367,-1.9473,-1.9924,-1.9957,-1.987,-2.0443,-2.0686,-2.048,-2.0625,-2.0277,-1.9484,-1.9585,-1.9013,-1.7949,-1.8475,-1.8358,-1.7571,-1.731,-1.7212,-1.7073,-1.6565,-1.6436,-1.6637,-1.6509,-1.6522,-1.6595,-1.6219,-1.5913,-1.5792,-1.5792,-1.5792,-1.5816,-1.5948,-1.6128,-1.632,-1.6444,-1.6203,-1.5713,-1.5658,-1.5563,-1.5245,-1.5255,-1.5226,-1.517,-1.5417,-1.5536,-1.542,-1.542,-1.542,-1.542,-1.542,-1.542,-1.542,-1.541,-1.542,-1.542,-1.542,-1.542,-1.5342,-1.4571,-1.3816,-1.3021,-1.1573,-1.0901,-1.1333,-1.1571,-1.1505,-1.1245,-1.1026,-1.0894,-1.0668,-1.0574,-1.0515,-1.034,-1.0054,-0.9768,-0.9458,-0.9041,-0.8588,-0.8153,-0.7772,-0.7062,-0.6505,-0.6129,-0.5797,-0.5369,-0.5258,-0.526,-0.5349,-0.5408,-0.5325,-0.5227,-0.5321,-0.5425,-0.5449,-0.5483,-0.5549,-2.0751,-2.0225,-2.1109,-2.1212,-2.079,-2.1349,-2.1886,-2.1956,-2.1828,-2.1456,-2.1133,-2.1309,-2.0893,-2.0292,-2.0285,-2.0056,-1.97,-1.9531,-1.9683,-2.006,-2.0215,-2.048,-2.0828,-2.0705,-2.0748,-2.093,-2.1583,-2.1178,-1.9926,-2.0301,-1.9693,-1.8367,-1.8425,-1.8333,-1.7801,-1.7352,-1.7157,-1.7157,-1.7018,-1.7031,-1.7199,-1.7031,-1.6989,-1.7018,-1.6306,-1.5836,-1.5792,-1.5792,-1.5816,-1.59,-1.6284,-1.6811,-1.7207,-1.7339,-1.691,-1.6165,-1.623,-1.589,-1.5103,-1.5261,-1.5409,-1.5409,-1.541,-1.542,-1.542,-1.542,-1.542,-1.542,-1.542,-1.542,-1.542,-1.542,-1.542,-1.542,-1.542,-1.542,-1.5294,-1.4815,-1.3965,-1.2813,-1.1844,-1.1571,-1.1615,-1.1622,-1.1586,-1.1564,-1.152,-1.1417,-1.1136,-1.1025,-1.0845,-1.0615,-1.0345,-1.0112,-0.949,-0.8902,-0.8475,-0.804,-0.765,-0.712,-0.6573,-0.6122,-0.5904,-0.5557,-0.5389,-0.5448,-0.5377,-0.5428,-0.5428,-0.5336,-0.5422,-0.5399,-0.5477,-0.5552,-0.5677,-2.1982,-2.096,-2.2101,-2.2181,-2.1622,-2.1939,-2.2124,-2.2164,-2.1928,-2.1617,-2.1371,-2.1556,-2.1103,-2.0571,-2.0864,-2.0916,-2.0356,-2.019,-2.018,-2.0362,-2.1,-2.122,-2.1119,-2.1367,-2.1323,-2.109,-2.1191,-2.0915,-2.0266,-2.0186,-1.9435,-1.8337,-1.8175,-1.8068,-1.7814,-1.7102,-1.6863,-1.7115,-1.6552,-1.6522,-1.706,-1.6565,-1.6522,-1.7031,-1.6306,-1.5792,-1.5792,-1.5792,-1.5972,-1.6308,-1.6488,-1.6823,-1.7364,-1.776,-1.7639,-1.706,-1.7055,-1.6829,-1.6259,-1.5803,-1.5604,-1.5604,-1.5488,-1.542,-1.542,-1.542,-1.542,-1.542,-1.542,-1.542,-1.542,-1.542,-1.543,-1.542,-1.542,-1.541,-1.5235,-1.4213,-1.3321,-1.2834,-1.2112,-1.1622,-1.1622,-1.1622,-1.1622,-1.1622,-1.1622,-1.1549,-1.1428,-1.1377,-1.1352,-1.1261,-1.0861,-1.0336,-0.9655,-0.8962,-0.8376,-0.7791,-0.7279,-0.703,-0.6537,-0.6199,-0.6033,-0.578,-0.5607,-0.5487,-0.5411,-0.5428,-0.5428,-0.5442,-0.5456,-0.5481,-0.554,-0.5647,-0.5745,-2.2464,-2.1676,-2.2353,-2.2429,-2.2066,-2.2167,-2.2275,-2.2371,-2.2258,-2.2104,-2.195,-2.212,-2.1859,-2.1403,-2.1572,-2.1487,-2.1128,-2.1198,-2.1173,-2.1002,-2.1333,-2.1655,-2.1685,-2.212,-2.2164,-2.1801,-2.1714,-2.1352,-2.0746,-2.0536,-2.003,-1.9167,-1.892,-1.8727,-1.8371,-1.771,-1.7392,-1.7167,-1.6637,-1.6607,-1.6947,-1.6436,-1.6436,-1.6934,-1.6306,-1.5836,-1.5804,-1.5972,-1.6236,-1.6596,-1.6967,-1.746,-1.7953,-1.8326,-1.8223,-1.7585,-1.7345,-1.7045,-1.6467,-1.5826,-1.5604,-1.5546,-1.5478,-1.542,-1.542,-1.542,-1.542,-1.542,-1.5625,-1.5644,-1.5478,-1.5644,-1.5635,-1.542,-1.542,-1.5294,-1.4942,-1.3923,-1.3147,-1.2781,-1.2112,-1.1685,-1.1622,-1.1622,-1.1622,-1.1622,-1.1622,-1.1622,-1.1622,-1.1615,-1.156,-1.1498,-1.1183,-1.0524,-0.9748,-0.9046,-0.8334,-0.758,-0.6913,-0.67,-0.6362,-0.6273,-0.6145,-0.5895,-0.569,-0.5575,-0.55,-0.5449,-0.5432,-0.5456,-0.5538,-0.5603,-0.5668,-0.5731,-0.5822,-2.2339,-2.2264,-2.2094,-2.2299,-2.2495,-2.2444,-2.2624,-2.2863,-2.2916,-2.294,-2.2957,-2.2957,-2.2932,-2.2796,-2.2299,-2.2009,-2.1946,-2.2178,-2.231,-2.2081,-2.1838,-2.1784,-2.2483,-2.2584,-2.254,-2.2598,-2.2613,-2.2322,-2.1657,-2.1499,-2.1211,-2.0373,-2.0119,-2.0034,-1.935,-1.9002,-1.8142,-1.7555,-1.7258,-1.719,-1.7326,-1.6739,-1.682,-1.7271,-1.6368,-1.5864,-1.6092,-1.65,-1.6727,-1.6859,-1.77,-1.8374,-1.8843,-1.8987,-1.8489,-1.7544,-1.7313,-1.6719,-1.5999,-1.5662,-1.5468,-1.5468,-1.5468,-1.5449,-1.5518,-1.5557,-1.5537,-1.5547,-1.5859,-1.5937,-1.5664,-1.5898,-1.5957,-1.5605,-1.5498,-1.5196,-1.4647,-1.3992,-1.3511,-1.2964,-1.2228,-1.1622,-1.1622,-1.1622,-1.1622,-1.1622,-1.1622,-1.1622,-1.1622,-1.156,-1.149,-1.1373,-1.1254,-1.0681,-0.9913,-0.9128,-0.8415,-0.7488,-0.6841,-0.6573,-0.6371,-0.6343,-0.6237,-0.599,-0.5844,-0.5723,-0.563,-0.5528,-0.5566,-0.5586,-0.5681,-0.5708,-0.5788,-0.5865,-0.601,-2.2839,-2.2375,-2.286,-2.3465,-2.3963,-2.365,-2.376,-2.4213,-2.39,-2.375,-2.3702,-2.3702,-2.3555,-2.3377,-2.3306,-2.3132,-2.2906,-2.2701,-2.284,-2.2906,-2.2319,-2.2059,-2.2222,-2.2265,-2.228,-2.2309,-2.2367,-2.2164,-2.1961,-2.1771,-2.1297,-2.0628,-2.0283,-2.0028,-1.9935,-1.8979,-1.8434,-1.8304,-1.7613,-1.7683,-1.8118,-1.7152,-1.7247,-1.8183,-1.6752,-1.6293,-1.6931,-1.7508,-1.7784,-1.7832,-1.8398,-1.8843,-1.8975,-1.8999,-1.8602,-1.7831,-1.7435,-1.6944,-1.6171,-1.573,-1.5604,-1.5575,-1.5517,-1.5605,-1.6025,-1.5957,-1.5968,-1.5859,-1.5811,-1.5771,-1.5889,-1.6133,-1.625,-1.6318,-1.585,-1.543,-1.5176,-1.4647,-1.3992,-1.339,-1.2712,-1.215,-1.1747,-1.1667,-1.1652,-1.1637,-1.1645,-1.163,-1.1637,-1.156,-1.156,-1.1435,-1.1254,-1.0744,-1.0098,-0.932,-0.8415,-0.7456,-0.685,-0.658,-0.6445,-0.6392,-0.6272,-0.6145,-0.5993,-0.5877,-0.5786,-0.5797,-0.5821,-0.5789,-0.5861,-0.5942,-0.5959,-0.5964,-0.6176,-2.4293,-2.3766,-2.3945,-2.4462,-2.4995,-2.4252,-2.4112,-2.4437,-2.4553,-2.4331,-2.4099,-2.4,-2.4164,-2.4376,-2.3697,-2.3537,-2.3665,-2.3266,-2.3152,-2.3171,-2.2746,-2.2498,-2.241,-2.2396,-2.2396,-2.2396,-2.241,-2.2366,-2.2337,-2.2116,-2.1798,-2.1465,-2.0983,-2.0768,-2.0707,-1.9772,-1.9006,-1.8787,-1.8071,-1.8004,-1.8418,-1.7538,-1.7585,-1.8168,-1.7159,-1.6931,-1.7676,-1.8037,-1.8277,-1.8518,-1.8819,-1.8987,-1.8987,-1.8987,-1.8655,-1.7995,-1.7545,-1.6989,-1.64,-1.5894,-1.5693,-1.5822,-1.5743,-1.5947,-1.6328,-1.6387,-1.6348,-1.6318,-1.624,-1.6289,-1.6309,-1.6426,-1.6543,-1.6602,-1.6269,-1.5906,-1.5967,-1.544,-1.486,-1.4291,-1.3504,-1.2641,-1.1774,-1.1858,-1.1843,-1.174,-1.1714,-1.1655,-1.1597,-1.1589,-1.1641,-1.165,-1.1368,-1.091,-1.0213,-0.9432,-0.8354,-0.7377,-0.6888,-0.661,-0.6539,-0.6473,-0.6422,-0.6325,-0.6218,-0.6102,-0.6039,-0.5987,-0.5964,-0.5983,-0.604,-0.6091,-0.609,-0.615,-0.6295,-2.5865,-2.5515,-2.4855,-2.4998,-2.5387,-2.4436,-2.4116,-2.4333,-2.4871,-2.488,-2.4514,-2.4265,-2.4771,-2.5603,-2.3941,-2.3514,-2.4389,-2.3719,-2.3391,-2.326,-2.3082,-2.2991,-2.2801,-2.2991,-2.2947,-2.2888,-2.2975,-2.3016,-2.2956,-2.2761,-2.2609,-2.2374,-2.2235,-2.1861,-2.1366,-2.0763,-2.0059,-1.939,-1.8708,-1.8497,-1.8551,-1.7982,-1.7934,-1.8348,-1.7995,-1.7772,-1.8157,-1.835,-1.8506,-1.8963,-1.8987,-1.8987,-1.8987,-1.8987,-1.8774,-1.8267,-1.76,-1.7011,-1.6644,-1.6024,-1.5723,-1.6037,-1.6154,-1.6367,-1.6777,-1.6865,-1.6797,-1.6807,-1.7158,-1.7051,-1.6865,-1.6807,-1.6894,-1.6953,-1.6875,-1.6807,-1.6709,-1.6258,-1.5773,-1.5513,-1.4545,-1.326,-1.2435,-1.2109,-1.235,-1.2314,-1.2197,-1.1992,-1.1933,-1.1919,-1.1984,-1.2065,-1.1646,-1.1104,-1.0399,-0.9622,-0.8393,-0.7318,-0.6916,-0.6662,-0.665,-0.6587,-0.6535,-0.6458,-0.646,-0.6358,-0.6226,-0.6191,-0.6228,-0.6132,-0.6162,-0.6207,-0.6257,-0.6302,-0.6359,-2.4771,-2.3981,-2.3815,-2.4212,-2.4764,-2.4279,-2.4629,-2.5616,-2.5358,-2.5447,-2.5627,-2.5343,-2.5504,-2.599,-2.4546,-2.43,-2.4592,-2.3909,-2.3378,-2.3185,-2.3591,-2.3339,-2.3149,-2.3455,-2.3426,-2.3279,-2.396,-2.4076,-2.3725,-2.3406,-2.3298,-2.3193,-2.2677,-2.2128,-2.1941,-2.1481,-2.1084,-2.0677,-1.9874,-1.9549,-1.9495,-1.8659,-1.8458,-1.9158,-1.8824,-1.8714,-1.8782,-1.8819,-1.8879,-1.8951,-1.8987,-1.8987,-1.8987,-1.8987,-1.8774,-1.829,-1.7634,-1.7151,-1.6942,-1.6387,-1.6066,-1.626,-1.6514,-1.6914,-1.7627,-1.7393,-1.7275,-1.7256,-1.7324,-1.7363,-1.7275,-1.7246,-1.7363,-1.75,-1.7412,-1.7353,-1.7463,-1.7019,-1.6596,-1.6376,-1.5366,-1.4055,-1.3152,-1.2592,-1.2723,-1.2884,-1.2723,-1.2431,-1.2306,-1.2226,-1.2306,-1.238,-1.2071,-1.1539,-1.0756,-0.9829,-0.8518,-0.7528,-0.7017,-0.6822,-0.6806,-0.6749,-0.6716,-0.6746,-0.6809,-0.6683,-0.6596,-0.6475,-0.6499,-0.6391,-0.6264,-0.6278,-0.6302,-0.6356,-0.6441,-2.5887,-2.5183,-2.4426,-2.4569,-2.5116,-2.4752,-2.4941,-2.5579,-2.578,-2.5763,-2.5642,-2.5252,-2.5464,-2.6046,-2.4634,-2.4135,-2.4536,-2.3852,-2.329,-2.3273,-2.3603,-2.3688,-2.3717,-2.4181,-2.4355,-2.3717,-2.4278,-2.451,-2.4221,-2.4052,-2.3906,-2.3794,-2.3279,-2.2929,-2.2684,-2.2331,-2.1773,-2.1019,-2.0523,-2.022,-2.001,-1.9221,-1.8754,-1.9282,-1.9146,-1.8987,-1.8975,-1.8987,-1.8987,-1.8987,-1.8987,-1.8987,-1.8987,-1.8987,-1.8721,-1.8224,-1.7857,-1.7388,-1.7082,-1.6688,-1.6494,-1.6777,-1.6953,-1.7373,-1.7803,-1.7783,-1.7705,-1.7676,-1.7676,-1.7676,-1.7686,-1.7676,-1.7822,-1.7891,-1.7812,-1.7783,-1.7871,-1.7598,-1.7373,-1.7216,-1.6062,-1.4755,-1.3823,-1.3234,-1.2899,-1.298,-1.298,-1.2701,-1.246,-1.2416,-1.257,-1.2621,-1.2473,-1.2009,-1.1142,-1.0055,-0.868,-0.7815,-0.7187,-0.7155,-0.7155,-0.707,-0.6989,-0.7017,-0.7032,-0.7096,-0.6942,-0.69,-0.6651,-0.6433,-0.6291,-0.6305,-0.6359,-0.6454,-0.6546,-2.7137,-2.6548,-2.5183,-2.4998,-2.545,-2.5049,-2.4837,-2.4954,-2.5629,-2.5529,-2.5176,-2.4642,-2.5025,-2.5489,-2.4163,-2.3931,-2.4158,-2.3852,-2.3246,-2.317,-2.3851,-2.3934,-2.4152,-2.495,-2.5328,-2.4355,-2.4965,-2.5034,-2.4769,-2.4612,-2.4511,-2.4281,-2.4089,-2.3723,-2.3336,-2.3294,-2.2709,-2.1478,-2.1147,-2.0731,-2.0238,-1.9655,-1.9402,-1.9414,-1.91,-1.9107,-1.9119,-1.9071,-1.8987,-1.8987,-1.8987,-1.8987,-1.8987,-1.8987,-1.878,-1.8262,-1.8035,-1.7718,-1.7367,-1.7036,-1.7012,-1.7432,-1.748,-1.7627,-1.791,-1.7978,-1.7949,-1.7959,-1.7949,-1.7949,-1.8008,-1.7949,-1.7959,-1.8008,-1.8008,-1.8008,-1.8008,-1.8008,-1.7939,-1.7716,-1.6491,-1.5072,-1.4283,-1.3633,-1.3263,-1.306,-1.306,-1.3001,-1.276,-1.2687,-1.287,-1.2987,-1.2866,-1.2641,-1.181,-0.9924,-0.8646,-0.8148,-0.7495,-0.7393,-0.7452,-0.7468,-0.7387,-0.7182,-0.723,-0.7219,-0.7179,-0.6996,-0.6732,-0.6447,-0.6434,-0.6413,-0.6485,-0.6563,-0.6658,-2.5186,-2.4257,-2.3988,-2.3965,-2.4073,-2.412,-2.4257,-2.4182,-2.4585,-2.478,-2.5095,-2.4374,-2.4644,-2.5045,-2.422,-2.3691,-2.3724,-2.3466,-2.3334,-2.3374,-2.4112,-2.4486,-2.4471,-2.5676,-2.6068,-2.5865,-2.5995,-2.5951,-2.5494,-2.5306,-2.5137,-2.4935,-2.4455,-2.4103,-2.3983,-2.3895,-2.3472,-2.2364,-2.1995,-2.1533,-2.0989,-2.056,-2.0213,-2.0117,-1.954,-1.9372,-1.948,-1.9239,-1.8987,-1.8987,-1.8999,-1.9023,-1.9071,-1.9071,-1.8885,-1.8565,-1.8187,-1.7882,-1.7791,-1.7511,-1.7566,-1.7783,-1.7861,-1.7871,-1.7988,-1.8008,-1.8008,-1.8008,-1.8008,-1.8008,-1.8008,-1.8008,-1.8008,-1.8008,-1.8008,-1.8008,-1.8008,-1.8008,-1.8008,-1.7862,-1.6664,-1.5534,-1.4768,-1.3992,-1.3454,-1.3279,-1.3279,-1.3287,-1.3184,-1.3162,-1.3279,-1.3353,-1.3389,-1.302,-1.259,-1.0244,-0.8529,-0.8463,-0.804,-0.761,-0.7671,-0.7833,-0.7805,-0.7598,-0.7407,-0.7427,-0.7293,-0.7142,-0.6954,-0.6637,-0.6628,-0.6627,-0.6593,-0.6664,-0.6797,-2.5436,-2.4382,-2.4382,-2.4271,-2.4236,-2.4839,-2.4994,-2.4885,-2.5078,-2.5394,-2.5365,-2.4847,-2.4748,-2.5003,-2.4142,-2.3566,-2.3569,-2.3718,-2.3671,-2.3902,-2.4709,-2.5197,-2.4907,-2.6228,-2.6489,-2.6445,-2.6605,-2.6529,-2.6017,-2.5897,-2.5735,-2.5508,-2.5173,-2.4868,-2.4601,-2.4545,-2.3854,-2.2991,-2.2469,-2.201,-2.1469,-2.1112,-2.0911,-2.0502,-2.0189,-2.0021,-2.0069,-1.9997,-1.9672,-1.9528,-1.9684,-1.9636,-1.9443,-1.925,-1.8975,-1.8438,-1.8213,-1.7978,-1.792,-1.7681,-1.7812,-1.7949,-1.8008,-1.8008,-1.8008,-1.8008,-1.794,-1.7862,-1.793,-1.793,-1.7852,-1.794,-1.8008,-1.8008,-1.8008,-1.8008,-1.8008,-1.8008,-1.8018,-1.7891,-1.6718,-1.5797,-1.5321,-1.4553,-1.3775,-1.3492,-1.3492,-1.3492,-1.3492,-1.3492,-1.3492,-1.3484,-1.3404,-1.3039,-1.2599,-1.0875,-0.9128,-0.8865,-0.8476,-0.8111,-0.7893,-0.802,-0.802,-0.7821,-0.7752,-0.7672,-0.7612,-0.7478,-0.7194,-0.6939,-0.7026,-0.7049,-0.6822,-0.6773,-0.6909,-2.57,-2.4773,-2.4892,-2.4692,-2.4506,-2.5446,-2.5554,-2.5319,-2.548,-2.5723,-2.5865,-2.5121,-2.4853,-2.4957,-2.4297,-2.3641,-2.3718,-2.4072,-2.4114,-2.4268,-2.5209,-2.5734,-2.5923,-2.6257,-2.6576,-2.6678,-2.6489,-2.6505,-2.6308,-2.6201,-2.6136,-2.5918,-2.5851,-2.5697,-2.5247,-2.5163,-2.4054,-2.3325,-2.2662,-2.2318,-2.1726,-2.1428,-2.1296,-2.0899,-2.0742,-2.0622,-2.0742,-2.0538,-2.0286,-2.0153,-2.0249,-2.0325,-1.9811,-1.9552,-1.897,-1.8186,-1.8197,-1.7965,-1.7787,-1.7764,-1.7959,-1.8008,-1.8008,-1.8008,-1.8008,-1.8008,-1.794,-1.7852,-1.7725,-1.7862,-1.7862,-1.7862,-1.794,-1.8008,-1.8008,-1.8018,-1.8047,-1.8076,-1.8115,-1.7634,-1.6659,-1.6086,-1.5635,-1.4474,-1.3557,-1.3492,-1.3492,-1.3492,-1.3492,-1.3492,-1.3492,-1.3411,-1.3266,-1.2886,-1.2291,-1.1477,-1.0225,-0.9658,-0.9056,-0.8462,-0.8307,-0.8237,-0.8172,-0.8168,-0.8122,-0.8109,-0.8008,-0.7837,-0.7569,-0.7359,-0.7486,-0.7346,-0.6953,-0.6892,-0.7027,-2.4357,-2.4013,-2.4472,-2.4248,-2.3827,-2.4629,-2.4538,-2.3986,-2.4392,-2.4713,-2.5304,-2.4473,-2.4428,-2.4657,-2.4109,-2.3984,-2.4268,-2.4443,-2.4437,-2.4564,-2.5413,-2.585,-2.5778,-2.5821,-2.6286,-2.6504,-2.6184,-2.6145,-2.6265,-2.6286,-2.6165,-2.5948,-2.5893,-2.5823,-2.5697,-2.542,-2.5411,-2.4622,-2.3945,-2.3124,-2.2214,-2.1656,-2.1656,-2.162,-2.1247,-2.0923,-2.1211,-2.1007,-2.067,-2.0586,-2.0586,-2.0297,-1.9678,-1.9404,-1.8942,-1.8501,-1.8243,-1.8177,-1.7957,-1.7959,-1.8008,-1.8008,-1.8008,-1.8008,-1.8008,-1.794,-1.794,-1.794,-1.7676,-1.7608,-1.7803,-1.7813,-1.7872,-1.8018,-1.8105,-1.8076,-1.8144,-1.8397,-1.8397,-1.8197,-1.7565,-1.6679,-1.6002,-1.4656,-1.3492,-1.3492,-1.3499,-1.3521,-1.3572,-1.3638,-1.3631,-1.3586,-1.3491,-1.31,-1.2601,-1.1752,-1.13,-1.059,-0.9805,-0.9057,-0.8859,-0.873,-0.8512,-0.8496,-0.8521,-0.8357,-0.8182,-0.7967,-0.7789,-0.7707,-0.774,-0.7361,-0.6929,-0.7014,-0.7122,-2.452,-2.4014,-2.4405,-2.4331,-2.3992,-2.4555,-2.4709,-2.4585,-2.4645,-2.4926,-2.5167,-2.4729,-2.4561,-2.4648,-2.4267,-2.4507,-2.4982,-2.518,-2.5291,-2.5253,-2.5879,-2.6126,-2.585,-2.5792,-2.6025,-2.6112,-2.5988,-2.6058,-2.6193,-2.6286,-2.6165,-2.5948,-2.5893,-2.5893,-2.5728,-2.5149,-2.4762,-2.4121,-2.3492,-2.275,-2.231,-2.2005,-2.1957,-2.2173,-2.1716,-2.1668,-2.1692,-2.168,-2.1332,-2.1235,-2.1296,-2.0961,-2.019,-1.9798,-1.9404,-1.8678,-1.8304,-1.8091,-1.7969,-1.793,-1.794,-1.794,-1.794,-1.7852,-1.7862,-1.7794,-1.7735,-1.7676,-1.7598,-1.7617,-1.7772,-1.7975,-1.8132,-1.8209,-1.8305,-1.8543,-1.8592,-1.8686,-1.8769,-1.8562,-1.8345,-1.7433,-1.6603,-1.5634,-1.45,-1.3799,-1.3903,-1.394,-1.4021,-1.404,-1.3989,-1.3916,-1.3722,-1.3447,-1.2955,-1.2298,-1.2317,-1.1732,-1.0795,-1.0146,-0.9604,-0.9356,-0.9078,-0.8807,-0.8603,-0.8422,-0.8312,-0.8251,-0.8225,-0.8001,-0.7865,-0.748,-0.7104,-0.7048,-0.7136,-2.4959,-2.4424,-2.4495,-2.4279,-2.3981,-2.4315,-2.4652,-2.4978,-2.4679,-2.4957,-2.5287,-2.4958,-2.4702,-2.4792,-2.4762,-2.4955,-2.5711,-2.6086,-2.5982,-2.6103,-2.6331,-2.6366,-2.5945,-2.5691,-2.572,-2.5981,-2.5633,-2.5842,-2.6218,-2.6272,-2.6179,-2.5893,-2.5674,-2.5674,-2.537,-2.4721,-2.4063,-2.3761,-2.3053,-2.2482,-2.2235,-2.2185,-2.2258,-2.2318,-2.2282,-2.2258,-2.2354,-2.2173,-2.1897,-2.1789,-2.1616,-2.116,-2.0301,-1.977,-1.9225,-1.8506,-1.8055,-1.7949,-1.792,-1.7862,-1.7862,-1.7862,-1.7794,-1.7647,-1.7716,-1.7647,-1.7684,-1.7789,-1.791,-1.79,-1.7919,-1.8256,-1.8333,-1.8476,-1.8682,-1.8908,-1.918,-1.9174,-1.9213,-1.9203,-1.889,-1.823,-1.7438,-1.6707,-1.5695,-1.4485,-1.4227,-1.4355,-1.4359,-1.4384,-1.4234,-1.4132,-1.3858,-1.369,-1.3381,-1.2994,-1.2987,-1.2749,-1.1867,-1.1286,-1.0847,-1.0098,-0.9502,-0.9126,-0.8819,-0.8528,-0.8438,-0.8507,-0.8568,-0.8189,-0.7819,-0.7658,-0.7394,-0.7231,-0.7139,-2.525,-2.5155,-2.4515,-2.3882,-2.3288,-2.338,-2.3809,-2.4411,-2.3692,-2.4248,-2.5164,-2.471,-2.4661,-2.5167,-2.5061,-2.5405,-2.6527,-2.644,-2.6086,-2.5982,-2.6264,-2.6287,-2.5799,-2.54,-2.5473,-2.6126,-2.5633,-2.5647,-2.6199,-2.6204,-2.6111,-2.5893,-2.5453,-2.5174,-2.4851,-2.4319,-2.3632,-2.3267,-2.2871,-2.2641,-2.2357,-2.2282,-2.2426,-2.2727,-2.2522,-2.239,-2.2847,-2.2462,-2.2246,-2.2125,-2.1647,-2.1008,-2.018,-1.9518,-1.8812,-1.8154,-1.7959,-1.786,-1.7898,-1.7861,-1.7862,-1.7716,-1.7579,-1.752,-1.7647,-1.7617,-1.7719,-1.8104,-1.818,-1.8373,-1.8458,-1.8507,-1.8488,-1.8665,-1.8862,-1.906,-1.9249,-1.9439,-1.9543,-1.9769,-1.9393,-1.8766,-1.7979,-1.7195,-1.607,-1.4821,-1.4457,-1.458,-1.4653,-1.4648,-1.4424,-1.4281,-1.4016,-1.3894,-1.3794,-1.3669,-1.3418,-1.3339,-1.2839,-1.2504,-1.224,-1.1353,-1.0393,-0.9561,-0.9257,-0.8915,-0.8572,-0.8572,-0.848,-0.8124,-0.7856,-0.7768,-0.7499,-0.7231,-0.7139,-2.6136,-2.6454,-2.5064,-2.4184,-2.3771,-2.35,-2.3947,-2.4745,-2.4594,-2.4377,-2.4477,-2.3773,-2.3947,-2.4732,-2.5375,-2.5959,-2.7006,-2.6604,-2.6382,-2.6356,-2.6396,-2.5958,-2.5334,-2.5096,-2.5061,-2.5473,-2.5139,-2.5394,-2.6265,-2.6014,-2.5591,-2.5328,-2.5061,-2.5061,-2.4708,-2.3917,-2.322,-2.2763,-2.2629,-2.253,-2.2708,-2.2378,-2.2594,-2.3352,-2.2558,-2.2714,-2.3171,-2.2582,-2.251,-2.2357,-2.173,-2.0848,-1.9976,-1.9241,-1.8557,-1.7922,-1.7862,-1.7957,-1.8085,-1.8014,-1.7725,-1.7598,-1.7461,-1.7401,-1.7586,-1.7745,-1.7925,-1.8137,-1.8293,-1.8518,-1.8508,-1.8471,-1.8601,-1.8816,-1.9013,-1.9202,-1.9363,-1.9544,-1.9659,-1.9784,-1.9744,-1.9418,-1.8514,-1.7658,-1.6389,-1.5165,-1.4976,-1.4809,-1.4882,-1.494,-1.4735,-1.456,-1.4296,-1.4095,-1.3981,-1.3953,-1.3821,-1.3721,-1.3626,-1.3328,-1.3027,-1.2601,-1.1643,-1.0631,-0.9694,-0.9275,-0.902,-0.8748,-0.8504,-0.8367,-0.8255,-0.8124,-0.7768,-0.7231,-0.7228,-2.6457,-2.7115,-2.5272,-2.4527,-2.4497,-2.4047,-2.4315,-2.4963,-2.4813,-2.4395,-2.3662,-2.3193,-2.3684,-2.4777,-2.5375,-2.6318,-2.7126,-2.7021,-2.6811,-2.6695,-2.6396,-2.5739,-2.5188,-2.4921,-2.4959,-2.4994,-2.4945,-2.5315,-2.6,-2.5632,-2.5189,-2.4865,-2.4523,-2.435,-2.4105,-2.3458,-2.258,-2.2309,-2.2234,-2.233,-2.263,-2.2618,-2.2642,-2.3376,-2.2811,-2.2823,-2.3171,-2.2859,-2.2606,-2.2226,-2.1601,-2.0632,-1.9841,-1.9032,-1.8327,-1.8038,-1.7909,-1.8165,-1.8237,-1.8128,-1.7703,-1.742,-1.7245,-1.732,-1.7596,-1.7924,-1.8093,-1.8422,-1.849,-1.8534,-1.8666,-1.8755,-1.8874,-1.9081,-1.9164,-1.9334,-1.9431,-1.9584,-1.969,-1.9788,-1.9706,-1.9618,-1.8336,-1.7383,-1.6308,-1.5286,-1.5205,-1.5131,-1.5189,-1.5158,-1.5105,-1.4849,-1.4601,-1.4413,-1.4153,-1.4085,-1.3941,-1.3968,-1.386,-1.3704,-1.3385,-1.3045,-1.2619,-1.1682,-1.0661,-0.9814,-0.9292,-0.9016,-0.8827,-0.8739,-0.8492,-0.8228,-0.7944,-0.7588,-0.7492,-2.5986,-2.7073,-2.5134,-2.4682,-2.5337,-2.5079,-2.4881,-2.4788,-2.4076,-2.3531,-2.328,-2.3345,-2.4133,-2.5181,-2.5495,-2.6467,-2.7305,-2.7274,-2.695,-2.6474,-2.6513,-2.5988,-2.5261,-2.4834,-2.495,-2.5429,-2.5235,-2.512,-2.5535,-2.5315,-2.4937,-2.4116,-2.3482,-2.3204,-2.3075,-2.2531,-2.2247,-2.2197,-2.2197,-2.2258,-2.245,-2.2666,-2.2847,-2.3147,-2.2955,-2.2919,-2.3171,-2.2903,-2.2564,-2.2155,-2.0893,-2.0084,-1.9656,-1.8311,-1.7746,-1.7921,-1.7875,-1.7856,-1.7819,-1.7986,-1.7807,-1.7479,-1.7404,-1.738,-1.7754,-1.8015,-1.8368,-1.8667,-1.8997,-1.9109,-1.921,-1.9219,-1.9201,-1.9289,-1.9362,-1.939,-1.9469,-1.9627,-1.9636,-1.9636,-1.9706,-1.946,-1.8167,-1.696,-1.5997,-1.5387,-1.5416,-1.5431,-1.5431,-1.5347,-1.5257,-1.4999,-1.4741,-1.4496,-1.425,-1.4173,-1.4068,-1.4088,-1.4082,-1.3913,-1.3737,-1.3392,-1.2973,-1.2386,-1.1788,-1.0911,-1.005,-0.9279,-0.9093,-0.8885,-0.8484,-0.8155,-0.7959,-0.7852,-0.776,-2.6123,-2.7663,-2.5602,-2.5446,-2.6398,-2.5737,-2.5413,-2.517,-2.4053,-2.3101,-2.2816,-2.3281,-2.3744,-2.4507,-2.5734,-2.6662,-2.7365,-2.6872,-2.6396,-2.6312,-2.6367,-2.5418,-2.4675,-2.4583,-2.4684,-2.4646,-2.4549,-2.4646,-2.4803,-2.4762,-2.3993,-2.3116,-2.2571,-2.2201,-2.2372,-2.2247,-2.2197,-2.2197,-2.2234,-2.2342,-2.2642,-2.2618,-2.2787,-2.334,-2.2895,-2.2883,-2.3179,-2.2779,-2.2178,-2.176,-2.0479,-1.9691,-1.9301,-1.8046,-1.7944,-1.8156,-1.8175,-1.7843,-1.7759,-1.78,-1.7965,-1.7821,-1.7759,-1.7723,-1.8128,-1.8369,-1.8646,-1.8954,-1.916,-1.9256,-1.9274,-1.9265,-1.9256,-1.9265,-1.9301,-1.9301,-1.9381,-1.9548,-1.9636,-1.9548,-1.9548,-1.8816,-1.7764,-1.664,-1.5673,-1.5431,-1.5431,-1.5431,-1.5431,-1.5347,-1.5257,-1.4992,-1.4741,-1.4496,-1.4334,-1.4166,-1.4088,-1.4088,-1.4088,-1.4082,-1.3828,-1.3652,-1.342,-1.2972,-1.247,-1.1943,-1.1117,-1.0276,-0.946,-0.8996,-0.8625,-0.8336,-0.8128,-0.8028,-0.7848,-2.5643,-2.704,-2.5446,-2.5544,-2.6605,-2.6158,-2.5832,-2.5362,-2.4044,-2.3132,-2.296,-2.3408,-2.3969,-2.4612,-2.5585,-2.6826,-2.744,-2.6985,-2.6663,-2.6503,-2.6067,-2.5177,-2.4494,-2.4095,-2.3942,-2.3849,-2.39,-2.4066,-2.42,-2.4138,-2.3431,-2.2558,-2.1885,-2.2043,-2.2199,-2.2197,-2.2197,-2.2197,-2.2221,-2.2318,-2.2522,-2.2618,-2.2714,-2.2919,-2.2859,-2.2775,-2.2691,-2.2232,-2.14,-2.1005,-2.021,-1.9206,-1.8705,-1.8266,-1.8064,-1.821,-1.8284,-1.7972,-1.788,-1.7604,-1.7842,-1.8138,-1.8073,-1.8064,-1.8286,-1.8497,-1.8791,-1.904,-1.9243,-1.9246,-1.9292,-1.9292,-1.9292,-1.9292,-1.9292,-1.9292,-1.9292,-1.9469,-1.9469,-1.9381,-1.8984,-1.8167,-1.7359,-1.6402,-1.5431,-1.5431,-1.5431,-1.5431,-1.5347,-1.5347,-1.5173,-1.4908,-1.465,-1.4489,-1.425,-1.4173,-1.4088,-1.4088,-1.4088,-1.4088,-1.4088,-1.3919,-1.3748,-1.3573,-1.3169,-1.2652,-1.2191,-1.1413,-1.0248,-0.9345,-0.8907,-0.8609,-0.8392,-0.8208,-0.8116,-2.4586,-2.5551,-2.4609,-2.4923,-2.6014,-2.6217,-2.5898,-2.5089,-2.4044,-2.3548,-2.3505,-2.3563,-2.4148,-2.5211,-2.56,-2.6318,-2.7195,-2.7062,-2.685,-2.6681,-2.601,-2.5006,-2.4092,-2.3456,-2.3336,-2.3173,-2.3189,-2.3474,-2.3664,-2.3255,-2.2673,-2.2323,-2.1946,-2.1957,-2.2017,-2.2137,-2.2161,-2.2197,-2.2209,-2.2258,-2.2354,-2.2606,-2.2558,-2.2618,-2.2654,-2.2393,-2.2016,-2.1192,-2.0688,-2.0009,-1.9131,-1.8539,-1.794,-1.7392,-1.7583,-1.7844,-1.8064,-1.7999,-1.7816,-1.7495,-1.7568,-1.7843,-1.7706,-1.7789,-1.8082,-1.8458,-1.8733,-1.8999,-1.9201,-1.9246,-1.9292,-1.9292,-1.9292,-1.9292,-1.9292,-1.9292,-1.9292,-1.9301,-1.9222,-1.9054,-1.8576,-1.7844,-1.6796,-1.5906,-1.5431,-1.5431,-1.5431,-1.5347,-1.5347,-1.5173,-1.509,-1.4831,-1.4573,-1.4321,-1.4243,-1.4082,-1.4088,-1.4088,-1.4088,-1.4088,-1.4088,-1.4115,-1.4084,-1.3935,-1.3754,-1.3327,-1.2727,-1.1747,-1.0622,-0.986,-0.9248,-0.887,-0.856,-0.8564,-0.8396,-2.4454,-2.5367,-2.4229,-2.4506,-2.5635,-2.5628,-2.5239,-2.4576,-2.3864,-2.3385,-2.3038,-2.3939,-2.4298,-2.4283,-2.5535,-2.5994,-2.6342,-2.6453,-2.6025,-2.5713,-2.5503,-2.4433,-2.3596,-2.2964,-2.2793,-2.2709,-2.271,-2.2797,-2.2795,-2.2359,-2.1993,-2.1669,-2.1789,-2.174,-2.1849,-2.2005,-2.2125,-2.2197,-2.2197,-2.2197,-2.2197,-2.239,-2.2318,-2.2378,-2.2339,-2.204,-2.1267,-2.073,-2.0139,-1.909,-1.8489,-1.8047,-1.7877,-1.7534,-1.7559,-1.7596,-1.7642,-1.7559,-1.7303,-1.7156,-1.7183,-1.7376,-1.7385,-1.7752,-1.8064,-1.8357,-1.8632,-1.8852,-1.9045,-1.9072,-1.9136,-1.9173,-1.9228,-1.9283,-1.9283,-1.9292,-1.9292,-1.9292,-1.9213,-1.8496,-1.8086,-1.744,-1.6394,-1.5831,-1.5431,-1.5431,-1.5347,-1.5347,-1.5173,-1.509,-1.4915,-1.4657,-1.4489,-1.4328,-1.4159,-1.4088,-1.4088,-1.4088,-1.4088,-1.4088,-1.4088,-1.4135,-1.4255,-1.4269,-1.4166,-1.3742,-1.3141,-1.2229,-1.1353,-1.0362,-0.9657,-0.9196,-0.8828,-0.8761,-0.8625,-2.3998,-2.4321,-2.3562,-2.3743,-2.4497,-2.4717,-2.4524,-2.407,-2.3752,-2.3355,-2.3161,-2.3849,-2.4104,-2.4268,-2.5307,-2.5912,-2.5908,-2.6241,-2.6003,-2.5365,-2.4798,-2.3579,-2.2757,-2.2332,-2.2175,-2.2088,-2.2085,-2.2125,-2.2146,-2.1925,-2.1512,-2.1777,-2.1704,-2.1704,-2.1849,-2.2065,-2.2161,-2.2197,-2.2197,-2.2197,-2.2197,-2.2197,-2.2197,-2.2123,-2.1999,-2.1388,-2.073,-2.0333,-1.9222,-1.8365,-1.7901,-1.7536,-1.7515,-1.7438,-1.733,-1.7376,-1.7449,-1.7293,-1.7073,-1.6972,-1.6917,-1.6963,-1.7128,-1.7312,-1.7734,-1.8082,-1.8311,-1.8531,-1.8696,-1.8843,-1.8935,-1.9036,-1.9155,-1.9274,-1.9283,-1.9292,-1.9292,-1.9292,-1.8816,-1.8086,-1.7529,-1.696,-1.6312,-1.5756,-1.5431,-1.5431,-1.5347,-1.5257,-1.5173,-1.4999,-1.4741,-1.4566,-1.4412,-1.425,-1.4166,-1.4088,-1.4088,-1.4088,-1.4088,-1.4088,-1.4088,-1.4128,-1.4222,-1.4409,-1.4548,-1.407,-1.3642,-1.3069,-1.2221,-1.1223,-1.0294,-0.9757,-0.93,-0.8911,-0.8792,-2.3365,-2.3154,-2.2842,-2.2839,-2.3035,-2.3761,-2.3873,-2.3548,-2.3565,-2.355,-2.349,-2.358,-2.3821,-2.3925,-2.4766,-2.5232,-2.5282,-2.5529,-2.5344,-2.5089,-2.3985,-2.2857,-2.2125,-2.159,-2.1694,-2.1488,-2.1387,-2.1688,-2.1894,-2.1883,-2.1922,-2.2173,-2.2137,-2.2089,-2.2089,-2.2137,-2.2197,-2.2197,-2.2197,-2.2197,-2.2197,-2.2197,-2.2197,-2.2061,-2.1537,-2.0869,-2.0279,-1.9354,-1.8307,-1.7833,-1.7373,-1.6996,-1.7125,-1.7193,-1.7147,-1.7147,-1.7238,-1.7165,-1.7,-1.6908,-1.6908,-1.6908,-1.6917,-1.7009,-1.7367,-1.7678,-1.788,-1.7999,-1.8146,-1.8476,-1.8632,-1.8926,-1.9127,-1.9237,-1.9292,-1.9292,-1.9292,-1.9054,-1.8407,-1.7683,-1.696,-1.6394,-1.5997,-1.5431,-1.5431,-1.5431,-1.5347,-1.534,-1.5082,-1.4824,-1.4657,-1.4482,-1.4328,-1.4166,-1.4166,-1.4088,-1.4088,-1.4088,-1.4088,-1.4088,-1.4088,-1.4128,-1.4182,-1.4315,-1.4442,-1.4462,-1.405,-1.362,-1.3102,-1.2289,-1.1332,-1.0404,-0.9809,-0.9328,-0.9042,-2.3348,-2.3087,-2.2949,-2.2651,-2.2394,-2.3317,-2.3396,-2.2978,-2.3415,-2.331,-2.3056,-2.334,-2.3214,-2.2951,-2.3853,-2.4181,-2.3774,-2.4375,-2.4035,-2.363,-2.2944,-2.2309,-2.1784,-2.1393,-2.1412,-2.1415,-2.1343,-2.1358,-2.1602,-2.1897,-2.2116,-2.2173,-2.2197,-2.2197,-2.2197,-2.2197,-2.2061,-2.2197,-2.2061,-2.2061,-2.2061,-2.2135,-2.2135,-2.1788,-2.1262,-2.0409,-1.9683,-1.8813,-1.7891,-1.7226,-1.7038,-1.6908,-1.6927,-1.7009,-1.7,-1.6954,-1.7018,-1.7,-1.6972,-1.6908,-1.6908,-1.6908,-1.6908,-1.6908,-1.7018,-1.7193,-1.7339,-1.7449,-1.7697,-1.8073,-1.8346,-1.8702,-1.91,-1.9201,-1.9292,-1.9292,-1.9292,-1.8727,-1.8167,-1.7359,-1.6558,-1.6079,-1.559,-1.5431,-1.5431,-1.5431,-1.5431,-1.5264,-1.4992,-1.4734,-1.4573,-1.4405,-1.425,-1.4173,-1.4088,-1.4088,-1.4088,-1.4088,-1.4088,-1.4088,-1.4088,-1.4108,-1.4142,-1.4135,-1.4188,-1.4249,-1.4335,-1.4322,-1.3694,-1.3077,-1.2348,-1.1483,-1.0513,-0.9868,-0.9486,-2.323,-2.3045,-2.2591,-2.2278,-2.2125,-2.2499,-2.2678,-2.275,-2.3041,-2.2996,-2.2802,-2.3208,-2.3068,-2.241,-2.3302,-2.3264,-2.2729,-2.3203,-2.3045,-2.2574,-2.1984,-2.1493,-2.116,-2.1077,-2.1097,-2.1091,-2.1182,-2.1194,-2.1362,-2.1656,-2.1886,-2.2137,-2.2197,-2.2197,-2.2135,-2.1987,-2.1925,-2.2197,-2.1925,-2.1663,-2.1663,-2.1663,-2.1388,-2.0985,-2.0268,-1.9552,-1.8946,-1.8142,-1.756,-1.7028,-1.6908,-1.6908,-1.6908,-1.6936,-1.6927,-1.6908,-1.6927,-1.6908,-1.6908,-1.6908,-1.6908,-1.6908,-1.6908,-1.6908,-1.6473,-1.6634,-1.6722,-1.6857,-1.7661,-1.8063,-1.801,-1.8231,-1.8834,-1.9201,-1.9265,-1.9292,-1.9134,-1.8727,-1.8086,-1.744,-1.6796,-1.6394,-1.5914,-1.5431,-1.5431,-1.5347,-1.5347,-1.5173,-1.4824,-1.465,-1.4482,-1.4321,-1.4166,-1.4088,-1.4088,-1.4088,-1.4088,-1.4088,-1.4088,-1.4088,-1.4088,-1.4088,-1.4095,-1.4135,-1.4142,-1.4115,-1.4208,-1.4416,-1.4394,-1.3843,-1.3219,-1.2539,-1.1626,-1.0688,-1.026,-2.2867,-2.2735,-2.2051,-2.1709,-2.1724,-2.1545,-2.1743,-2.2224,-2.2514,-2.2664,-2.2727,-2.3121,-2.2996,-2.2886,-2.3034,-2.2822,-2.2526,-2.2152,-2.1876,-2.1573,-2.1007,-2.0862,-2.0719,-2.057,-2.0706,-2.0799,-2.0828,-2.0908,-2.1006,-2.1401,-2.1777,-2.2089,-2.2197,-2.2197,-2.1987,-2.16,-2.14,-2.16,-2.14,-2.0869,-2.0858,-2.0921,-2.059,-1.9933,-1.9145,-1.8613,-1.8075,-1.7619,-1.7097,-1.6968,-1.6908,-1.6908,-1.6908,-1.6908,-1.6908,-1.6908,-1.6908,-1.6908,-1.6908,-1.6908,-1.6908,-1.6908,-1.6908,-1.67,-1.6202,-1.5842,-1.5991,-1.6206,-1.6993,-1.7358,-1.7223,-1.7656,-1.8337,-1.8797,-1.885,-1.8886,-1.8647,-1.8407,-1.7925,-1.7359,-1.6796,-1.6394,-1.5997,-1.5514,-1.5347,-1.534,-1.5166,-1.4915,-1.4741,-1.4566,-1.4398,-1.4237,-1.4166,-1.4088,-1.4088,-1.4088,-1.4088,-1.4088,-1.4088,-1.4088,-1.4088,-1.4088,-1.4122,-1.4202,-1.4188,-1.4188,-1.4322,-1.4543,-1.4507,-1.4371,-1.4311,-1.377,-1.2725,-1.1859,-1.1207,-2.192,-2.1564,-2.1427,-2.105,-2.0528,-2.0868,-2.0803,-2.0505,-2.147,-2.2158,-2.245,-2.2219,-2.1945,-2.1516,-2.1617,-2.1495,-2.1213,-2.0879,-2.0601,-2.0289,-2.0505,-2.054,-2.0446,-2.0313,-2.0589,-2.0607,-2.0501,-2.0569,-2.0885,-2.1304,-2.1777,-2.2161,-2.2197,-2.2135,-2.1999,-2.16,-2.1071,-2.1071,-2.0613,-2.002,-1.9814,-1.9944,-2.0279,-1.9683,-1.8834,-1.8432,-1.7969,-1.7373,-1.7038,-1.6908,-1.6908,-1.6908,-1.6908,-1.6908,-1.6908,-1.6908,-1.6908,-1.6908,-1.6908,-1.6972,-1.7,-1.6917,-1.6857,-1.6596,-1.5867,-1.476,-1.4712,-1.4355,-1.4984,-1.5368,-1.5528,-1.6588,-1.7301,-1.7479,-1.7513,-1.7594,-1.7513,-1.7521,-1.7359,-1.6714,-1.6064,-1.5824,-1.5673,-1.5347,-1.5257,-1.5166,-1.5082,-1.4824,-1.4566,-1.4398,-1.4314,-1.4243,-1.4088,-1.4088,-1.4088,-1.4088,-1.4088,-1.4088,-1.4088,-1.4088,-1.4088,-1.4088,-1.4135,-1.4202,-1.4315,-1.4369,-1.4529,-1.4589,-1.4658,-1.4753,-1.5272,-1.5063,-1.3968,-1.3,-1.2287]}]]